Home Sewing is Killing Fashion

PRE DATA

Datetime Category Release
2017-05-31 00:01:02 X264 Mobile.Suit.Gundam.Seed.E29.REMASTERED.1080p.WEB.x264-ANiURL
2017-05-31 00:02:39 TV-HD Mobile.Suit.Gundam.Seed.E29.REMASTERED.720p.WEB.x264-ANiURL
2017-05-31 00:03:39 X264 One.Two.Three.1961.720p.BluRay.X264-AMIABLE
2017-05-31 00:04:16 TV Mobile.Suit.Gundam.Seed.E29.REMASTERED.WEB.x264-ANiURL
2017-05-31 00:04:23 X264 Kingdom.Of.Gladiators.The.Tournament.2017.NFOFIX.DVDRip.x264-SPOOKS
2017-05-31 00:05:16 MP3 Kronos_-_Civil_War_EP-(A2REC162)-WEB-2017-MMS
2017-05-31 00:05:49 TV-X264 Mobile.Suit.Gundam.Seed.E30.REMASTERED.1080p.WEB.x264-ANiURL
2017-05-31 00:06:47 TV-XVID Twin.Peaks.S03E03.SPANiSH.HDTV.x264-FERiCE
2017-05-31 00:07:12 TV-X264 Twin.Peaks.S03E03.SPANiSH.720p.HDTV.x264-FERiCE
2017-05-31 00:07:24 TV-X264 Mobile.Suit.Gundam.Seed.E30.REMASTERED.720p.WEB.x264-ANiURL
2017-05-31 00:09:01 TV-X264 Mobile.Suit.Gundam.Seed.E30.REMASTERED.WEB.x264-ANiURL
2017-05-31 00:10:17 X264 Stone.2010.German.DL.1080p.BluRay.AVC-ONFiRE
2017-05-31 00:10:35 TV-X264 Mobile.Suit.Gundam.Seed.E31.REMASTERED.1080p.WEB.x264-ANiURL
2017-05-31 00:11:30 X264 John.Legend.Live.at.Round.Chapel.2017.720p.WEBRip.x264-LiQUiD
2017-05-31 00:11:51 TV-XVID Greys.Anatomy.S13E18.FRENCH.HDTV.x264-AMB3R
2017-05-31 00:12:09 TV-X264 Mobile.Suit.Gundam.Seed.E31.REMASTERED.720p.WEB.x264-ANiURL
2017-05-31 00:13:09 TV-X264 Rokudenashi.Majutsu.Koushi.to.Akashic.Records.E09.SUBFRENCH.1080p.WEBRip.X264-SLEEPINGFOREST
2017-05-31 00:13:21 TV-X264 Shuumatsu.Nani.Shitemasu.ka.Isogashii.desu.ka.Sukutte.Moratte.Ii.desu.ka.E08.SUBFRENCH.1080p.WEBRip.X264-SLEEPINGFOREST
2017-05-31 00:13:34 TV-X264 The.IDOLMASTER.Cinderella.Girls.Gekijo.E09.SUBFRENCH.1080p.WEBRip.X264-SLEEPINGFOREST
2017-05-31 00:13:43 TV Yowamushi.Pedal.Third.Season.E21.SUBFRENCH.1080p.WEBRip.X264-SLEEPINGFOREST
2017-05-31 00:13:46 TV-SD Mobile.Suit.Gundam.Seed.E31.REMASTERED.WEB.x264-ANiURL
2017-05-31 00:13:55 TV-X264 Rokudenashi.Majutsu.Koushi.to.Akashic.Records.E09.SUBFRENCH.720p.WEBRip.X264-SLEEPINGFOREST
2017-05-31 00:14:05 TV-X264 Shuumatsu.Nani.Shitemasu.ka.Isogashii.desu.ka.Sukutte.Moratte.Ii.desu.ka.E08.SUBFRENCH.720p.WEBRip.X264-SLEEPINGFOREST
2017-05-31 00:14:14 TV-X264 The.IDOLMASTER.Cinderella.Girls.Gekijo.E09.SUBFRENCH.720p.WEBRip.X264-SLEEPINGFOREST
2017-05-31 00:14:22 TV-HD-X264 Yowamushi.Pedal.Third.Season.E21.SUBFRENCH.720p.WEBRip.X264-SLEEPINGFOREST
2017-05-31 00:14:38 X264 Wings.of.an.Eagle.A.Musicians.Journey.Into.America.2017.720p.WEBRip.x264-LiQUiD
2017-05-31 00:15:19 X264 Mobile.Suit.Gundam.Seed.E32.REMASTERED.1080p.WEB.x264-ANiURL
2017-05-31 00:16:51 TV-XVID Dara.O.Briains.Go.8Bit.S02E03.WEB.h264-WaLMaRT
2017-05-31 00:16:53 TV-X264 Mobile.Suit.Gundam.Seed.E32.REMASTERED.720p.WEB.x264-ANiURL
2017-05-31 00:17:09 XXX 40.Fucking.Indians.2017.XXX.DVDRip.x264-HAiRYPUSSY
2017-05-31 00:17:51 PRE John.Legend.Live.at.Round.Chapel.2017.1080p.WEBRip.x264-LiQUiD
2017-05-31 00:18:07 XXX Ebony.Power.2017.XXX.DVDRip.x264-HAiRYPUSSY
2017-05-31 00:18:27 TV-X264 Mobile.Suit.Gundam.Seed.E32.REMASTERED.WEB.x264-ANiURL
2017-05-31 00:18:47 X264 The.Cheated.Lover.2017.XXX.DVDRip.x264-HAiRYPUSSY
2017-05-31 00:19:16 TV F.is.for.Family.S02E06.720p.WEBRip.x264-MOROSE
2017-05-31 00:20:02 TV-X264 Mobile.Suit.Gundam.Seed.E33.REMASTERED.1080p.WEB.x264-ANiURL
2017-05-31 00:20:30 X264 Ich.reise.allein.2011.German.AC3D.DL.720p.BluRay.x264-DiRTYDUB
2017-05-31 00:20:55 X264 Le.Divan.de.Staline.2016.RERIP.FRENCH.720p.BluRay.x264-LOST
2017-05-31 00:20:56 PRE Wings.of.an.Eagle.A.Musicians.Journey.Into.America.2017.1080p.WEBRip.x264-LiQUiD
2017-05-31 00:21:36 TV-X264 Mobile.Suit.Gundam.Seed.E33.REMASTERED.720p.WEB.x264-ANiURL
2017-05-31 00:23:10 TV-X264 Mobile.Suit.Gundam.Seed.E33.REMASTERED.WEB.x264-ANiURL
2017-05-31 00:24:44 TV-X264 Mobile.Suit.Gundam.Seed.E34.REMASTERED.1080p.WEB.x264-ANiURL
2017-05-31 00:25:26 TV-X264 Rush.Hour.2016.S01E11.FRENCH.720p.HDTV.x264-SH0W
2017-05-31 00:26:19 TV-X264 Mobile.Suit.Gundam.Seed.E34.REMASTERED.720p.WEB.x264-ANiURL
2017-05-31 00:27:51 X264 Mobile.Suit.Gundam.Seed.E34.REMASTERED.WEB.x264-ANiURL
2017-05-31 00:29:25 TV-X264 Mobile.Suit.Gundam.Seed.E35.REMASTERED.1080p.WEB.x264-ANiURL
2017-05-31 00:29:28 TV-X264 Rush.Hour.2016.S01E12.FRENCH.720p.HDTV.x264-DEAL
2017-05-31 00:29:56 TV-XVID Rush.Hour.2016.S01E12.FRENCH.HDTV.x264-DEAL
2017-05-31 00:30:09 APPS OREILLY.SOFTWARE.ARCHITECTURE.SERIES.SERVICE-BASED.ARCHITECTURE.TUTORiAL-PROPAGANDA
2017-05-31 00:30:26 TV-X264 Rush.Hour.2016.S01E13.FiNAL.FRENCH.720p.HDTV.x264-DEAL
2017-05-31 00:30:57 TV-XVID Rush.Hour.2016.S01E13.FiNAL.FRENCH.HDTV.x264-DEAL
2017-05-31 00:30:59 TV-X264 Mobile.Suit.Gundam.Seed.E35.REMASTERED.720p.WEB.x264-ANiURL
2017-05-31 00:31:39 X264 Before.I.Fall.2016.FRENCH.720p.BluRay.x264-LOST
2017-05-31 00:32:34 TV-X264 Mobile.Suit.Gundam.Seed.E35.REMASTERED.WEB.x264-ANiURL
2017-05-31 00:33:03 TV-X264 The.Chillenden.Murders.S01E01.720p.HDTV.x264-QPEL
2017-05-31 00:33:16 X264 Before.I.Fall.2016.FRENCH.1080p.BluRay.x264-LOST
2017-05-31 00:34:06 TV-HD-X264 Mobile.Suit.Gundam.Seed.E36.REMASTERED.1080p.WEB.x264-ANiURL
2017-05-31 00:35:40 TV-X264 Mobile.Suit.Gundam.Seed.E36.REMASTERED.720p.WEB.x264-ANiURL
2017-05-31 00:36:26 MP3 YSB_-_The_Second_Mental_Independence_(Remixes)-(21)-WEB-2017-ZzZz
2017-05-31 00:36:59 MP3 VA_-_Summer_Bike_Boot_Camp_2017-(10121978)-WEB-2017-ZzZz
2017-05-31 00:37:13 TV-X264 Mobile.Suit.Gundam.Seed.E36.REMASTERED.WEB.x264-ANiURL
2017-05-31 00:38:30 TV-XVID Rush.Hour.2016.S01E11.FRENCH.HDTV.x264-AMB3R
2017-05-31 00:38:47 TV-X264 Mobile.Suit.Gundam.Seed.E37.REMASTERED.1080p.WEB.x264-ANiURL
2017-05-31 00:40:20 TV-X264 Mobile.Suit.Gundam.Seed.E37.REMASTERED.720p.WEB.x264-ANiURL
2017-05-31 00:40:51 X264 Neruda.2016.FRENCH.BDRiP.x264-PRiDEHD
2017-05-31 00:41:54 TV-X264 Mobile.Suit.Gundam.Seed.E37.REMASTERED.WEB.x264-ANiURL
2017-05-31 00:42:01 MP3 Jakub_Cheerful-Meteor-WEB-2017-BPM
2017-05-31 00:42:24 MP3 Jakub_Cheerful-Of_The_Movement-WEB-2017-BPM
2017-05-31 00:42:45 MP3 Jakub_Cheerful-River_Walk__Medusa-WEB-2017-BPM
2017-05-31 00:42:47 MP3 Congruent_-_Paradox-(KSH_006)-WEB-2017-ZzZz
2017-05-31 00:43:06 MP3 Stephan_Crown-Basement_Twentyone-WEB-2017-BPM
2017-05-31 00:43:27 TV-HD-X264 Mobile.Suit.Gundam.Seed.E38.REMASTERED.1080p.WEB.x264-ANiURL
2017-05-31 00:43:29 MP3 VA-The_Best_Of_Xtreme_Techno_Series_Vol_1-WEB-2017-BPM
2017-05-31 00:44:10 TV-HD-X264 F.is.for.Family.S02E07.720p.WEBRip.x264-MOROSE
2017-05-31 00:44:45 MP3 Namaas_And_Vit_Gula_And_Zahi_-_The_Bomb-(PARA_014)-WEB-2017-ZzZz
2017-05-31 00:45:01 TV-X264 Mobile.Suit.Gundam.Seed.E38.REMASTERED.720p.WEB.x264-ANiURL
2017-05-31 00:46:34 TV-X264 Mobile.Suit.Gundam.Seed.E38.REMASTERED.WEB.x264-ANiURL
2017-05-31 00:46:58 MP3 Pro4ound_-_Night_Walker_EP-(OLDSQL_462)-WEB-2017-ZzZz
2017-05-31 00:48:06 TV-X264 Mobile.Suit.Gundam.Seed.E39.REMASTERED.1080p.WEB.x264-ANiURL
2017-05-31 00:48:39 MP3 Pyry_Okkolin_-_Luminance_EP-(SS_010)-WEB-2017-ZzZz
2017-05-31 00:49:39 TV-X264 Mobile.Suit.Gundam.Seed.E39.REMASTERED.720p.WEB.x264-ANiURL
2017-05-31 00:50:26 MP3 Roberto_Garcia_Feat_Elias_Cruz_-_Circuit_Proyect-(DRM_023)-WEB-2017-ZzZz
2017-05-31 00:51:12 TV-X264 Mobile.Suit.Gundam.Seed.E39.REMASTERED.WEB.x264-ANiURL
2017-05-31 00:52:23 MP3 Romix_Fly_-_Love_(Original_Mix)-(BSR_011)-WEB-2017-ZzZz
2017-05-31 00:52:44 TV-X264 Mobile.Suit.Gundam.Seed.E40.REMASTERED.1080p.WEB.x264-ANiURL
2017-05-31 00:54:19 TV-X264 Mobile.Suit.Gundam.Seed.E40.REMASTERED.720p.WEB.x264-ANiURL
2017-05-31 00:55:50 TV-X264 Mobile.Suit.Gundam.Seed.E40.REMASTERED.WEB.x264-ANiURL
2017-05-31 00:57:22 X264 Mobile.Suit.Gundam.Seed.E41.REMASTERED.1080p.WEB.x264-ANiURL
2017-05-31 00:58:56 TV-X264 Mobile.Suit.Gundam.Seed.E41.REMASTERED.720p.WEB.x264-ANiURL
2017-05-31 01:00:28 TV-X264 Mobile.Suit.Gundam.Seed.E41.REMASTERED.WEB.x264-ANiURL
2017-05-31 01:00:38 MP3 Unleashed_Minds_-_Time_Track-(JS_1416)-WEB-2017-ZzZz
2017-05-31 01:01:43 X264 Akeelah.and.the.Bee.2006.720p.BluRay.X264-AMIABLE
2017-05-31 01:02:03 TV-HD Mobile.Suit.Gundam.Seed.E42.REMASTERED.1080p.WEB.x264-ANiURL
2017-05-31 01:03:32 TV-X264 Mobile.Suit.Gundam.Seed.E42.REMASTERED.720p.WEB.x264-ANiURL
2017-05-31 01:05:05 TV-X264 Mobile.Suit.Gundam.Seed.E42.REMASTERED.WEB.x264-ANiURL
2017-05-31 01:05:41 TV Britains.Got.Talent.S11E10.720p.HDTV.x264-PLUTONiUM
2017-05-31 01:05:51 FLAC 2_Unlimited-Get_Ready_For_This-(BYTE_5006)-CDS-FLAC-1991-WRE
2017-05-31 01:06:37 TV-X264 Mobile.Suit.Gundam.Seed.E43.REMASTERED.1080p.WEB.x264-ANiURL
2017-05-31 01:06:48 FLAC Armin_Van_Buuren-The_Best_Of_Armin_Only-(ARMA442)-PROPER-2CD-FLAC-2017-WRE
2017-05-31 01:08:09 TV-X264 Mobile.Suit.Gundam.Seed.E43.REMASTERED.720p.WEB.x264-ANiURL
2017-05-31 01:08:13 TV-X264 Tegami.Bachi.E22.SUBFRENCH.720p.HDTV.x264-AMB3R
2017-05-31 01:08:25 TV-XVID Tegami.Bachi.E22.SUBFRENCH.HDTV.x264-AMB3R
2017-05-31 01:09:26 FLAC Army_Of_Lovers-Give_My_Life-(579_782-2)-CDS-FLAC-1995-WRE
2017-05-31 01:09:41 TV-X264 Mobile.Suit.Gundam.Seed.E43.REMASTERED.WEB.x264-ANiURL
2017-05-31 01:10:27 FLAC Blue_Cheer-Live_At_Rock_Palast_Bonn_2008-(MIG_90752)-DELUXE_EDITION-DVD-FLAC-2017-WRE
2017-05-31 01:11:13 TV-X264 Mobile.Suit.Gundam.Seed.E44.REMASTERED.1080p.WEB.x264-ANiURL
2017-05-31 01:12:01 FLAC Blue_Cheer-Live_At_Rock_Palast_Bonn_2008-(MIG_90752)-DELUXE_EDITION_BONUS-2CD-FLAC-2017-WRE
2017-05-31 01:12:45 X264 Mobile.Suit.Gundam.Seed.E44.REMASTERED.720p.WEB.x264-ANiURL
2017-05-31 01:13:53 FLAC Boef-Slaaptekort-NL-CD-FLAC-2017-WRE
2017-05-31 01:14:04 TV-X264 Twin.Peaks.S03E03.SPANiSH.1080p.HDTV.x264-FERiCE
2017-05-31 01:14:17 TV-X264 Mobile.Suit.Gundam.Seed.E44.REMASTERED.WEB.x264-ANiURL
2017-05-31 01:14:42 TV-XVID Twin.Peaks.S03E04.SPANiSH.HDTV.x264-FERiCE
2017-05-31 01:15:04 FLAC Enigma-The_Fall_Of_A_Rebel_Angel-(0602557093445)-DELUXE_EDITION-2CD-FLAC-2016-WRE
2017-05-31 01:15:49 TV-X264 Mobile.Suit.Gundam.Seed.E45.REMASTERED.1080p.WEB.x264-ANiURL
2017-05-31 01:16:53 FLAC Mothers_Finest-Iron_Age-(CANDY324)-REMASTERED-CD-FLAC-2017-WRE
2017-05-31 01:17:13 TV-HD-X264 F.is.for.Family.S02E08.720p.WEBRip.x264-MOROSE
2017-05-31 01:17:20 TV-X264 Mobile.Suit.Gundam.Seed.E45.REMASTERED.720p.WEB.x264-ANiURL
2017-05-31 01:18:05 FLAC Hawkwind-Out_Of_The_Shadows-(SECDP157)-DELUXE_EDITION-CD-FLAC-2017-WRE
2017-05-31 01:18:52 TV-X264 Mobile.Suit.Gundam.Seed.E45.REMASTERED.WEB.x264-ANiURL
2017-05-31 01:19:20 FLAC VA-12_Inch_Dance_80s_Remix-(0190295908607)-Digipak-3CD-FLAC-2017-WRE
2017-05-31 01:20:24 TV-X264 Mobile.Suit.Gundam.Seed.E46.REMASTERED.1080p.WEB.x264-ANiURL
2017-05-31 01:21:56 TV-X264 Mobile.Suit.Gundam.Seed.E46.REMASTERED.720p.WEB.x264-ANiURL
2017-05-31 01:22:20 TV-XVID Battle.Creek.S01E10.FRENCH.HDTV.x264-AMB3R
2017-05-31 01:22:42 FLAC De_Smurfen-De_Gesmurfte_Hits-(88985430872)-NL-CD-FLAC-2017-WRE
2017-05-31 01:23:01 FLAC Serena_Ryder-Utopia-CD-FLAC-2017-PERFECT
2017-05-31 01:23:29 TV-SD Mobile.Suit.Gundam.Seed.E46.REMASTERED.WEB.x264-ANiURL
2017-05-31 01:25:01 TV-HD Mobile.Suit.Gundam.Seed.E47.REMASTERED.1080p.WEB.x264-ANiURL
2017-05-31 01:25:52 FLAC VA-Dirty_Dancing-OST-CD-FLAC-2017-PERFECT
2017-05-31 01:26:23 TV Lethal.Weapon.S01E11.FRENCH.1080p.HDTV.x264-Ryotox
2017-05-31 01:26:31 TV-X264 Mobile.Suit.Gundam.Seed.E47.REMASTERED.720p.WEB.x264-ANiURL
2017-05-31 01:28:02 TV-X264 Mobile.Suit.Gundam.Seed.E47.REMASTERED.WEB.x264-ANiURL
2017-05-31 01:29:33 TV-X264 Mobile.Suit.Gundam.Seed.E48.REMASTERED.1080p.WEB.x264-ANiURL
2017-05-31 01:31:05 X264 Mobile.Suit.Gundam.Seed.E48.REMASTERED.720p.WEB.x264-ANiURL
2017-05-31 01:32:20 TV-HD F.is.for.Family.S02E09.720p.WEBRip.x264-MOROSE
2017-05-31 01:32:35 TV-X264 Mobile.Suit.Gundam.Seed.E48.REMASTERED.WEB.x264-ANiURL
2017-05-31 01:32:41 X264 One.Two.Three.1961.1080p.BluRay.X264-AMIABLE
2017-05-31 01:37:37 0DAY Automobilista.Legendary.Tracks.Part.3.Hockenheim.Update.v1.4.05-CODEX
2017-05-31 01:38:57 TV-X264 Battle.Creek.S01E10.FRENCH.720p.HDTV.x264-AMB3R
2017-05-31 01:42:25 BLURAY Harry.Potter.And.The.Order.Of.The.Phoenix.2007.iNTERNAL.COMPLETE.BLURAY-GERUDO
2017-05-31 01:42:38 MP3 VA-OWSLA_Worldwide_Broadcast-2016-C4
2017-05-31 01:46:11 TV Lethal.Weapon.S01E12.FRENCH.1080p.HDTV.x264-Ryotox
2017-05-31 01:57:39 X264 Akeelah.and.the.Bee.2006.1080p.BluRay.X264-AMIABLE
2017-05-31 01:58:10 TV-X264 F.is.for.Family.S02E10.720p.WEBRip.x264-MOROSE
2017-05-31 02:06:42 FIX FxpHD.NUKE.Compositing.Best.Practices-TUTOR
2017-05-31 02:08:24 FLAC VA-OWSLA_Worldwide_Broadcast-CD-FLAC-2016-PERFECT
2017-05-31 02:13:50 TV-X264 Rush.Hour.2016.S01E10.FRENCH.1080p.HDTV.x264-Ryotox
2017-05-31 02:14:33 TV-X264 Pretty.Little.Liars.S07E16.720p.WEB.x264-TBS
2017-05-31 02:14:58 MP3 Max_Vangeli-NoFace_Radio-DAB-28-05-2017-1KING
2017-05-31 02:16:19 TV-XVID Battle.Creek.S01E11.FRENCH.HDTV.x264-AMB3R
2017-05-31 02:20:36 TV-X264 Days.of.our.Lives.S52E177.720p.WEB.x264-WEBSTER
2017-05-31 02:29:51 X264 Starlight.2017.SUBBED.1080p.BluRay.x264-RedBlade
2017-05-31 02:29:58 TV-X264 Downward.Dog.S01E03.720p.HDTV.x264-SVA
2017-05-31 02:30:18 TV-XVID Downward.Dog.S01E03.HDTV.x264-SVA
2017-05-31 02:32:05 X264 Starlight.2017.SUBBED.720p.BluRay.x264-RedBlade
2017-05-31 02:32:09 TV-X264 Battle.Creek.S01E11.FRENCH.720p.HDTV.x264-AMB3R
2017-05-31 02:33:35 TV-X264 Pretty.Little.Liars.S07E16.WEB.x264-TBS
2017-05-31 02:34:20 XVID Starlight.2017.SUBBED.BDRip.x264-RedBlade
2017-05-31 02:36:03 MP3 C.Strong_Bloodline-MAD-WEB-2016-ENRAGED
2017-05-31 02:36:18 MP3 DNero-Story_Of_A_Young_Boss-WEB-2013-ENRAGED
2017-05-31 02:36:33 MP3 Global_Dan-Off_White_(feat_Mongo)-SINGLE-WEB-2016-ENRAGED
2017-05-31 02:36:50 MP3 Goldfingaz-Purp_Cookies_Kush_(feat_Nj_Nash_Boogie_Mistah_Fab_and_Bigg_Mann)-SINGLE-WEB-2016-ENRAGED
2017-05-31 02:37:06 MP3 Nash_Boogie-Make_America_08_Again-WEB-2017-ENRAGED
2017-05-31 02:37:21 MP3 Nash_Boogie-Nashua-EP-WEB-2017-ENRAGED
2017-05-31 02:37:37 MP3 RB_Naph-My_Own_Boss-WEB-2017-ENRAGED
2017-05-31 02:37:51 MP3 RadaMan-RadaMan_Dos-WEB-2017-ENRAGED
2017-05-31 02:38:07 MP3 Ruff_Dogg-The_Package-WEB-2009-ENRAGED
2017-05-31 02:38:24 MP3 SInbad-The_Red_Tape-EP-WEB-2017-ENRAGED
2017-05-31 02:38:38 MP3 Smalls-My_Own_Boss-WEB-2017-ENRAGED
2017-05-31 02:38:55 MP3 Smalls-You_Killin_Me_Smalls-WEB-2016-ENRAGED
2017-05-31 02:39:09 MP3 Ty_Da_King-From_a_Kid_to_a_King-WEB-2017-ENRAGED
2017-05-31 02:39:25 MP3 Woo-Young_Chill_Texas_Boys_Vol_5-WEB-2012-ENRAGED
2017-05-31 02:39:36 TV-HD-FR Rush.Hour.2016.S01E11.FRENCH.1080p.HDTV.x264-Ryotox
2017-05-31 02:39:43 MP3 YLyric-Waterfalls-SINGLE-WEB-2017-ENRAGED
2017-05-31 02:40:45 MP3 Amida-Boring_Birth-(PZL052)-WEB-2014-MOHAWK
2017-05-31 02:41:44 MP3 Beanpole-From_Blue_To_You-(PZL033)-WEB-2013-MOHAWK
2017-05-31 02:42:38 MP3 Birds_Of_California-One_And_Only-(PZL028)-WEB-2013-MOHAWK
2017-05-31 02:43:06 MP3 Cozy_Catastrophes-Have_You_Ever_Heard_of_Cozy_Catastrophes-(PZL092)-WEB-2015-MOHAWK
2017-05-31 02:44:35 MP3 Gentle_Brent-Just_Dandy-(PZL119)-WEB-2017-MOHAWK
2017-05-31 02:45:34 MP3 Halfsour-Tuesday_Night_Live-(PZL094)-WEB-2016-MOHAWK
2017-05-31 02:46:15 MP3 Le_SuperHomard-Maple_Key-(PZL110)-WEB-2015-MOHAWK
2017-05-31 02:47:40 MP3 Lunchbox-Lunchbox_Loves_You-(PZL057)-WEB-2014-MOHAWK
2017-05-31 02:48:30 MP3 Mark_Dzula-Begin_Again-(PZL051)-WEB-2014-MOHAWK
2017-05-31 02:48:53 MP3 Marlovers-Waves-(PZL102)-WEB-2016-MOHAWK
2017-05-31 02:49:24 MP3 Hante.-Between_Hope_And_Danger-Ltd.Ed.-2017-AMOK
2017-05-31 02:49:56 MP3 Purple_Fog_Side-The_Discord-Ltd.Ed.-2017-AMOK
2017-05-31 02:49:58 MP3 Michael_Knight-Physics_Is_Out_To_Get_Me-(PZL093)-WEB-2015-MOHAWK
2017-05-31 02:50:22 MP3 Restless_Hearts-Restless_Hearts-(PZL086)-WEB-2015-MOHAWK
2017-05-31 02:50:43 TV-HD-X264 The.Thirteen.Factors.That.Saved.Apollo.13.S01E01.1080p.HDTV.x264-PLUTONiUM
2017-05-31 02:51:00 MP3 Scooterbabe-The_Sorrow_Youve_Been_Toting_Around-(PZL111)-WEB-2016-MOHAWK
2017-05-31 02:52:24 MP3 Sissy_Fuzz-Footnotes-(PZL059)-WEB-2014-MOHAWK
2017-05-31 02:53:06 MP3 Standard_Unit-The_Art_Of_Falling_Apart-(PZL030)-WEB-2013-MOHAWK
2017-05-31 02:53:40 TV-X264 Kabukibu.E08.SUBFRENCH.720p.HDTV.x264-AMB3R
2017-05-31 02:53:47 TV-XVID Kabukibu.E08.SUBFRENCH.HDTV.x264-AMB3R
2017-05-31 02:53:52 MP3 Thee_Ahs-Coreys_Coathangers-(PZL047)-WEB-2014-MOHAWK
2017-05-31 02:54:20 TV-HD-X264 Street.Outlaws.S09E13.720p.WEB.x264-TBS
2017-05-31 02:54:36 MP3 The_Faintest_Ideas-Terrific_Times_And_Unrehearsed_Crimes-(PZL035)-WEB-2013-MOHAWK
2017-05-31 02:55:12 TV Britains.Got.Talent.S11E10.1080p.HDTV.x264-PLUTONiUM
2017-05-31 02:55:43 TV-X264 Street.Outlaws.S09E13.WEB.x264-TBS
2017-05-31 02:56:01 MP3 The_Gravy_Train-Thank_You_For_Nothing-(PZL064)-WEB-2014-MOHAWK
2017-05-31 02:56:13 TV-X264 Pretty.Little.Liars.S07E16.720p.HDTV.x264-SVA
2017-05-31 02:56:48 TV-XVID Pretty.Little.Liars.S07E16.HDTV.x264-SVA
2017-05-31 02:57:08 MP3 The_Rentiers-Bring_Me_The_Finest_World_Map_Shower_Curtain_In_All_The_Land-(PZL113)-WEB-2017-MOHAWK
2017-05-31 02:58:38 MP3 VA-Five_Years_of_Loving_Notes-(ATN5YEARS)-WEB-2017-MOHAWK
2017-05-31 02:58:56 TV-HD-X264 Street.Outlaws.S09E13.1080p.WEB.x264-TBS
2017-05-31 02:59:25 TV Britains.Got.Talent.S11E11.HDTV.x264-PLUTONiUM
2017-05-31 03:01:22 TV-X264 Chicago.Med.S02E13.Theseus.Ship.GERMAN.DUBBED.DL.1080p.WebHD.x264-TVP
2017-05-31 03:01:38 TV Britains.Got.Talent.S11E11.720p.HDTV.x264-PLUTONiUM
2017-05-31 03:03:25 TV-X264 Chicago.Med.S02E13.Theseus.Ship.GERMAN.DUBBED.DL.720p.WebHD.x264-TVP
2017-05-31 03:03:57 TV Britains.Got.Talent.S11E11.1080p.HDTV.x264-PLUTONiUM
2017-05-31 03:05:31 TV-XVID Chicago.Med.S02E13.Theseus.Ship.GERMAN.DUBBED.WS.WebRip.x264-TVP
2017-05-31 03:06:08 MP3 Lil_Yachty-Teenage_Emotions-(Deluxe_Edition)-2017-C4
2017-05-31 03:06:53 TV-XVID Britains.Got.More.Talent.S11E09.HDTV.x264-PLUTONiUM
2017-05-31 03:08:15 TV-X264 Die.Schatzsucher.Goldrausch.in.Alaska.Special.Das.Dakota.Team.GERMAN.DOKU.720p.HDTV.x264-TVP
2017-05-31 03:10:21 TV-XVID Die.Schatzsucher.Goldrausch.in.Alaska.Special.Das.Dakota.Team.GERMAN.DOKU.WS.HDTVRip.x264-TVP
2017-05-31 03:12:27 TV-X264 Die.Schatzsucher.Goldrausch.in.Alaska.Special.Monstermaschinen.GERMAN.DOKU.720p.HDTV.x264-TVP
2017-05-31 03:14:31 TV-XVID Die.Schatzsucher.Goldrausch.in.Alaska.Special.Monstermaschinen.GERMAN.DOKU.WS.HDTVRip.x264-TVP
2017-05-31 03:17:01 TV-X264 Outcast.S02E07.Die.gute.Tat.des.Tages.GERMAN.DUBBED.DL.1080p.WebHD.x264-TVP
2017-05-31 03:19:03 TV-X264 Outcast.S02E07.Die.gute.Tat.des.Tages.GERMAN.DUBBED.DL.720p.WebHD.x264-TVP
2017-05-31 03:21:09 TV-XVID Outcast.S02E07.Die.gute.Tat.des.Tages.GERMAN.DUBBED.WS.WebRip.x264-TVP
2017-05-31 03:22:54 TV-X264 Britains.Got.More.Talent.S11E09.720p.HDTV.x264-PLUTONiUM
2017-05-31 03:23:15 TV-X264 Outcast.S02E08.Reisende.in.Sachen.Mord.GERMAN.DUBBED.DL.1080p.WebHD.x264-TVP
2017-05-31 03:25:20 TV-X264 Outcast.S02E08.Reisende.in.Sachen.Mord.GERMAN.DUBBED.DL.720p.WebHD.x264-TVP
2017-05-31 03:26:15 TV-X264 Battle.Creek.S01E10.FRENCH.1080p.HDTV.x264-Ryotox
2017-05-31 03:26:51 TV-XVID Prison.Break.S05E09.HDTV.x264-KILLERS
2017-05-31 03:27:09 TV-X264 Prison.Break.S05E09.720p.HDTV.x264-KILLERS
2017-05-31 03:27:26 TV-XVID Outcast.S02E08.Reisende.in.Sachen.Mord.GERMAN.DUBBED.WS.WebRip.x264-TVP
2017-05-31 03:29:20 TV-X264 Pretty.Little.Liars.S07E16.REPACK.720p.HDTV.x264-SVA
2017-05-31 03:29:28 TV-SD-X264 Pretty.Little.Liars.S07E16.REPACK.HDTV.x264-SVA
2017-05-31 03:30:54 TV-X264 Die.Drei.vom.Pfandhaus.S13E21.Eine.Frage.des.Blickwinkels.GERMAN.DL.DOKU.720p.HDTV.x264-TVP
2017-05-31 03:31:36 0DAY Vanquish.Update.1-CODEX
2017-05-31 03:32:57 TV-XVID Die.Drei.vom.Pfandhaus.S13E21.Eine.Frage.des.Blickwinkels.GERMAN.DOKU.WS.HDTVRip.x264-TVP
2017-05-31 03:34:28 TV-HD-X264 Battle.Creek.S01E11.FRENCH.1080p.HDTV.x264-Ryotox
2017-05-31 03:34:38 FLAC Lil_Yachty-Teenage_Emotions-Deluxe_Edition-CD-FLAC-2017-PERFECT
2017-05-31 03:35:03 TV-X264HD Die.Drei.vom.Pfandhaus.S13E22.Patriotisches.Liedgut.GERMAN.DL.DOKU.720p.HDTV.x264-TVP
2017-05-31 03:37:07 TV Die.Drei.vom.Pfandhaus.S13E22.Patriotisches.Liedgut.GERMAN.DOKU.WS.HDTVRip.x264-TVP
2017-05-31 03:38:07 MP3 Acherontas-Amarta__(Formulas_of_Reptilian_Unification_Pt_II)-WEB-2017-ENTiTLED
2017-05-31 03:38:43 MP3 From_Idols_to_Ashes-Scare_Tactics-EP-WEB-2017-ENTiTLED
2017-05-31 03:39:19 MP3 Hermodr-Haedanfaerd-WEB-SE-2017-ENTiTLED
2017-05-31 03:39:55 MP3 LSDOOM-Coma_Deluxe-WEB-2017-ENTiTLED
2017-05-31 03:40:31 MP3 REM-Complete_Rarities_1988-2011-WEB-2016-ENTiTLED
2017-05-31 03:41:07 MP3 Sacrifice_the_Sun-When_It_Rains_It_Pours-WEB-2017-ENTiTLED
2017-05-31 03:41:43 MP3 Windwaker-Fade-EP-WEB-2017-ENTiTLED
2017-05-31 03:59:30 TV-X264 Animal.Kingdom.US.S02E01.720p.HDTV.x264-AVS
2017-05-31 04:00:04 TV-X264 Imaginary.Mary.S01E09.720p.HDTV.x264-AVS
2017-05-31 04:00:04 TV-SD-X264 Animal.Kingdom.S02E01.HDTV.x264-FLEET
2017-05-31 04:00:11 TV-XVID Animal.Kingdom.US.S02E01.HDTV.x264-SVA
2017-05-31 04:00:27 TV-XVID Imaginary.Mary.S01E09.HDTV.x264-SVA
2017-05-31 04:01:39 MP3 DJ_Hype-Kiss-DAB-05-31-2017-z0ne
2017-05-31 04:04:26 MP3 Hank_Williams-The_Complete_Hank_Williams-WEB-2006-ENTiTLED
2017-05-31 04:06:42 TV-X264 iZombie.S03E09.720p.HDTV.x264-KILLERS
2017-05-31 04:10:26 TV-XVID iZombie.S03E09.HDTV.x264-KILLERS
2017-05-31 04:28:42 MP3 Donavon_Frankenreiter-Recycled_Recipes_2-WEB-2011-ENTiTLED
2017-05-31 04:29:03 MP3 Donavon_Frankenreiter-Revisited-WEB-2010-ENTiTLED
2017-05-31 04:29:22 MP3 G_Love_and_Special_Sauce-Love_Saves_The_Day-WEB-2015-ENTiTLED
2017-05-31 04:29:44 MP3 G_Love_and_Special_Sauce-Sweet_N_Blues_(Extra_Sugar)-WEB-2015-ENTiTLED
2017-05-31 04:30:04 MP3 Zach_Gill-Eliza_Grace-SINGLE-WEB-2017-ENTiTLED
2017-05-31 04:30:18 TV-HD-X264 Britains.Got.More.Talent.S11E09.1080p.HDTV.x264-PLUTONiUM
2017-05-31 04:36:55 MP3 Thorsten_Soltau_With_Margitt_Holzt-Grun_Wie_Milch_(Redux)-WEB-2017-POWDER
2017-05-31 04:40:16 TV-X264 FantomWorks.S04E01.iNTERNAL.720p.HDTV.x264-DHD
2017-05-31 04:54:06 TV-SD My.600-Lb.Life.S05E13.Steven.and.Justins.Story.Part.1.HDTV.x264-CRiMSON
2017-05-31 04:59:59 MP3 Kronical_-_Voice_Of_Silence-(IMP031)-WEB-2017-SRG
2017-05-31 05:00:13 XXX TheUpperFloor.17.05.30.Aiden.Starr.Kimber.Woods.And.Roxanne.Rae.XXX.720p.MP4-KTR
2017-05-31 05:01:33 MP3 Dilated_Peoples-Directors_Of_Photography-BONUS_TRACKS-WEB-2014-ENTiTLED
2017-05-31 05:01:49 MP3 Joe_Strummer_and_The_Mescaleros-Joe_Strummer_and_The_Mescaleros_The_Hellcat_Years-WEB-2012-ENTiTLED
2017-05-31 05:02:04 MP3 Talking_Heads-Bonus_Rarities_and_Outtakes-WEB-2006-ENTiTLED
2017-05-31 05:06:59 TV-X264 The.Americans.2013.S05E13.720p.HDTV.x264-FLEET
2017-05-31 05:08:26 X264 The.LEGO.Batman.Movie.2017.720p.BluRay.x264-Replica
2017-05-31 05:08:28 ANIME Trinity.Seven.E05.Dream.World.and.Sub.Administer.German.2014.ANiME.DL.BDRiP.x264-STARS
2017-05-31 05:08:31 ANIME Trinity.Seven.E06.Dark.Mage.and.Big.Event.German.2014.ANiME.DL.BDRiP.x264-STARS
2017-05-31 05:08:34 ANIME Trinity.Seven.E07.Lost.Technique.und.Problem.Solving.German.2014.ANiME.DL.BDRiP.x264-STARS
2017-05-31 05:08:38 ANIME Trinity.Seven.E08.Study.and.Holiday.German.2014.ANiME.DL.BDRiP.x264-STARS
2017-05-31 05:08:43 ANIME Assassination.Classroom.2.E03.Horibe.Itonas.Zeit.German.2016.ANiME.DL.BDRiP.x264-STARS
2017-05-31 05:08:43 ANIME Assassination.Classroom.2.E02.Kaedes.Zeit.German.2016.ANiME.DL.BDRiP.x264-STARS
2017-05-31 05:08:48 ANIME Assassination.Classroom.2.E04.Die.Faeden.der.Zeit.German.2016.ANiME.DL.BDRiP.x264-STARS
2017-05-31 05:08:55 ANIME Assassination.Classroom.2.E06.Zeit.fuer.Vorher.und.Nachher.German.2016.ANiME.DL.BDRiP.x264-STARS
2017-05-31 05:08:56 ANIME Assassination.Classroom.2.E05.Zeit.des.Anfuehrers.German.2016.ANiME.DL.BDRiP.x264-STARS
2017-05-31 05:10:05 TV-X264 Trinity.Seven.E05.Dream.World.and.Sub.Administer.German.2014.ANiME.DL.720p.BluRay.x264-STARS
2017-05-31 05:10:08 TV-X264 Trinity.Seven.E06.Dark.Mage.and.Big.Event.German.2014.ANiME.DL.720p.BluRay.x264-STARS
2017-05-31 05:10:10 ANIME Trinity.Seven.E07.Lost.Technique.und.Problem.Solving.German.2014.ANiME.DL.720p.BluRay.x264-STARS
2017-05-31 05:10:13 ANIME Trinity.Seven.E08.Study.and.Holiday.German.2014.ANiME.DL.720p.BluRay.x264-STARS
2017-05-31 05:10:20 ANIME Assassination.Classroom.2.E03.Horibe.Itonas.Zeit.German.2016.ANiME.DL.720p.BluRay.x264-STARS
2017-05-31 05:10:20 TV-X264 Assassination.Classroom.2.E02.Kaedes.Zeit.German.2016.ANiME.DL.720p.BluRay.x264-STARS
2017-05-31 05:10:21 ANIME Assassination.Classroom.2.E04.Die.Faeden.der.Zeit.German.2016.ANiME.DL.720p.BluRay.x264-STARS
2017-05-31 05:10:27 ANIME Assassination.Classroom.2.E06.Zeit.fuer.Vorher.und.Nachher.German.2016.ANiME.DL.720p.BluRay.x264-STARS
2017-05-31 05:10:27 TV-HD-DE Assassination.Classroom.2.E05.Zeit.des.Anfuehrers.German.2016.ANiME.DL.720p.BluRay.x264-STARS
2017-05-31 05:11:07 XXX Passion-HD.17.05.31.Carolina.Sweets.Naughty.Nanny.XXX.1080p.MP4-KTR
2017-05-31 05:12:46 X264 The.LEGO.Batman.Movie.2017.BDRip.x264-DiAMOND
2017-05-31 05:13:45 XXX SpyFam.17.04.24.Brandi.Love.XXX.2160p.MP4-KTR
2017-05-31 05:14:55 TV-X264 Trinity.Seven.E05.Dream.World.and.Sub.Administer.German.2014.ANiME.DL.1080p.BluRay.x264-STARS
2017-05-31 05:14:59 TV-X264 Trinity.Seven.E06.Dark.Mage.and.Big.Event.German.2014.ANiME.DL.1080p.BluRay.x264-STARS
2017-05-31 05:15:01 ANIME Trinity.Seven.E07.Lost.Technique.und.Problem.Solving.German.2014.ANiME.DL.1080p.BluRay.x264-STARS
2017-05-31 05:15:02 ANIME Trinity.Seven.E06.Dark.Mage.and.Big.Event.German.2014.ANiME.D080p.BluRay.x264-STARS
2017-05-31 05:15:05 TV-X264 Trinity.Seven.E08.Study.and.Holiday.German.2014.ANiME.DL.1080p.BluRay.x264-STARS
2017-05-31 05:15:09 TV-X264 Assassination.Classroom.2.E02.Kaedes.Zeit.German.2016.ANiME.DL.1080p.BluRay.x264-STARS
2017-05-31 05:15:11 TV-X264 Assassination.Classroom.2.E03.Horibe.Itonas.Zeit.German.2016.ANiME.DL.1080p.BluRay.x264-STARS
2017-05-31 05:15:13 ANIME Assassination.Classroom.2.E04.Die.Faeden.der.Zeit.German.2016.ANiME.DL.1080p.BluRay.x264-STARS
2017-05-31 05:15:19 TV-X264 Assassination.Classroom.2.E05.Zeit.des.Anfuehrers.German.2016.ANiME.DL.1080p.BluRay.x264-STARS
2017-05-31 05:15:22 TV-X264 Assassination.Classroom.2.E06.Zeit.fuer.Vorher.und.Nachher.German.2016.ANiME.DL.1080p.BluRay.x264-STARS
2017-05-31 05:21:25 TV-X264 The.Daily.Show.2017.05.30.Dr.Elizabeth.Ford.720p.WEB.x264-TBS
2017-05-31 05:24:48 XXX PlayboyPlus.17.05.30.Cecilia.Lion.Sweeter.Than.Sugar.XXX.1080p.MP4-KTR
2017-05-31 05:24:58 X264 The.Daily.Show.2017.05.30.Dr.Elizabeth.Ford.1080p.WEB.x264-TBS
2017-05-31 05:25:40 X264 The.Daily.Show.2017.05.30.Dr.Elizabeth.Ford.WEB.x264-TBS
2017-05-31 05:25:59 XXX-0DAY BashBastards.17.05.30.Amirah.Adara.513.XXX.1080p.MP4-KTR
2017-05-31 05:27:11 XXX MontysPOV.17.05.26.Amber.Deen.Denim.Shorts.XXX.720p.MP4-KTR
2017-05-31 05:28:28 XXX-PAYSITE HandsOnHardcore.17.05.31.Zoe.Doll.XXX.1080p.MP4-KTR
2017-05-31 05:28:36 X264 The.LEGO.Batman.Movie.2017.1080p.BluRay.x264-Replica
2017-05-31 05:29:30 0DAY 123.Slaughter.Me.Street.2.Update.v1.0.4-BAT
2017-05-31 05:30:28 XXX HandsOnHardcore.17.05.31.Zoe.Doll.XXX.2160p.MP4-KTR
2017-05-31 05:31:27 XXX OnlyBlowJob.17.05.31.Darce.Lee.XXX.1080p.MP4-KTR
2017-05-31 05:32:56 XXX OnlyBlowJob.17.05.31.Darce.Lee.XXX.2160p.MP4-KTR
2017-05-31 05:35:25 TV-X264 Graveyard.Carz.S06E24.Firepower.Operation.iNTERNAL.720p.HDTV.x264-DHD
2017-05-31 05:45:20 XXX KarupsHA.17.05.30.Staci.May.Solo.1.XXX.720p.MP4-KTR
2017-05-31 05:45:42 TV-X264 The.Americans.2013.S05E13.PROPER.720p.HDTV.x264-KILLERS
2017-05-31 05:46:23 XXX KarupsOW.17.05.30.Andrea.Solo.6.XXX.720p.MP4-KTR
2017-05-31 05:47:18 XXX KarupsOW.17.05.30.Cassie.Clarke.Solo.1.XXX.720p.MP4-KTR
2017-05-31 05:48:12 XXX KarupsOW.17.05.30.Janice.Eros.Solo.1.XXX.720p.MP4-KTR
2017-05-31 05:48:13 TV-XVID House.Of.Cards.2013.S05E11.WEBRip.x264-TURBO
2017-05-31 05:48:59 XXX KarupsPC.17.05.30.Cintya.Doll.Solo.4.XXX.720p.MP4-KTR
2017-05-31 05:49:43 XXX Only-Secretaries.17.05.31.Vanessa.A.XXX.1080p.MP4-KTR
2017-05-31 05:49:59 TV-XVID The.Americans.2013.S05E13.HDTV.x264-KILLERS
2017-05-31 05:50:56 XXX PrivateSociety.17.05.30.Jasmina.Welcome.To.America.Baby.XXX.720p.MP4-KTR
2017-05-31 05:52:02 XXX TMWVRNet.17.05.30.Lita.Phoenix.XXX.1080p.MP4-KTR
2017-05-31 05:55:38 XXX DigitalPlayground.17.05.31.Phoenix.Marie.Whor.Godess.Of.Thunder.A.DP.XXX.Parody.Part.1.XXX.1080p.MP4-KTR
2017-05-31 05:56:41 XXX Twistys.17.05.31.Alice.Lighthouse.The.Darkside.Of.Lighthouse.XXX.1080p.MP4-KTR
2017-05-31 06:02:35 XXX-0DAY Babes.17.05.31.Mischa.Cross.Backlit.Beauty.XXX.1080p.MP4-KTR
2017-05-31 06:05:05 XXX BigTitsAtWork.17.05.31.Nicolette.Shea.Business.With.Pleasure.XXX.1080p.MP4-KTR
2017-05-31 06:06:52 TV-X264 iZombie.S03E09.REPACK.720p.HDTV.x264-KILLERS
2017-05-31 06:07:10 EBOOK Amy.Dickinson.-.Strangers.Tend.to.Tell.Me.Things.2017.RETAiL.ePUB.eBOOK-DiSTRiBUTiON
2017-05-31 06:07:18 EBOOK George.Bush..-.Portraits.of.Courage.2017.RETAiL.ePUB.eBOOK-DiSTRiBUTiON
2017-05-31 06:07:20 EBOOK George.Bush.-.Portraits.of.Courage.2017.RETAiL.ePUB.eBOOK-DiSTRiBUTiON
2017-05-31 06:07:36 EBOOK Holger.Hoock.-.Scars.of.Independence.2017.RETAiL.ePUB.eBOOK-DiSTRiBUTiON
2017-05-31 06:08:03 EBOOK Jon.Katz.-.Talking.to.Animals.2017.RETAiL.ePUB.eBOOK-DiSTRiBUTiON
2017-05-31 06:09:29 EBOOK Michael.Eric.Dyson.-.Tears.We.Cannot.Stop.2017.RETAiL.ePUB.eBOOK-DiSTRiBUTiON
2017-05-31 06:09:33 EBOOK Peter.Hook.-.Substance.2017.RETAiL.ePUB.eBOOK-DiSTRiBUTiON
2017-05-31 06:09:50 EBOOK Will.Wainewright.-.Reporting.on.Hitler.2017.RETAiL.ePUB.eBOOK-DiSTRiBUTiON
2017-05-31 06:10:06 EBOOK Pat.Laprade.-.Sisterhood.of.the.Squared.Circle.2017.RETAiL.ePUB.eBOOK-DiSTRiBUTiON
2017-05-31 06:10:15 EBOOK Rebekah.Gregory.-.Taking.My.Life.Back.2017.RETAiL.ePUB.eBOOK-DiSTRiBUTiON
2017-05-31 06:10:28 XXX-PAYSITE PublicPickUps.17.05.31.Lennox.Luxe.Busty.Innocent.Fucks.For.Cash.XXX.1080p.MP4-KTR
2017-05-31 06:11:09 EBOOK Mary.Jennings.Hegar.-.Shoot.Like.a.Girl.2017.RETAiL.ePUB.eBOOK-DiSTRiBUTiON
2017-05-31 06:11:16 TV-XVID iZombie.S03E09.REPACK.HDTV.x264-KILLERS
2017-05-31 06:15:43 XXX MommyGotBoobs.17.05.31.Valentina.Ricci.Dirty.Laundry.Dirtier.MILF.XXX.1080p.MP4-KTR
2017-05-31 06:19:54 X264 Table.19.2017.720p.BluRay.x264-DRONES
2017-05-31 06:23:23 XXX FantasyMassage.17.05.31.Penny.Pax.Kimmy.Granger.And.Kimmy.Granger.Handmade.Pleasures.XXX.1080p.MP4-KTR
2017-05-31 06:23:38 TV House.Of.Cards.2013.S05E12.WEBRip.x264-TURBO
2017-05-31 06:24:05 XXX MommyBlowsBest.17.05.31.Britney.Amber.XXX.1080p.MP4-KTR
2017-05-31 06:25:31 TV-XVID House.Of.Cards.2013.S05E13.WEBRip.x264-TURBO
2017-05-31 06:25:35 XXX NewSensations.17.05.31.Katya.Rodriguez.XXX.1080p.MP4-KTR
2017-05-31 06:27:14 MP3 Birdy-Live_at_New_Fall_Festival-DVBC-11-03-2013-OMA
2017-05-31 06:30:20 X264-SD John.Wick.Chapter.2.2017.BDRip.x264-SPARKS
2017-05-31 06:33:13 XXX Bang.RealTeens.17.05.31.Alyssa.Cole.XXX.1080p.MP4-KTR
2017-05-31 06:34:01 XXX Pantyhosed4U.17.05.31.Cayla.Lyons.Pantyhose.Pink.Passions.XXX.1080p.MP4-KTR
2017-05-31 06:40:00 XXX ATKGirlfriends.17.05.31.Emily.Cash.XXX.1080p.MP4-KTR
2017-05-31 06:41:26 XXX ATKGirlfriends.17.05.31.Emily.Cash.XXX.2160p.MP4-KTR
2017-05-31 06:45:43 XVID Table.19.2017.BDRip.x264-DRONES
2017-05-31 06:51:05 XXX-0DAY DevilsFilm.Pros.Vs.Cons.XXX.720p.MP4-KTR
2017-05-31 06:52:43 X264 WWE.205.Live.2017.05.30.720p.WEB.h264-MAJiKNiNJAZ
2017-05-31 06:53:43 XXX DevilsFilm.Pros.Vs.Cons.XXX.1080p.MP4-KTR
2017-05-31 06:53:53 TV-X264 Unearthed.2016.S02E02.iNTERNAL.720p.HDTV.x264-DHD
2017-05-31 06:55:46 XXX LethalHardcore.My.Stepdaughter.Has.A.Hairy.Pussy.XXX.720p.MP4-KTR
2017-05-31 06:56:54 EBOOK Il.Corriere.Della.Sera.05.31.2017.iTALiAN.RETAiL.eBook-DiVER
2017-05-31 07:03:14 XXX LethalHardcore.My.Stepdaughter.Has.A.Hairy.Pussy.XXX.1080p.MP4-KTR
2017-05-31 07:14:21 XXX EvilAngel.Nachos.Threesomes.2.XXX.720p.MP4-KTR
2017-05-31 07:17:30 XXX EvilAngel.Nachos.Threesomes.2.XXX.INTERNAL.1080p.MP4-KTR
2017-05-31 07:22:36 XXX PlumperPass.17.05.31.Aleksandra.Yalova.Rubbing.And.Fucking.XXX.1080p.MP4-KTR
2017-05-31 07:25:13 TV-HD-X264 iZombie.S03E09.iNTERNAL.720p.WEB.x264-BAMBOOZLE
2017-05-31 07:38:43 EBOOK La.Gazzetta.Dello.Sport.05.31.2017.iTALiAN.RETAiL.eBook-DiVER
2017-05-31 07:43:51 XXX GetYourKneesDirty.16.12.05.Lacie.James.And.Charlie.Harper.XXX.1080p.MP4-KTR
2017-05-31 07:44:32 XXX GetYourKneesDirty.16.12.10.Layla.Price.XXX.1080p.MP4-KTR
2017-05-31 07:45:22 XXX-PAYSITE GetYourKneesDirty.16.12.23.Frida.Sante.And.Melody.Petite.XXX.1080p.MP4-KTR
2017-05-31 07:45:49 XXX GetYourKneesDirty.16.12.24.Frida.Sante.And.Melody.Petite.XXX.1080p.MP4-KTR
2017-05-31 07:46:32 XXX GetYourKneesDirty.17.01.01.Julia.De.Lucia.XXX.1080p.MP4-KTR
2017-05-31 07:47:13 XXX-0DAY GetYourKneesDirty.17.01.15.Lauren.Phillips.XXX.1080p.MP4-KTR
2017-05-31 07:47:57 XXX-0DAY GetYourKneesDirty.17.01.16.Leyla.Bentho.XXX.1080p.MP4-KTR
2017-05-31 07:48:43 XXX GetYourKneesDirty.17.01.24.Gia.Paige.And.Katrin.Jade.XXX.1080p.MP4-KTR
2017-05-31 07:49:37 XXX KimberLeeLive.17.05.26.Lets.Make.A.Deal.XXX.1080p.MP4-KTR
2017-05-31 07:50:29 XXX Lustery.E48.Lindsey.And.James.Wet.And.Wild.XXX.720p.MP4-KTR
2017-05-31 07:53:51 XXX AngelaWhite.16.01.09.Angela.White.And.Lexington.Steele.094.XXX.1080p.MP4-KTR
2017-05-31 07:55:25 XXX AngelaWhite.16.01.19.Angela.White.Blowbang.095.XXX.1080p.MP4-KTR
2017-05-31 07:57:09 XXX AngelaWhite.16.01.29.Angela.White.Manuel.Ferrara.And.Valentina.Nappi.096.XXX.1080p.MP4-KTR
2017-05-31 07:59:02 XXX-PAYSITE AngelaWhite.17.05.28.Angela.White.And.Valentina.Nappi.125.XXX.1080p.MP4-KTR
2017-05-31 08:00:27 XXX 21Naturals.17.05.31.Nesty.Photo.Shoot.Banging.XXX.1080p.MP4-KTR
2017-05-31 08:03:18 EBOOK GEO.N460.FRENCH.RETAIL.eBook-PRESSECiTRON
2017-05-31 08:03:46 EBOOK L.Express.N3439.FRENCH.RETAIL.eBook-PRESSECiTRON
2017-05-31 08:04:15 EBOOK Le.Journal.de.Mickey.N3389.FRENCH.RETAIL.eBook-PRESSECiTRON
2017-05-31 08:04:42 EBOOK Le.Journal.du.Dimanche.N3672.FRENCH.RETAIL.eBook-PRESSECiTRON
2017-05-31 08:05:33 EBOOK Le.Parisien.29.mai.2017.FRENCH.RETAIL.eBook-PRESSECiTRON
2017-05-31 08:05:39 EBOOK Le.Parisien.31.mai.2017.FRENCH.RETAIL.eBook-PRESSECiTRON
2017-05-31 08:07:10 TV-X264 The.Americans.S05E13.iNTERNAL.720p.WEB.h264-BAMBOOZLE
2017-05-31 08:08:14 MP3 Frank_Black_And_The_Catholics-The_Complete_Recordings-WEB-2015-ENTiTLED
2017-05-31 08:09:53 X264 Collide.2016.FRENCH.720p.BluRay.x264-LOST
2017-05-31 08:16:28 TV-X264 Animal.Fight.Club.S04E11.Vorherrschaft.GERMAN.DOKU.720p.HDTV.x264-RiO
2017-05-31 08:18:35 TV-X264 Animal.Fight.Club.S04E11.Vorherrschaft.GERMAN.DOKU.HDTV.x264-RiO
2017-05-31 08:22:31 XXX FTVMilfs.17.05.30.Blake.Morgan.Pizza.And.Pussy.XXX.1080p.MP4-KTR
2017-05-31 08:33:52 X264 At.Midnight.2017.05.30.720p.WEB.x264-TBS
2017-05-31 08:39:32 X264 Collide.2016.MULTi.1080p.BluRay.x264-LOST
2017-05-31 08:40:09 XXX-PAYSITE PortaGloryhole.17.05.24.Brooke.Interview.XXX.1080p.MP4-KTR
2017-05-31 08:40:39 TV-HD At.Midnight.2017.05.30.1080p.WEB.x264-TBS
2017-05-31 08:41:16 XXX-0DAY PortaGloryhole.17.05.26.Brooke.XXX.1080p.MP4-KTR
2017-05-31 08:42:44 XXX RodneyMoore.17.05.05.Lilly.Summers.Blowjobs.Are.Fun.XXX.1080p.MP4-KTR
2017-05-31 08:44:37 XXX RodneyMoore.17.05.12.Skyler.Rose.Naughty.Spotty.Wifi.Girl.XXX.1080p.MP4-KTR
2017-05-31 08:45:55 X264 At.Midnight.2017.05.30.REPACK.720p.WEB.x264-TBS
2017-05-31 08:45:58 PRE At.Midnight.2017.05.30.WEB.x264-TBS
2017-05-31 08:46:21 XXX RodneyMoore.17.05.19.Daya.Knight.Topless.Temptation.XXX.1080p.MP4-KTR
2017-05-31 08:48:33 XXX RodneyMoore.17.05.26.Alice.Hodges.Its.Hard.Being.Horny.XXX.1080p.MP4-KTR
2017-05-31 08:49:49 XXX LexiDona.17.05.06.In.My.Bathroom.XXX.1080p.MP4-KTR
2017-05-31 08:49:51 XXX LexiDona.17.05.06.In.My.Bathroom.XXX.080p.MP4-KTR
2017-05-31 08:50:51 XXX LexiDona.17.05.10.Lady.D.And.Lexi.Dona.Lesbian.XXX.1080p.MP4-KTR
2017-05-31 08:51:48 XXX LexiDona.17.05.13.Lady.D.And.Lexi.Dona.Threesome.XXX.1080p.MP4-KTR
2017-05-31 08:52:31 XXX-0DAY LexiDona.17.05.17.In.White.XXX.1080p.MP4-KTR
2017-05-31 08:52:57 0DAY RUNNING.WITH.RIFLES.v1.51.MULTI10-SiMPLEX
2017-05-31 08:53:54 XXX LexiDona.17.05.20.Lexi.Dona.And.Nicol.Love.Threesome.XXX.1080p.MP4-KTR
2017-05-31 08:54:56 XXX LexiDona.17.05.27.Close-Ups.XXX.1080p.MP4-KTR
2017-05-31 08:55:25 TV-HD-X264 Breakthrough.S02E05.720p.HDTV.x264-DHD
2017-05-31 08:55:38 XXX LexiDona.17.05.31.Open.Pussy.XXX.1080p.MP4-KTR
2017-05-31 09:04:22 XXX NubileFilms.17.05.31.Anie.Darling.And.Cayla.Erotic.Threesome.Fantasy.XXX.1080p.MP4-KTR
2017-05-31 09:05:15 XXX Nubiles.17.05.31.Lilly.Ford.Bad.Girls.Are.Better.XXX.1080p.MP4-KTR
2017-05-31 09:06:05 XXX-PAYSITE Nubiles.17.05.31.Maya.Bijou.Dripping.Pussy.XXX.1080p.MP4-KTR
2017-05-31 09:10:28 X264 Bloodsport.1988.PL.DUAL.1080p.BluRay.x264-ProPL
2017-05-31 09:13:01 XXX SexArt.17.05.31.Anabelle.Born.To.Ride.XXX.1080p.MP4-KTR
2017-05-31 09:13:22 MP3 Lucia-Fantasy_Pieces_Op.1-WEB-KR-2017-TosK
2017-05-31 09:13:24 MP3 Lovey-25-WEB-KR-2017-TosK
2017-05-31 09:13:30 MP3 Better_Man-Erling-WEB-CN-2017-TosK
2017-05-31 09:13:37 MP3 Windsor_Forest-Stealth-WEB-CN-2017-TosK
2017-05-31 09:13:43 MP3 Klyne-B-Sides-WEB-2017-TosK
2017-05-31 09:13:48 MP3 Beartooth-Aggressive_(Deluxe_Edition)-WEB-2017-TosK
2017-05-31 09:13:53 MP3 Hacken_Lee-30g-WEB-CN-2017-TosK
2017-05-31 09:13:59 MP3 April-Mayday-WEB-KR-2017-TosK
2017-05-31 09:14:06 MP3 Baek_A_Yeon-Bittersweet-WEB-KR-2017-TosK
2017-05-31 09:14:11 MP3 F.T_Island-10th_Anniversary_Special_Digital_Single-WEB-KR-2017-TosK
2017-05-31 09:14:17 MP3 Astro-Dream_Pt._01-WEB-KR-2017-TosK
2017-05-31 09:14:23 MP3 Highlight-Calling_You-WEB-KR-2017-TosK
2017-05-31 09:14:28 MP3 KSP-Station.1-WEB-CN-2017-TosK
2017-05-31 09:14:34 MP3 TransAsia_Sisters_Association_Taiwan-Drifting_No_More-WEB-CN-2017-TosK
2017-05-31 09:14:41 MP3 Break_Ones_All-Start_From_Here-WEB-2017-TosK
2017-05-31 09:14:45 XXX IHaveAWife.17.05.31.Kate.England.XXX.1080p.MP4-KTR
2017-05-31 09:14:53 MP3 Oohyo-Dandelion-WEB-KR-2017-TosK
2017-05-31 09:14:55 MP3 Dusa-Artificial_Dopamine-WEB-CN-2017-TosK
2017-05-31 09:14:59 MP3 ZHI16-5PM-WEB-CN-2017-TosK
2017-05-31 09:15:05 MP3 Happy_Birdy-Happy_Birdy-WEB-CN-2017-TosK
2017-05-31 09:15:12 MP3 Major-Link_Connect_Liguid-WEB-CN-2017-TosK
2017-05-31 09:15:17 MP3 Xie_Chun_Hua-Zhi_Fei-WEB-CN-2017-TosK
2017-05-31 09:15:23 MP3 Beverly-Awesome-WEB-JP-2017-TosK
2017-05-31 09:15:30 MP3 Nano-The_Crossing-WEB-JP-2017-TosK
2017-05-31 09:15:36 MP3 Boss_Shady-What_A_Great_Album-WEB-CN-2017-TosK
2017-05-31 09:15:51 TV-X264 House.of.Cards.2013.S05E03.FRENCH.720p.WEBRip.x264-BRiNK
2017-05-31 09:16:08 XXX SeducedByACougar.17.05.31.Diamond.Jackson.XXX.1080p.MP4-KTR
2017-05-31 09:16:42 TV-X264 House.of.Cards.2013.S05E04.FRENCH.720p.WEBRip.x264-BRiNK
2017-05-31 09:17:07 TV-X264 House.of.Cards.2013.S05E05.FRENCH.720p.WEBRip.x264-BRiNK
2017-05-31 09:17:33 TV-X264 House.of.Cards.2013.S05E06.FRENCH.720p.WEBRip.x264-BRiNK
2017-05-31 09:18:02 TV-X264 House.of.Cards.2013.S05E07.FRENCH.720p.WEBRip.x264-BRiNK
2017-05-31 09:18:25 TV-X264 House.of.Cards.2013.S05E08.FRENCH.720p.WEBRip.x264-BRiNK
2017-05-31 09:20:03 TV-HD-X264 House.of.Cards.2013.S05E09.FRENCH.720p.WEBRip.x264-BRiNK
2017-05-31 09:20:30 TV-X264 House.of.Cards.2013.S05E10.FRENCH.720p.WEBRip.x264-BRiNK
2017-05-31 09:21:03 XXX ALSScan.17.05.31.Ana.Rose.Play.Time.XXX.1080p.MP4-KTR
2017-05-31 09:21:45 TV-X264 House.of.Cards.2013.S05E11.FRENCH.720p.WEBRip.x264-BRiNK
2017-05-31 09:22:24 XXX ALSScan.17.05.31.Ana.Rose.Play.Time.XXX.2160p.MP4-KTR
2017-05-31 09:22:37 TV-X264 House.of.Cards.2013.S05E12.FRENCH.720p.WEBRip.x264-BRiNK
2017-05-31 09:23:24 XXX VivThomas.17.05.31.Anina.Silk.Dolly.Diore.And.Jenny.D.Watch.Us.XXX.1080p.MP4-KTR
2017-05-31 09:23:40 TV-X264 House.of.Cards.2013.S05E13.FiNAL.FRENCH.720p.WEBRip.x264-BRiNK
2017-05-31 09:24:29 XXX VivThomas.17.05.31.Anina.Silk.Dolly.Diore.And.Jenny.D.Watch.Us.XXX.2160p.MP4-KTR
2017-05-31 09:25:10 TV-HD Prison.Break.S05E09.iNTERNAL.720p.WEB.h264-BAMBOOZLE
2017-05-31 09:25:21 TV-X264 House.of.Cards.2013.S05E03.MULTi.1080p.WEBRip.x264-BRiNK
2017-05-31 09:27:07 XXX IHaveAWife.17.05.31.Kate.England.XXX.2160p.MP4-KTR
2017-05-31 09:27:24 TV-X264 House.of.Cards.2013.S05E04.MULTi.1080p.WEBRip.x264-BRiNK
2017-05-31 09:28:47 TV-X264 House.of.Cards.2013.S05E05.MULTi.1080p.WEBRip.x264-BRiNK
2017-05-31 09:29:15 XXX SeducedByACougar.17.05.31.Diamond.Jackson.XXX.2160p.MP4-KTR
2017-05-31 09:30:54 MP3 Paul_Oakenfold_-_Planet_Perfecto_343-SAT-05-30-2017-TALiON
2017-05-31 09:33:42 TV House.of.Cards.2013.S05E06.MULTi.1080p.WEBRip.x264-BRiNK
2017-05-31 09:36:06 X264 Enemy.of.the.State.1998.PL.DUAL.720p.BluRay.x264-ProPL
2017-05-31 09:38:10 TV-X264 House.of.Cards.2013.S05E07.MULTi.1080p.WEBRip.x264-BRiNK
2017-05-31 09:43:29 TV Isle.Of.Man.TT.2017.05.30.The.Perfect.Lap.720p.HDTV.x264-VERUM
2017-05-31 09:44:48 TV-X264 House.of.Cards.2013.S05E08.MULTi.1080p.WEBRip.x264-BRiNK
2017-05-31 09:45:56 MP3 Bass_Chaserz_-_Synergy_Of_Souls_(Primal_Outdoor_2017_Anthem)-(NBN008)-WEB-2017-MMS
2017-05-31 09:49:46 X264 Algorithm.2014.RERip.WEBRip.x264-Ltu
2017-05-31 09:51:48 TV-X264 Lost.In.LA.S01E01.1080p.WEB.x264-Ltu
2017-05-31 09:53:50 TV-X264 Lost.In.LA.S01E01.720p.WEB.x264-Ltu
2017-05-31 09:55:52 TV-X264 Lost.In.LA.S01E01.WEB.x264-Ltu
2017-05-31 09:56:56 BLURAY Doctor.Who.2005.S10.Part.One.D01.COMPLETE.BLURAY-OCULAR
2017-05-31 09:57:54 TV-X264 Lost.In.LA.S01E02.1080p.WEB.x264-Ltu
2017-05-31 09:59:26 XXX AllOver30.17.05.31.Jamie.Foster.XXX.1080p.MP4-KTR
2017-05-31 09:59:56 TV-X264 Lost.In.LA.S01E02.720p.WEB.x264-Ltu
2017-05-31 10:01:00 XXX Cosmid.17.05.06.Stefany.Rossa.XXX.1080p.MP4-KTR
2017-05-31 10:01:42 XXX Cosmid.17.05.07.Samantha.Stone.XXX.1080p.MP4-KTR
2017-05-31 10:01:58 TV-X264 Lost.In.LA.S01E02.WEB.x264-Ltu
2017-05-31 10:02:35 XXX Cosmid.17.05.08.Adriana.Tella.XXX.1080p.MP4-KTR
2017-05-31 10:02:49 BLURAY Doctor.Who.2005.S10.Part.One.D02.COMPLETE.BLURAY-OCULAR
2017-05-31 10:03:20 XXX Cosmid.17.05.10.Rachel.White.XXX.1080p.MP4-KTR
2017-05-31 10:04:01 TV-X264 Lost.In.LA.S01E03.1080p.WEB.x264-Ltu
2017-05-31 10:04:09 XXX Cosmid.17.05.12.Whitney.Williams.XXX.1080p.MP4-KTR
2017-05-31 10:04:11 X264 Table.19.2017.1080p.BluRay.x264-DRONES
2017-05-31 10:04:59 XXX Cosmid.17.05.14.Lottie.Rose.XXX.1080p.MP4-KTR
2017-05-31 10:05:49 XXX Cosmid.17.05.15.Hailee.Fox.XXX.1080p.MP4-KTR
2017-05-31 10:06:03 TV-X264 Lost.In.LA.S01E03.720p.WEB.x264-Ltu
2017-05-31 10:06:37 XXX Cosmid.17.05.17.Cassie.Taylor.XXX.1080p.MP4-KTR
2017-05-31 10:07:24 XXX-0DAY Cosmid.17.05.19.Bailey.Martin.XXX.1080p.MP4-KTR
2017-05-31 10:08:06 TV-X264 Lost.In.LA.S01E03.WEB.x264-Ltu
2017-05-31 10:08:11 XXX Cosmid.17.05.21.Marina.Rossi.XXX.1080p.MP4-KTR
2017-05-31 10:08:29 X264 Table.19.Liebe.ist.fehl.am.Platz.German.BDRip.x264-KiNOWELT
2017-05-31 10:08:54 XXX Cosmid.17.05.22.Quana.Stevens.XXX.1080p.MP4-KTR
2017-05-31 10:09:43 XXX Cosmid.17.05.24.Maggie.Green.XXX.1080p.MP4-KTR
2017-05-31 10:10:09 TV-X264 Lost.In.LA.S01E04.1080p.WEB.x264-Ltu
2017-05-31 10:10:12 X264 Table.19.Liebe.ist.fehl.am.Platz.German.DL.720p.BluRay.x264-KiNOWELT
2017-05-31 10:10:27 XXX Cosmid.17.05.26.Rebecca.Hurst.XXX.1080p.MP4-KTR
2017-05-31 10:10:38 MP3 Malik_Turner-Hip_Hop_Homicide_(1992-1994)_EP-CD-2017-FTD
2017-05-31 10:10:44 MP3 Beneficence-Contents_Under_Pressure_EP-2017-FTD
2017-05-31 10:11:11 XXX Cosmid.17.05.26.Terri.Fletcher.XXX.1080p.MP4-KTR
2017-05-31 10:11:16 TV-HD-1080P-X264 Mako.Einfach.Meerjungfrau.S03E11.German.1080p.WebHD.x264-TVNATiON
2017-05-31 10:11:34 MP3 Conway-Reject_On_Steroids-2017-FTD_INT
2017-05-31 10:11:38 MP3 9th_Wonder-The_Lost_Tapes-2017-FTD_INT
2017-05-31 10:11:42 MP3 Bigshawndon-Contact-1998-FTD_INT
2017-05-31 10:11:58 XXX-0DAY Cosmid.17.05.28.Kristy.Kern.XXX.1080p.MP4-KTR
2017-05-31 10:12:11 TV-X264 Lost.In.LA.S01E04.720p.WEB.x264-Ltu
2017-05-31 10:12:33 TV-X264 Mako.Einfach.Meerjungfrau.S03E11.German.720p.WebHD.x264-TVNATiON
2017-05-31 10:12:40 XXX Cosmid.17.05.29.Skylar.Scott.XXX.1080p.MP4-KTR
2017-05-31 10:12:51 X264 Table.19.Liebe.ist.fehl.am.Platz.German.DL.1080p.BluRay.x264-KiNOWELT
2017-05-31 10:13:21 XXX-0DAY Cosmid.17.05.30.Cosmic.XXX.1080p.MP4-KTR
2017-05-31 10:13:52 TV-X264 Mako.Einfach.Meerjungfrau.S03E11.German.WebRip.x264-TVNATiON
2017-05-31 10:14:13 TV-X264 Lost.In.LA.S01E04.WEB.x264-Ltu
2017-05-31 10:15:09 TV Mako.Einfach.Meerjungfrau.S03E12.German.1080p.WebHD.x264-TVNATiON
2017-05-31 10:16:18 TV-HD-X264 Lost.In.LA.S01E05.1080p.WEB.x264-Ltu
2017-05-31 10:16:18 XXX BrutalDildos.17.05.11.Jessica.Spielberg.XXX.1080p.MP4-KTR
2017-05-31 10:16:27 TV-X264 Mako.Einfach.Meerjungfrau.S03E12.German.720p.WebHD.x264-TVNATiON
2017-05-31 10:16:51 MP3 Alan_Schiavone-Need_U-(SR023)-WEB-2017-DJ
2017-05-31 10:16:59 XXX BrutalDildos.17.05.18.Dee.Siren.XXX.1080p.MP4-KTR
2017-05-31 10:17:42 XXX-PAYSITE BrutalDildos.17.05.25.Anya.Akulova.XXX.1080p.MP4-KTR
2017-05-31 10:17:44 TV-XVID Mako.Einfach.Meerjungfrau.S03E12.German.WebRip.x264-TVNATiON
2017-05-31 10:18:16 MP3 Bart_Gori-Make_Me_Boy-(A41)-WEB-2017-DJ
2017-05-31 10:18:20 TV-X264 Lost.In.LA.S01E05.720p.WEB.x264-Ltu
2017-05-31 10:18:25 TV-X264 Shingeki.no.Bahamut.Virgin.Soul.E07.SUBFRENCH.1080p.WEBRip.x264-AMB3R
2017-05-31 10:18:33 XXX CherryPimps.17.05.22.Uma.Jolie.Hot.By.The.Fireplace.XXX.1080p.MP4-KTR
2017-05-31 10:19:02 TV-X264 Mako.Einfach.Meerjungfrau.S03E13.German.1080p.WebHD.x264-TVNATiON
2017-05-31 10:19:05 TV-X264 Shingeki.no.Bahamut.Virgin.Soul.E08.SUBFRENCH.1080p.WEBRip.x264-AMB3R
2017-05-31 10:19:29 XXX CherryPimps.17.05.29.Uma.Jolie.Rocking.That.Hot.Body.XXX.1080p.MP4-KTR
2017-05-31 10:19:39 TV-X264 Shingeki.no.Bahamut.Virgin.Soul.E07.SUBFRENCH.720p.WEBRip.x264-AMB3R
2017-05-31 10:19:51 MP3 Csanes-Feeling-(PUA039)-WEB-2017-DJ
2017-05-31 10:20:15 TV-X264 Shingeki.no.Bahamut.Virgin.Soul.E08.SUBFRENCH.720p.WEBRip.x264-AMB3R
2017-05-31 10:20:19 TV-X264 Mako.Einfach.Meerjungfrau.S03E13.German.720p.WebHD.x264-TVNATiON
2017-05-31 10:20:21 TV-X264 Lost.In.LA.S01E05.WEB.x264-Ltu
2017-05-31 10:20:47 TV-XVID House.of.Cards.2013.S05E09.FRENCH.WEBRip.x264-AMB3R
2017-05-31 10:21:13 TV-XVID House.of.Cards.2013.S05E10.FRENCH.WEBRip.x264-AMB3R
2017-05-31 10:21:36 TV-X264 Mako.Einfach.Meerjungfrau.S03E13.German.WebRip.x264-TVNATiON
2017-05-31 10:21:42 TV-XVID House.of.Cards.2013.S05E11.FRENCH.WEBRip.x264-AMB3R
2017-05-31 10:22:02 TV-XVID Love.Child.AU.S04E05.HDTV.x264-W4F
2017-05-31 10:22:07 XXX BlowBangGirls.17.05.05.Alessa.Snow.XXX.1080p.MP4-KTR
2017-05-31 10:22:24 TV-X264 Lost.In.LA.S01E06.1080p.WEB.x264-Ltu
2017-05-31 10:22:53 XXX BlowBangGirls.17.05.12.Nikki.XXX.1080p.MP4-KTR
2017-05-31 10:22:53 TV-HD-X264 Mako.Einfach.Meerjungfrau.S04E10.German.1080p.WebHD.x264-TVNATiON
2017-05-31 10:23:48 XXX-PAYSITE BlowBangGirls.17.05.19.Jeanine.XXX.1080p.MP4-KTR
2017-05-31 10:24:10 TV-HD-X264 Mako.Einfach.Meerjungfrau.S04E10.German.720p.WebHD.x264-TVNATiON
2017-05-31 10:24:11 PRE Born.This.Way.S03E04.720p.WEB.h264-TBS
2017-05-31 10:24:26 TV-X264 Lost.In.LA.S01E06.720p.WEB.x264-Ltu
2017-05-31 10:24:46 XXX-0DAY BlowBangGirls.17.05.26.Maria.XXX.1080p.MP4-KTR
2017-05-31 10:24:59 PRE Born.This.Way.S03E04.WEB.h264-TBS
2017-05-31 10:25:29 TV Mako.Einfach.Meerjungfrau.S04E10.German.WebRip.x264-TVNATiON
2017-05-31 10:25:51 TV El.Ultimo.Hombre.En.La.Tierra.S03E13.SPANiSH.1080p.HDTV.x264-FCC
2017-05-31 10:26:24 TV-X264 El.Ultimo.Hombre.En.La.Tierra.S03E13.SPANiSH.720p.HDTV.x264-FCC
2017-05-31 10:26:27 TV-XVID Lost.In.LA.S01E06.WEB.x264-Ltu
2017-05-31 10:26:44 TV-X264 The.Path.S02E09.German.1080p.WebHD.x264-TVNATiON
2017-05-31 10:26:48 TV-XVID El.Ultimo.Hombre.En.La.Tierra.S03E13.SPANiSH.HDTV.x264-FCC
2017-05-31 10:27:09 TV-X264 Prison.Break.S05E04.SPANiSH.1080p.HDTV.x264-FCC
2017-05-31 10:27:48 TV-X264 Prison.Break.S05E04.SPANiSH.720p.HDTV.x264-FCC
2017-05-31 10:28:02 TV-X264 The.Path.S02E09.German.720p.WebHD.x264-TVNATiON
2017-05-31 10:28:07 TV-HD-X264 America.Promised.Land.S01E02.720p.WEB.h264-TBS
2017-05-31 10:28:16 TV-XVID Prison.Break.S05E04.SPANiSH.HDTV.x264-FCC
2017-05-31 10:28:29 TV-X264 Lost.In.LA.S01E07.1080p.WEB.x264-Ltu
2017-05-31 10:28:38 TV-X264 Navy.Investigacion.Criminal.S14E21.SPANiSH.720p.HDTV.x264-FCC
2017-05-31 10:29:06 TV-XVID Navy.Investigacion.Criminal.S14E21.SPANiSH.HDTV.x264-FCC
2017-05-31 10:29:19 TV-X264 The.Path.S02E09.German.WebRip.x264-TVNATiON
2017-05-31 10:29:23 TV-X264 America.Promised.Land.S01E02.WEB.h264-TBS
2017-05-31 10:30:30 TV Lost.In.LA.S01E07.720p.WEB.x264-Ltu
2017-05-31 10:30:36 TV-X264 The.Path.S02E10.German.1080p.WebHD.x264-TVNATiON
2017-05-31 10:31:53 TV-X264 The.Path.S02E10.German.720p.WebHD.x264-TVNATiON
2017-05-31 10:32:33 TV-X264 Lost.In.LA.S01E07.WEB.x264-Ltu
2017-05-31 10:32:39 TV 4.Blocks.S01E04.German.1080p.HDTV.x264.REPACK-TVMANiA
2017-05-31 10:33:10 TV-XVID The.Path.S02E10.German.WebRip.x264-TVNATiON
2017-05-31 10:34:34 TV-X264 Lost.In.LA.S01E08.1080p.WEB.x264-Ltu
2017-05-31 10:36:36 TV-X264 Lost.In.LA.S01E08.720p.WEB.x264-Ltu
2017-05-31 10:38:38 TV-SD Lost.In.LA.S01E08.WEB.x264-Ltu
2017-05-31 10:40:40 TV-X264 Lost.In.LA.S01E09.1080p.WEB.x264-Ltu
2017-05-31 10:42:07 TV-XVID The.Walking.Dead.S07E11.FRENCH.HDTV.x264-DEAL
2017-05-31 10:42:38 TV-XVID The.Walking.Dead.S07E12.FRENCH.HDTV.x264-DEAL
2017-05-31 10:42:45 XXX BoxTruckSex.17.05.31.Alexis.Crystal.XXX.1080p.MP4-KTR
2017-05-31 10:43:22 TV-HD Lost.In.LA.S01E09.720p.WEB.x264-Ltu
2017-05-31 10:43:24 XXX BrickYates.17.05.09.Honey.Alvarez.XXX.1080p.MP4-KTR
2017-05-31 10:44:26 XXX BrickYates.17.05.09.Honey.Alvarez.XXX.2160p.MP4-KTR
2017-05-31 10:45:07 XXX-0DAY BrickYates.17.05.23.Tori.XXX.1080p.MP4-KTR
2017-05-31 10:45:34 TV-X264 Lost.In.LA.S01E09.WEB.x264-Ltu
2017-05-31 10:46:13 XXX BrickYates.17.05.23.Tori.XXX.2160p.MP4-KTR
2017-05-31 10:47:37 TV Flog.It.Trade.Secrets.S02E27.HDTV.x264-NORiTE
2017-05-31 10:47:41 XXX ALSAngels.17.05.09.Aisha.Angel.And.Gina.Photoshoot.XXX.2160p.MP4-KTR
2017-05-31 10:47:47 TV-X264 Lost.In.LA.S01E10.1080p.WEB.x264-Ltu
2017-05-31 10:49:05 XXX ALSAngels.17.05.16.Veronica.Red.Masturbation.XXX.2160p.MP4-KTR
2017-05-31 10:49:59 TV-HD-X264 Lost.In.LA.S01E10.720p.WEB.x264-Ltu
2017-05-31 10:50:20 TV War.On.Waste.S01E03.HDTV.x264-FQM
2017-05-31 10:50:41 XXX ALSAngels.17.05.18.Dillion.Harper.Photoshoot.XXX.2160p.MP4-KTR
2017-05-31 10:50:55 FLAC Basilis_Karras-Ap_to_Borra_Mexri_to_Noto-(0602547667281)-GR-CD-FLAC-2015-CUSTODES
2017-05-31 10:52:06 TV-X264 Lost.In.LA.S01E10.WEB.x264-Ltu
2017-05-31 10:52:08 XXX ALSAngels.17.05.23.Moka.Mora.Masturbation.XXX.2160p.MP4-KTR
2017-05-31 10:52:14 TV-HD Flog.It.Trade.Secrets.S02E27.720p.HDTV.x264-NORiTE
2017-05-31 10:52:58 TV Love.Child.AU.S04E05.720p.HDTV.x264-W4F
2017-05-31 10:53:29 XXX ALSAngels.17.05.30.Aisha.Angel.And.Gina.Girl-Girl.Action.XXX.2160p.MP4-KTR
2017-05-31 10:54:08 TV-X264 Lost.In.LA.S02E01.1080p.WEB.x264-Ltu
2017-05-31 10:55:03 TV-X264 Rip.Off.Britain.Food.S04E02.HDTV.x264-DOCERE
2017-05-31 10:55:58 TV-XVID Flog.It.Trade.Secrets.S02E28.HDTV.x264-NORiTE
2017-05-31 10:56:16 TV-X264 Lost.In.LA.S02E01.720p.WEB.x264-Ltu
2017-05-31 10:58:17 TV-X264 Lost.In.LA.S02E01.WEB.x264-Ltu
2017-05-31 10:59:45 TV-X264 Rip.Off.Britain.Food.S04E02.720p.HDTV.x264-DOCERE
2017-05-31 11:00:19 TV-X264 Lost.In.LA.S02E02.1080p.WEB.x264-Ltu
2017-05-31 11:02:22 TV-HD Lost.In.LA.S02E02.720p.WEB.x264-Ltu
2017-05-31 11:04:23 TV-X264 Lost.In.LA.S02E02.WEB.x264-Ltu
2017-05-31 11:06:25 TV-X264 Lost.In.LA.S02E03.1080p.WEB.x264-Ltu
2017-05-31 11:08:28 TV-X264 Lost.In.LA.S02E03.720p.WEB.x264-Ltu
2017-05-31 11:08:34 TV-X264 Flog.It.Trade.Secrets.S02E28.720p.HDTV.x264-NORiTE
2017-05-31 11:09:36 TV-SD Flog.It.Trade.Secrets.S02E29.HDTV.x264-NORiTE
2017-05-31 11:10:31 TV-X264 Lost.In.LA.S02E03.WEB.x264-Ltu
2017-05-31 11:10:51 0DAY Flog.It.Trade.Secrets.S02E30.HDTV.x264-NORiTE
2017-05-31 11:12:34 TV-X264 Lost.In.LA.S02E04.1080p.WEB.x264-Ltu
2017-05-31 11:14:36 TV-X264 Lost.In.LA.S02E04.720p.WEB.x264-Ltu
2017-05-31 11:16:38 TV-SD Lost.In.LA.S02E04.WEB.x264-Ltu
2017-05-31 11:18:43 TV-HD Lost.In.LA.S02E05.1080p.WEB.x264-Ltu
2017-05-31 11:19:43 FLAC John_Mellencamp-Sad_Clowns_And_Hillbillies-(00602557051629)-CD-FLAC-2017-k4
2017-05-31 11:20:50 TV-HD Lost.In.LA.S02E05.720p.WEB.x264-Ltu
2017-05-31 11:21:57 FLAC Julia_Holter-In_The_Same_Room-(DOMDOC001CD)-CD-FLAC-2017-k4
2017-05-31 11:22:54 TV-X264 Lost.In.LA.S02E05.WEB.x264-Ltu
2017-05-31 11:23:42 MP3 Basilis_Karras-Ap_to_Borra_Mexri_to_Noto-GR-2015-CUSTODES
2017-05-31 11:24:04 FLAC Rodney_Crowell-Close_Ties-(NW6354)-CD-FLAC-2017-k4
2017-05-31 11:25:02 TV-HD Lost.In.LA.S02E06.1080p.WEB.x264-Ltu
2017-05-31 11:25:14 TV-HD Flog.It.Trade.Secrets.S02E29.720p.HDTV.x264-NORiTE
2017-05-31 11:26:14 FLAC VA-Hell_Or_High_Water-(3998622)-CD-FLAC-2016-k4
2017-05-31 11:27:06 TV-X264 Lost.In.LA.S02E06.720p.WEB.x264-Ltu
2017-05-31 11:27:26 TV-HD-X264 Flog.It.Trade.Secrets.S02E30.720p.HDTV.x264-NORiTE
2017-05-31 11:29:08 TV-SD Lost.In.LA.S02E06.WEB.x264-Ltu
2017-05-31 11:31:11 TV-X264 Lost.In.LA.S02E07.1080p.WEB.x264-Ltu
2017-05-31 11:33:20 TV-X264 Lost.In.LA.S02E07.720p.WEB.x264-Ltu
2017-05-31 11:35:27 TV-SD Lost.In.LA.S02E07.WEB.x264-Ltu
2017-05-31 11:37:30 TV-X264 Lost.In.LA.S02E08.1080p.WEB.x264-Ltu
2017-05-31 11:39:33 TV-X264 Lost.In.LA.S02E08.720p.WEB.x264-Ltu
2017-05-31 11:41:16 TV-XVID The.Handmaids.Tale.S01E08.WEBRip.x264-TBS
2017-05-31 11:41:35 TV-X264 Lost.In.LA.S02E08.WEB.x264-Ltu
2017-05-31 11:41:46 TV-X264 The.Handmaids.Tale.S01E08.PROPER.720p.WEBRip.x264-TBS
2017-05-31 11:43:37 TV-X264 Lost.In.LA.S02E09.1080p.WEB.x264-Ltu
2017-05-31 11:45:38 TV-X264 Lost.In.LA.S02E09.720p.WEB.x264-Ltu
2017-05-31 11:47:40 TV Lost.In.LA.S02E09.WEB.x264-Ltu
2017-05-31 11:49:42 TV-X264 Lost.In.LA.S02E10.1080p.WEB.x264-Ltu
2017-05-31 11:50:53 TV-HD World.of.Dance.S01E01.720p.WEB.x264-TBS
2017-05-31 11:51:44 TV-X264 Lost.In.LA.S02E10.720p.WEB.x264-Ltu
2017-05-31 11:51:45 X264 The.Last.Face.2016.COMPLETE.FR.BLURAY-4FR
2017-05-31 11:51:47 TV Americas.Got.Talent.S12E01.720p.WEB.x264-TBS
2017-05-31 11:52:15 TV-X264 World.of.Dance.S01E01.WEB.x264-TBS
2017-05-31 11:53:45 TV-X264 Lost.In.LA.S02E10.WEB.x264-Ltu
2017-05-31 11:55:29 0DAY Mr.Shifty.Update.v1.0.5-CODEX
2017-05-31 12:01:54 TV-SD Americas.Got.Talent.S12E01.WEB.x264-TBS
2017-05-31 12:06:20 TV-X264 Navy.Investigacion.Criminal.S14E21.SPANiSH.1080p.HDTV.x264-FCC
2017-05-31 12:08:33 XXX FemJoy.com_17.05.31.Nasita.Premiere.XXX.IMAGESET-FuGLi
2017-05-31 12:10:23 X264 Before.I.Fall.2016.FRENCH.BDRiP.x264-PRiDEHD
2017-05-31 12:10:49 X264 Collide.2016.FRENCH.BDRiP.x264-PRiDEHD
2017-05-31 12:11:50 XXX MetArt.com_17.05.30.Djessy.Patne.XXX.IMAGESET-FuGLi
2017-05-31 12:14:30 XXX MetArt.com_17.05.30.Juck.Datoe.XXX.IMAGESET-FuGLi
2017-05-31 12:14:42 TV-X264 The.Walking.Dead.S07E11.FRENCH.720p.HDTV.x264-DEAL
2017-05-31 12:15:08 BLURAY The.Sea.Shall.Not.Have.Them.1954.COMPLETE.BLURAY-VEXHD
2017-05-31 12:15:29 TV-X264 The.Walking.Dead.S07E12.FRENCH.720p.HDTV.x264-DEAL
2017-05-31 12:18:40 XXX MetArt.com_17.05.30.Berenice.Faeldi.XXX.IMAGESET-FuGLi
2017-05-31 12:19:08 TV-X264 War.On.Waste.S01E03.720p.HDTV.x264-ORENJI
2017-05-31 12:21:17 IMGSET MetArt.com_17.05.30.Mia.Chance.Unathe.XXX.IMAGESET-FuGLi
2017-05-31 12:21:54 X264 Invictus.Unbezwungen.2009.German.DL.1080p.BluRay.VC1-ONFiRE
2017-05-31 12:22:01 TV-HD-X264 Below.Deck.Mediterranean.S02E05.720p.WEB.x264-TBS
2017-05-31 12:22:36 X264 Naruto.Shippuden.Vol97.Multi.Dvdrip.X264-MANGACiTY
2017-05-31 12:23:12 TV-X264 Below.Deck.Mediterranean.S02E05.WEB.x264-TBS
2017-05-31 12:24:44 XXX-IMAGESETS MetArt.com_17.05.31.Paula.Shy.Nerie.XXX.IMAGESET-FuGLi
2017-05-31 12:25:36 TV-HD Below.Deck.Mediterranean.S02E05.1080p.WEB.x264-TBS
2017-05-31 12:26:51 XXX MetArt.com_17.05.31.Mila.I.Anepoll.XXX.IMAGESET-FuGLi
2017-05-31 12:26:52 XXX MetArt.com_17.05.31.Mila.I.Anepoll.XXX.IMAGSET-FuGLi
2017-05-31 12:29:29 TV-HD-X264 Fear.Factor.S08E01.720p.WEB.x264-TBS
2017-05-31 12:30:10 IMGSET MetArt.com_17.05.31.Sivilla.Nantees.XXX.IMAGESET-FuGLi
2017-05-31 12:32:26 TV-HD-X264 Fear.Factor.S08E01.1080p.WEB.x264-TBS
2017-05-31 12:32:54 XXX-IMAGESETS MetArt.com_17.05.31.Anie.Darling.Presenting.Anie.Darling.XXX.IMAGESET-FuGLi
2017-05-31 12:33:31 TV-X264 Fear.Factor.S08E01.WEB.x264-TBS
2017-05-31 12:33:32 ABOOK Geisterjaeger_John_Sinclair-F63_Macht_Und_Mythos_(Tonstudio_Braun_Remastered)-Audiobook-DE-2017-VOiCE
2017-05-31 12:33:52 ABOOK John_Sinclair-Folge_116_-_Die_Totenmaske_Von_Atlantis-Audiobook-DE-2017-VOiCE
2017-05-31 12:34:24 XXX ATKPremium.com_17.05.30.Kendra.Cole.XXX.IMAGESET-FuGLi
2017-05-31 12:35:19 BLURAY The.LEGO.Batman.Movie.2017.COMPLETE.BLURAY-CBGB
2017-05-31 12:36:57 XXX ATKPremium.com_17.05.31.Sloan.Harper.XXX.IMAGESET-FuGLi
2017-05-31 12:38:06 X264 Collide.2016.COMPLETE.QC.BLURAY-4FR
2017-05-31 12:39:02 XXX TheLifeErotic.com_17.05.30.Kira.Zen.Mirror.Part.2.1.XXX.IMAGESET-FuGLi
2017-05-31 12:41:53 XXX TheLifeErotic.com_17.05.31.Yelena.Yelena.XXX.IMAGESET-FuGLi
2017-05-31 12:42:08 TV-XVID House.of.Cards.2013.S05E12.FRENCH.WEBRip.x264-AMB3R
2017-05-31 12:42:38 TV-XVID House.of.Cards.2013.S05E13.FiNAL.FRENCH.WEBRip.x264-AMB3R
2017-05-31 12:45:21 XXX-IMAGESETS SexArt.com_17.05.30.Georgia.Lorred.XXX.IMAGESET-FuGLi
2017-05-31 12:46:43 XXX-IMAGESETS EroticBeauty.com_17.05.30.Romanetta.See.Through.3.XXX.IMAGESET-FuGLi
2017-05-31 12:47:15 BLURAY Gundam.Reconguista.In.G.S01D1.COMPLETE.BLURAY-BRDC
2017-05-31 12:51:11 XXX Errotica-Archives.com_17.05.30.Aphrodita.Matonne.XXX.IMAGESET-FuGLi
2017-05-31 12:52:37 IMGSET Errotica-Archives.com_17.05.31.Antea.Iveta.Novia.XXX.IMAGESET-FuGLi
2017-05-31 12:53:03 XXX-IMAGESETS EroticBeauty.com_17.05.31.Naomi.G.Presenting.Naomi.G.XXX.IMAGESET-FuGLi
2017-05-31 12:53:16 ABOOK Geisterjaeger_John_Sinclair-63_Macht_Und_Mythos-DE-AUDIOBOOK-REMASTERED-CD-FLAC-2017-VOLDiES
2017-05-31 12:55:26 XXX AmKingdom.com_17.05.30.Babes.Series.4.Dresden.XXX.IMAGESET-FuGLi
2017-05-31 12:57:27 XXX AmKingdom.com_17.05.30.Babes.Series.4.Kendra.Cole.XXX.IMAGESET-FuGLi
2017-05-31 12:57:29 XXX AmKingdom.com_17.05.30.Babes.Series.4Kendra.Cole.XXXX.IMAGESET-FuGLi
2017-05-31 12:58:49 XXX AmKingdom.com_17.05.30.Babes.Series.4.Kendray.Lynn.XXX.IMAGESET-FuGLi
2017-05-31 13:01:30 XXX AmKingdom.com_17.05.30.Babes.Series.4.Sailor.Luna.XXX.IMAGESET-FuGLi
2017-05-31 13:02:36 XXX AmKingdom.com_17.05.30.Babes.Series.4.Tina.Sky.XXX.IMAGESET-FuGLi
2017-05-31 13:04:22 TV SVT.Berlin.Under.Samma.Himmel.S01E03.INTERNAL.SWESUB.WEBRiP.MP4-GigantiC
2017-05-31 13:04:44 XXX AmKingdom.com_17.05.30.Babes.Series.4.Sloan.Harper.XXX.IMAGESET-FuGLi
2017-05-31 13:04:54 0DAY TV4.GWs.Mord.Part1.INTERNAL.SWEDISH.WEBRiP.MP4-GigantiC
2017-05-31 13:05:02 PRE TV4.GWs.Mord.Part2.INTERNAL.SWEDISH.WEBRiP.MP4-GigantiC
2017-05-31 13:05:12 0DAY TV4.GWs.Mord.Part3.INTERNAL.SWEDISH.WEBRiP.MP4-GigantiC
2017-05-31 13:05:21 PRE TV4.GWs.Mord.Part4.INTERNAL.SWEDISH.WEBRiP.MP4-GigantiC
2017-05-31 13:05:33 0DAY TV4.GWs.Mord.Part5.INTERNAL.SWEDISH.WEBRiP.MP4-GigantiC
2017-05-31 13:05:42 0DAY TV4.GWs.Mord.Part6.INTERNAL.SWEDISH.WEBRiP.MP4-GigantiC
2017-05-31 13:06:19 XXX-IMAGESETS AmKingdom.com_17.05.30.Babes.Series.4.Zara.Brooks.XXX.IMAGESET-FuGLi
2017-05-31 13:06:35 TV-X264 La.Casa.De.Papel.S01E05.SPANiSH.1080p.HDTV.x264-FERiCE
2017-05-31 13:07:52 TV-X264 La.Casa.De.Papel.S01E05.SPANiSH.720p.HDTV.x264-FERiCE
2017-05-31 13:08:09 TV La.Casa.De.Papel.S01E05.SPANiSH.HDTV.x264-FERiCE
2017-05-31 13:09:07 XXX AmKingdom.com_17.05.31.Watersports.2.Demi.Lopez.XXX.IMAGESET-FuGLi
2017-05-31 13:11:31 XXX AmKingdom.com_17.05.31.Watersports.2.Dresden.XXX.IMAGESET-FuGLi
2017-05-31 13:12:42 IMGSET AmKingdom.com_17.05.31.Watersports.2.Riley.Reyes.XXX.IMAGESET-FuGLi
2017-05-31 13:15:17 XXX-IMGSET AmKingdom.com_17.05.31.Watersports.2.Sailor.Luna.XXX.IMAGESET-FuGLi
2017-05-31 13:17:49 XXX AmKingdom.com_17.05.31.Watersports.2.Sloan.Harper.XXX.IMAGESET-FuGLi
2017-05-31 13:19:47 TV-X264 Team.Ninja.Warrior.S02E12.720p.WEB.x264-WEBSTER
2017-05-31 13:19:50 XXX AmKingdom.com_17.05.31.Watersports.2.Vienna.Black.XXX.IMAGESET-FuGLi
2017-05-31 13:20:42 TV-X264 Team.Ninja.Warrior.S02E12.1080p.WEB.x264-WEBSTER
2017-05-31 13:22:07 IMGSET KarupsHA.com_17.05.30.Alina.West.8.XXX.IMAGESET-FuGLi
2017-05-31 13:24:24 TV-SD Team.Ninja.Warrior.S02E12.WEB.x264-TBS
2017-05-31 13:24:42 XXX KarupsHA.com_17.05.30.Ivy.Aura.2.XXX.IMAGESET-FuGLi
2017-05-31 13:27:20 XXX-IMAGESETS KarupsPC.com_17.05.30.Chrissy.Fox.4.XXX.IMAGESET-FuGLi
2017-05-31 13:27:59 X264 Ballerina.-.Gib.deinen.Traum.niemals.auf.3D.HSBS.2016.German.DL.DTS.1080p.BluRay.x264-CiNEViSiON
2017-05-31 13:29:31 XXX-IMAGESETS KarupsPC.com_17.05.30.Nikita.Black.10.XXX.IMAGESET-FuGLi
2017-05-31 13:31:07 XXX-IMGSET Nubiles.net_17.05.30.Lilly.Ford.Bad.Girls.Are.Better.XXX.IMAGESET-FuGLi
2017-05-31 13:33:43 XXX Nubiles.net_17.05.30.Maya.Bijou.Dripping.Pussy.XXX.IMAGESET-FuGLi
2017-05-31 13:35:52 XXX Nubiles.net_17.05.30.Emmy.Space.Sexed.Up.XXX.IMAGESET-FuGLi
2017-05-31 13:37:03 EBOOK Le.Monde.01.Juin.2017.French.Retail.eBook-FMR
2017-05-31 13:37:10 EBOOK Le.Monde.Dossier.01.Juin.2017.French.Retail.eBook-FMR
2017-05-31 13:37:12 EBOOK Le.Monde.Eco.et.Entreprise.01.Juin.2017.French.Retail.eBook-FMR
2017-05-31 13:38:10 XXX Nubiles.net_17.05.31.Mary.Anne.Right.Touch.XXX.IMAGESET-FuGLi
2017-05-31 13:41:16 XXX Hegre.com_17.05.31.Alya.Wet.Swimsuit.XXX.IMAGESET-FuGLi
2017-05-31 13:42:48 XXX-IMAGESETS NaughtyAmerica.com_17.05.28.Yuko.Ito.Van.Wylde.My.Naughty.Massage.XXX.IMAGESET-FuGLi
2017-05-31 13:44:33 XXX NaughtyAmerica.com_17.05.29.Nicole.Aniston.Rachel.Starr.Van.Wylde.American.Daydreams.XXX.IMAGESET-FuGLi
2017-05-31 13:44:38 GAMES White.Noise.2.Update.4.to.9-SKIDROW
2017-05-31 13:46:00 XXX NaughtyAmerica.com_17.05.29.Cindy.Starfall.Richie.Black.Naughty.America.XXX.IMAGESET-FuGLi
2017-05-31 13:47:54 XXX-IMAGESETS NaughtyAmerica.com_17.05.30.Lexi.Lovell.Mike.Mancini.Naughty.Bookworms.XXX.IMAGESET-FuGLi
2017-05-31 13:49:23 XXX-IMAGESETS NaughtyAmerica.com_17.05.30.Shayla.Lavveaux.Mikey.Butders.Seduced.By.A.Cougar.XXX.IMAGESET-FuGLi
2017-05-31 13:51:03 XXX NaughtyAmerica.com_17.05.31.Diamond.Jackson.Kyle.Mason.Seduced.By.A.Cougar.XXX.IMAGESET-FuGLi
2017-05-31 13:51:57 TV-XVID Designated.Survivor.S01E20.FRENCH.WEBRip.x264-AMB3R
2017-05-31 13:52:36 XXX-IMAGESETS NaughtyAmerica.com_17.05.31.Kate.England.Preston.Parker.I.Have.A.Wife.XXX.IMAGESET-FuGLi
2017-05-31 14:00:43 MP3 Calybr_and_Tympanic_-_My_Curse-(HBR060)-WEB-2017-MMS
2017-05-31 14:01:00 MP3 Amentis_-_The_Madman-(ANY102)-WEB-2017-MMS
2017-05-31 14:02:00 MP3 Bangbros_-_Children_(Incl_Alex_Megane_Remix)-(HHXX088)-WEB-2017-MMS
2017-05-31 14:02:23 MP3 Amine_Maxwell_-_Her_Soul-(SUBMISSION057)-WEB-2017-MMS
2017-05-31 14:02:38 MP3 Taipan-Parlons_Beuh-WEB-FR-2017-H5N1
2017-05-31 14:02:45 MP3 Scott_Brown_-_Something_Real-(EV180)-WEB-2017-MMS
2017-05-31 14:06:37 TV-XVID MasterChef.Australia.S09E24.HDTV.x264-FQM
2017-05-31 14:10:15 X264 Gang.Bang.Stars.18.GERMAN.XXX.DVDRiP.x264-TattooLovers
2017-05-31 14:11:18 XXX Gang.Bang.Stars.18.GERMAN.XXX.COMPLETE.PAL.DVDR-TattooLovers
2017-05-31 14:14:55 DVDR Fist.Fight.2017.DVDR-JFKDVD
2017-05-31 14:18:22 MP3 In_Isolation-Single_Rotations_Of_Love-CDS-CDR-2010-D2H
2017-05-31 14:19:01 MP3 In_Isolation-The_Singles-CDR-2012-D2H
2017-05-31 14:19:36 MP3 In_Isolation-Berlin-CDS-CDR-2013-D2H
2017-05-31 14:22:50 BLURAY Gundam.Reconguista.In.G.S01D2.COMPLETE.BLURAY-BRDC
2017-05-31 14:26:34 TV-XVID House.Rules.S05E22.HDTV.x264-FQM
2017-05-31 14:29:12 TV-HD-NORDIC Hundar.Pa.Jobb.S01E02.SWEDiSH.1080p.WEB.h264-SAAB
2017-05-31 14:31:19 TV-HD-NORDIC Hundar.Pa.Jobb.S01E01.SWEDiSH.1080p.WEB.h264-SAAB
2017-05-31 14:33:20 TV-X264 1917.El.Otro.Dia.D.2017.SPANiSH.DOC.1080p.HDTV.x264-FERiCE
2017-05-31 14:34:01 TV-HD-NORDIC Hundar.Pa.Jobb.S01E03.SWEDiSH.1080p.WEB.h264-SAAB
2017-05-31 14:34:17 X264 1917.El.Otro.Dia.D.2017.SPANiSH.DOC.720p.HDTV.x264-FERiCE
2017-05-31 14:34:27 TV-HD-NORDIC Hundar.Pa.Jobb.S01E04.SWEDiSH.1080p.WEB.h264-SAAB
2017-05-31 14:34:56 TV-XVID 1917.El.Otro.Dia.D.2017.SPANiSH.DOC.HDTV.x264-FERiCE
2017-05-31 14:38:39 TV-HD-NORDIC Hundar.Pa.Jobb.S01E05.SWEDiSH.1080p.WEB.h264-SAAB
2017-05-31 14:40:31 TV-HD-NORDIC Hundar.Pa.Jobb.S01E06.SWEDiSH.1080p.WEB.h264-SAAB
2017-05-31 14:43:28 TV-HD-NORDIC Hundar.Pa.Jobb.S01E07.SWEDiSH.1080p.WEB.h264-SAAB
2017-05-31 14:45:21 TV-HD-NORDIC Hundar.Pa.Jobb.S01E08.SWEDiSH.1080p.WEB.h264-SAAB
2017-05-31 14:47:38 TV-HD-NORDIC Hundar.Pa.Jobb.S01E09.SWEDiSH.1080p.WEB.h264-SAAB
2017-05-31 14:51:17 TV-HD-NORDIC Hundar.Pa.Jobb.S01E10.SWEDiSH.1080p.WEB.h264-SAAB
2017-05-31 14:51:36 MP3 TOPS-Picture_You_Staring-(ABT040)-WEB-2014-MOHAWK
2017-05-31 14:53:59 TV-X264 Inspector.Gadget.2.2003.German.HDTVRiP.x264-TiPToP
2017-05-31 14:54:37 TV-HD-NORDIC Hundar.Pa.Jobb.S01E11.SWEDiSH.1080p.WEB.h264-SAAB
2017-05-31 14:56:07 TV-X264 Inspector.Gadget.2.2003.German.DL.720p.HDTV.x264-TiPToP
2017-05-31 14:59:19 TV-HD-NORDIC Hundar.Pa.Jobb.S01E12.SWEDiSH.1080p.WEB.h264-SAAB
2017-05-31 15:00:38 TV-X264 Inspector.Gadget.2.2003.German.DL.1080p.HDTV.x264-TiPToP
2017-05-31 15:01:43 TV-HD-NORDIC Hundar.Pa.Jobb.S01E01.SWEDiSH.720p.WEB.h264-SAAB
2017-05-31 15:04:38 TV-HD-NORDIC Hundar.Pa.Jobb.S01E02.SWEDiSH.720p.WEB.h264-SAAB
2017-05-31 15:06:11 TV-HD-X264 Deadliest.Catch.S13E08.720p.WEB.x264-TBS
2017-05-31 15:07:13 X264-HD John.Wick.Chapter.2.2017.720p.BluRay.x264-SPARKS
2017-05-31 15:09:35 TV-HD Deadliest.Catch.S13E08.1080p.WEB.x264-TBS
2017-05-31 15:10:09 TV-SD Deadliest.Catch.S13E08.WEB.x264-TBS
2017-05-31 15:10:39 TV-HD-X264 Hundar.Pa.Jobb.S01E03.SWEDiSH.720p.WEB.h264-SAAB
2017-05-31 15:12:33 X264 John.Wick.Chapter.2.2017.RERiP.BDRip.x264-SPARKS
2017-05-31 15:12:35 TV-X264 Genius.S01E06.SPANiSH.1080p.HDTV.x264-FCC
2017-05-31 15:12:35 TV-HD-NORDIC Hundar.Pa.Jobb.S01E04.SWEDiSH.720p.WEB.h264-SAAB
2017-05-31 15:12:58 TV-X264 Expediente.X.S01E06.PROPER.SPANiSH.720p.HDTV.x264-FERiCE
2017-05-31 15:13:07 TV-X264 Genius.S01E06.SPANiSH.720p.HDTV.x264-FCC
2017-05-31 15:13:39 TV-XVID Genius.S01E06.SPANiSH.HDTV.x264-FCC
2017-05-31 15:14:03 TV-X264 Sucesor.Designado.S01E20.SPANiSH.1080p.WEBRip.x264-FCC
2017-05-31 15:14:29 TV-HD-NORDIC Hundar.Pa.Jobb.S01E05.SWEDiSH.720p.WEB.h264-SAAB
2017-05-31 15:14:38 TV-X264 Sucesor.Designado.S01E20.SPANiSH.720p.WEBRip.x264-FCC
2017-05-31 15:15:21 TV-XVID Sucesor.Designado.S01E20.SPANiSH.WEBRip.x264-FCC
2017-05-31 15:18:00 X264 Guardians.2017.German.DL.1080p.BluRay.x264-ViDEOWELT
2017-05-31 15:19:25 TV-HD-NORDIC Hundar.Pa.Jobb.S01E06.SWEDiSH.720p.WEB.h264-SAAB
2017-05-31 15:22:10 TV-HD-NORDIC Hundar.Pa.Jobb.S01E07.SWEDiSH.720p.WEB.h264-SAAB
2017-05-31 15:22:23 X264 Guardians.2017.German.DL.720p.BluRay.x264-ViDEOWELT
2017-05-31 15:24:29 TV-HD-NORDIC Hundar.Pa.Jobb.S01E08.SWEDiSH.720p.WEB.h264-SAAB
2017-05-31 15:25:02 X264 Guardians.German.2017.BDRip.x264-ViDEOWELT
2017-05-31 15:25:48 TV Circus.Halligalli.S09E14.GERMAN.720p.HDTV.x264-RTL
2017-05-31 15:26:10 TV-XVID Circus.Halligalli.S09E14.GERMAN.HDTV.x264-RTL
2017-05-31 15:26:35 TV-HD-NORDIC Hundar.Pa.Jobb.S01E10.SWEDiSH.720p.WEB.h264-SAAB
2017-05-31 15:28:25 MP3 Goitzsche_Front-Mo(Nu)Ment-DE-2CD-2016-CRUELTY
2017-05-31 15:29:02 TV-HD-NORDIC Hundar.Pa.Jobb.S01E11.SWEDiSH.720p.WEB.h264-SAAB
2017-05-31 15:29:36 MP3 Eugen_Menjaev_-_Infiziert-WEB-2017-SRG
2017-05-31 15:29:53 MP3 Darksiderz_And_Kamikaze_-_Bassline-(GHD011)-WEB-2017-SRG
2017-05-31 15:32:08 TV-HD-NORDIC Hundar.Pa.Jobb.S01E12.SWEDiSH.720p.WEB.h264-SAAB
2017-05-31 15:33:02 X264 L.Ascension.2017.FRENCH.BDRiP.x264-PRiDEHD
2017-05-31 15:33:09 X264 L.Ascension.2017.FRENCH.720p.BluRay.x264-LOST
2017-05-31 15:35:42 X264 L.Ascension.2017.FRENCH.1080p.BluRay.x264-LOST
2017-05-31 15:36:30 TV-X264 Small.Animal.Hospital.S01E01.1080p.WEB.x264-Ltu
2017-05-31 15:36:41 MP3 VA_-_Polarity-WEB-2017-gEm
2017-05-31 15:38:44 GAMES Locks.Quest.RIP-Unleashed
2017-05-31 15:39:00 TV-X264 Gotham.S03E20.SUBFRENCH.1080p.WEB.H264-SiGeRiS
2017-05-31 15:39:32 TV-X264 Small.Animal.Hospital.S01E01.720p.WEB.x264-Ltu
2017-05-31 15:39:58 XXX MileHighMedia.com_17.03.26.Seduced.By.An.Older.Woman.Scene.3.XXX.IMAGESET-GUSH
2017-05-31 15:40:05 X264 Before.I.Fall.2016.COMPLETE.QC.BLURAY-4FR
2017-05-31 15:40:14 TV-X264 American.Epic.S01E03.WEB.h264-CookieMonster
2017-05-31 15:42:09 TV-X264 American.Epic.S01E03.720p.WEB.h264-CookieMonster
2017-05-31 15:42:33 TV-X264 Small.Animal.Hospital.S01E01.WEB.x264-Ltu
2017-05-31 15:42:52 GAMES Germ.Wars.Remastered.RIP-Unleashed
2017-05-31 15:44:25 TV-X264 American.Epic.S01E03.1080p.WEB.h264-CookieMonster
2017-05-31 15:44:41 TV-HD-NORDIC Hundar.Pa.Jobb.S01E09.SWEDiSH.720p.WEB.h264-SAAB
2017-05-31 15:45:36 TV-X264 Small.Animal.Hospital.S01E02.1080p.WEB.x264-Ltu
2017-05-31 15:48:39 TV-X264 Small.Animal.Hospital.S01E02.720p.WEB.x264-Ltu
2017-05-31 15:48:42 TV-X264 House.of.Cards.2013.S05E09.MULTi.1080p.WEBRip.x264-BRiNK
2017-05-31 15:49:25 TV-X264 House.of.Cards.2013.S05E10.MULTi.1080p.WEBRip.x264-BRiNK
2017-05-31 15:50:14 MP3 VA_-_Terraformer-WEB-2017-gEm
2017-05-31 15:50:26 TV-X264 House.of.Cards.2013.S05E11.MULTi.1080p.WEBRip.x264-BRiNK
2017-05-31 15:51:09 TV-X264 House.of.Cards.2013.S05E12.MULTi.1080p.WEBRip.x264-BRiNK
2017-05-31 15:51:41 TV-X264 Small.Animal.Hospital.S01E02.WEB.x264-Ltu
2017-05-31 15:51:57 TV-X264 House.of.Cards.2013.S05E13.FiNAL.MULTi.1080p.WEBRip.x264-BRiNK
2017-05-31 15:52:42 TV-X264 Designated.Survivor.S01E20.FRENCH.720p.WEBRip.x264-BRiNK
2017-05-31 15:53:04 XXX MileHighMedia.com_17.03.24.Seduced.By.An.Older.Woman.Scene.1.XXX.IMAGESET-GUSH
2017-05-31 15:53:10 TV-X264 Designated.Survivor.S01E20.MULTi.1080p.WEBRip.x264-BRiNK
2017-05-31 15:54:14 X264-SD-DE Viridiana.German.1961.DVDRiP.x264-NGE
2017-05-31 15:54:42 TV-X264 Small.Animal.Hospital.S01E03.1080p.WEB.x264-Ltu
2017-05-31 15:57:44 TV-X264 Small.Animal.Hospital.S01E03.720p.WEB.x264-Ltu
2017-05-31 16:00:46 X264 Small.Animal.Hospital.S01E03.WEB.x264-Ltu
2017-05-31 16:01:22 MP3 Collapsed_and_RaRabb-Complete_Dimension-WEB-2017-BPM
2017-05-31 16:01:44 MP3 Dance_Hits-Ultimate_Summer_Floorfillers-WEB-2015-BPM
2017-05-31 16:02:05 MP3 Eric_Daviz-Extasia-WEB-2014-BPM
2017-05-31 16:02:27 MP3 Eric_Daviz-Hard_to_Believe-WEB-2017-BPM
2017-05-31 16:02:48 MP3 Eric_Daviz-Last_Mission_To_Paradise_Ep-WEB-2015-BPM
2017-05-31 16:03:11 MP3 Eric_Daviz-Mind_Games-WEB-2014-BPM
2017-05-31 16:03:15 XXX MileHighMedia.com_17.03.25.Seduced.By.An.Older.Woman.Scene.2.XXX.IMAGESET-GUSH
2017-05-31 16:03:34 MP3 Eric_Daviz-Plastic_Oceans-WEB-2016-BPM
2017-05-31 16:03:48 TV-X264 Small.Animal.Hospital.S01E04.1080p.WEB.x264-Ltu
2017-05-31 16:03:55 MP3 Eric_Daviz-Spirit_of_Sandway_EP-WEB-2017-BPM
2017-05-31 16:04:16 MP3 Eric_Daviz-Temporary_Hangover-WEB-2016-BPM
2017-05-31 16:04:38 MP3 Eric_Daviz-Terminated_Paradise-WEB-2016-BPM
2017-05-31 16:05:00 MP3 Peter_Wok-Cutting-WEB-2017-BPM
2017-05-31 16:05:22 MP3 Peter_Wok-Going_Strong-WEB-2017-BPM
2017-05-31 16:05:44 MP3 Peter_Wok-Tunnels-WEB-2017-BPM
2017-05-31 16:06:05 MP3 RaRabb-Barret_EP-WEB-2015-BPM
2017-05-31 16:06:27 MP3 RaRabb-Crategus_EP-WEB-2017-BPM
2017-05-31 16:06:49 MP3 RaRabb-Looping-WEB-2015-BPM
2017-05-31 16:06:51 TV-X264 Small.Animal.Hospital.S01E04.720p.WEB.x264-Ltu
2017-05-31 16:07:11 MP3 RaRabb-Parasit_EP-WEB-2016-BPM
2017-05-31 16:07:32 MP3 RaRabb-Stupid_Maschine-WEB-2015-BPM
2017-05-31 16:07:54 MP3 Rarabb-Access_Denied-WEB-2015-BPM
2017-05-31 16:08:15 MP3 Rarabb-Barret-WEB-2015-BPM
2017-05-31 16:08:37 MP3 Rarabb-Fair-WEB-2016-BPM
2017-05-31 16:08:58 MP3 Rarabb-Fusion-WEB-2016-BPM
2017-05-31 16:09:20 MP3 Rarabb-Taxodium-WEB-2017-BPM
2017-05-31 16:09:42 MP3 Rashady-Ali_Bomaye-WEB-2017-BPM
2017-05-31 16:09:52 TV-X264 Small.Animal.Hospital.S01E04.WEB.x264-Ltu
2017-05-31 16:10:03 MP3 Rashady-Chuck_Norris-WEB-2017-BPM
2017-05-31 16:10:25 MP3 Reap_Mexc-NO_NO_EXISTENCE-WEB-2016-BPM
2017-05-31 16:10:48 MP3 VA-EDM_FloorFillers_Vol1-WEB-2017-BPM
2017-05-31 16:11:08 MP3 VA-EDM_FloorFillers_Vol2-WEB-2017-BPM
2017-05-31 16:11:30 MP3 VA-EDM_FloorFillers_Vol3-WEB-2017-BPM
2017-05-31 16:11:41 X264 The.Dark.Below.2016.German.DL.1080p.BluRay.x264-ViDEOWELT
2017-05-31 16:11:54 MP3 VA-EDM_FloorFillers_Vol4-WEB-2017-BPM
2017-05-31 16:12:13 MP3 VA-EDM_FloorFillers_Vol5-WEB-2017-BPM
2017-05-31 16:12:36 MP3 Xilinox-Dirty_World_EP-WEB-2014-BPM
2017-05-31 16:12:54 TV-X264 Small.Animal.Hospital.S01E05.1080p.WEB.x264-Ltu
2017-05-31 16:12:57 MP3 Xilinox-Discrimination_EP-WEB-2013-BPM
2017-05-31 16:13:18 TV-SD-X264 The.Challenge.S30E03.iNTERNAL.HDTV.x264-YesTV
2017-05-31 16:13:20 TV-X264 The.Challenge.S30E03.iNTERNAL.720p.HDTV.x264-YesTV
2017-05-31 16:13:24 XXX MileHighMedia.com_17.03.27.Seduced.By.An.Older.Woman.Scene.4.XXX.IMAGESET-GUSH
2017-05-31 16:13:43 TV-SD-X264 The.Challenge.S30.Special.14.Times.Our.Challengers.Lost.Their.Shit.HDTV.x264-YesTV
2017-05-31 16:13:44 MP3 Xilinox-Doors-WEB-2014-BPM
2017-05-31 16:13:45 TV-X264 The.Challenge.S30.Special.14.Times.Our.Challengers.Lost.Their.Shit.720p.HDTV.x264-YesTV
2017-05-31 16:13:45 TV-X264 The.Challenge.S30.Special.14.imes.Our.Challengers.Lost.Theirr.Shit.720p.HDTV.x264-YesTV
2017-05-31 16:14:07 MP3 Xilinox-Luchock-WEB-2013-BPM
2017-05-31 16:14:41 MP3 Xilinox-Metal_EP-WEB-2013-BPM
2017-05-31 16:15:12 MP3 Xilinox-Murder_or_Accident-WEB-2014-BPM
2017-05-31 16:15:34 MP3 Xilinox-Order_EP-WEB-2016-BPM
2017-05-31 16:15:57 TV-X264 Small.Animal.Hospital.S01E05.720p.WEB.x264-Ltu
2017-05-31 16:15:57 MP3 Xilinox-Provocation-WEB-2016-BPM
2017-05-31 16:16:08 X264 Enemy.of.the.State.1998.PL.DUAL.1080p.BluRay.x264-ProPL
2017-05-31 16:16:39 X264 Masterminds.Minimaler.IQ.Maximale.Beute.2016.German.DL.1080p.BluRay.x264-ENCOUNTERS
2017-05-31 16:16:40 X264 The.Dark.Below.2016.German.DL.720p.BluRay.x264-ViDEOWELT
2017-05-31 16:16:50 MP3 Xilinox-Self_Destruction_EP-WEB-2014-BPM
2017-05-31 16:17:19 TV-X264 Code.Black.S02E14.NLSUBBED.720p.HDTV.x264-iFH
2017-05-31 16:17:32 MP3 Xilinox-Sobricid-WEB-2012-BPM
2017-05-31 16:17:56 XXX Seduced.By.An.Older.Woman.XXX.720P.WEBRIP.MP4-GUSH
2017-05-31 16:17:58 MP3 Xilinox-TDoH-WEB-2014-BPM
2017-05-31 16:18:30 TV-X264 Re.Creators.E07.SUBFRENCH.1080p.WEBRip.x264-AMB3R
2017-05-31 16:18:51 TV-X264 Re.Creators.E08.SUBFRENCH.1080p.WEBRip.x264-AMB3R
2017-05-31 16:18:58 X264 Small.Animal.Hospital.S01E05.WEB.x264-Ltu
2017-05-31 16:19:10 MP3 291out_and_Healing_Force_Project-Soundtracks_for_No_Film_Vol_2-(acido_015)-WEB-2015-SOUNDz
2017-05-31 16:19:18 MP3 Xilinox-Terror_Ship_EP-WEB-2013-BPM
2017-05-31 16:19:19 TV-X264 Re.Creators.E07.SUBFRENCH.720p.WEBRip.x264-AMB3R
2017-05-31 16:19:38 TV-X264 Re.Creators.E08.SUBFRENCH.720p.WEBRip.x264-AMB3R
2017-05-31 16:19:39 X264 The.Dark.Below.German.2016.BDRip.x264-ViDEOWELT
2017-05-31 16:19:48 MP3 Benedek-Atomicos_Theme-(PR012)-WEB-2013-SOUNDz
2017-05-31 16:19:56 MP3 Xilinox-The_Last_EP-WEB-2014-BPM
2017-05-31 16:20:13 X264 Masterminds.Minimaler.IQ.Maximale.Beute.German.2016.AC3.BDRiP.x264-XF
2017-05-31 16:20:27 MP3 Benedek-Castle_2_Castle-(LR090A)-WEB-2017-SOUNDz
2017-05-31 16:20:35 MP3 Xilinox-The_PL-WEB-2017-BPM
2017-05-31 16:21:04 TV-X264 The.Magicians.US.S02E04.NLSUBBED.720p.HDTV.x264-iFH
2017-05-31 16:21:06 MP3 Benedek-Coolin_EP-(LR089)-WEB-2016-SOUNDz
2017-05-31 16:21:18 MP3 Xilinox-The_X_Series-WEB-2013-BPM
2017-05-31 16:21:55 TV-X264 Code.Black.S02E14.NLSUBBED.1080p.HDTV.x264-iFH
2017-05-31 16:21:56 MP3 Xilinox-Three_Ghost-WEB-2015-BPM
2017-05-31 16:22:01 TV-X264 Small.Animal.Hospital.S01E06.1080p.WEB.x264-Ltu
2017-05-31 16:22:02 MP3 Benedek-Peoples_Potential_Unlimited_Test_Pressing-(PPU-053)-WEB-2013-SOUNDz
2017-05-31 16:22:25 MP3 Benedek-Thats_My_Jam-(PR003)-WEB-2011-SOUNDz
2017-05-31 16:22:30 MP3 Xilinox-Unsorted_EP-WEB-2012-BPM
2017-05-31 16:22:59 MP3 Xilinox-Wandering_Souls-WEB-2013-BPM
2017-05-31 16:23:04 MP3 Braqueberry-Chorro_100s-(IJ008)-WEB-2017-SOUNDz
2017-05-31 16:23:24 MP3 Xilinox-Zero_Tolerancia_EP-WEB-2015-BPM
2017-05-31 16:23:43 MP3 Braqueberry-Wemen-(BRILL010)-WEB-2013-SOUNDz
2017-05-31 16:23:47 MP3 Xilinox_Doeme-Xido_EP-WEB-2014-BPM
2017-05-31 16:24:10 MP3 Zero_Zero-Taxidermia-WEB-2017-BPM
2017-05-31 16:24:22 MP3 Fil_Jackson-Dilemma_EP-(TBMP3183)-WEB-2017-SOUNDz
2017-05-31 16:24:48 BLURAY Masterminds.2016.DUAL.COMPLETE.BLURAY-GMB
2017-05-31 16:25:00 MP3 Gregory_Isaacs-Come_Closer-WEB-2017-SOUNDz
2017-05-31 16:25:04 TV-X264 Small.Animal.Hospital.S01E06.720p.WEB.x264-Ltu
2017-05-31 16:25:39 MP3 Hashman_Deejay-Sandopolis-(FT026)-WEB-2014-SOUNDz
2017-05-31 16:26:03 BLURAY Gundam.Reconguista.In.G.S01D3.COMPLETE.BLURAY-BRDC
2017-05-31 16:26:19 MP3 Healing_Force_Project-Analogic_Prospectus__Moorg_1-(acido_007)-WEB-2015-SOUNDz_iNT
2017-05-31 16:26:57 MP3 Healing_Force_Project-Strange_Apparitions_in_My_Recording_Room-(BH12)-WEB-2015-SOUNDz
2017-05-31 16:27:35 MP3 Max_D-High_Life-(HOTSHIT008)-WEB-2014-SOUNDz
2017-05-31 16:28:06 TV-X264 Small.Animal.Hospital.S01E06.WEB.x264-Ltu
2017-05-31 16:28:18 MP3 Maxmillion_Dunbar-Feel_Free-WEB-2007-SOUNDz
2017-05-31 16:28:57 MP3 Quays_and_Lixo-Ida-(GME016)-WEB-2017-SOUNDz
2017-05-31 16:29:35 MP3 Samrai-Samrai_Meets_Ruf_Dug_at_the_Dane_Bank_Observatory-(UTTU_046)-WEB-2014-SOUNDz
2017-05-31 16:31:09 TV-X264 Small.Animal.Hospital.S01E07.1080p.WEB.x264-Ltu
2017-05-31 16:34:10 TV-X264 Small.Animal.Hospital.S01E07.720p.WEB.x264-Ltu
2017-05-31 16:37:12 TV-X264 Small.Animal.Hospital.S01E07.WEB.x264-Ltu
2017-05-31 16:38:44 X264 The.LEGO.Batman.Movie.2017.FRENCH.720p.BluRay.x264-VENUE
2017-05-31 16:39:50 XXX Ruecksitz.Weiber.2.German.XXX.DVDRip.x264-CiCXXX
2017-05-31 16:40:13 TV-X264 Small.Animal.Hospital.S01E08.1080p.WEB.x264-Ltu
2017-05-31 16:41:39 XXX Lesbian.Performers.Of.The.Year.2017.XXX.DVDRip.x264-CiCXXX
2017-05-31 16:42:25 XVID The.LEGO.Batman.Movie.2017.FRENCH.BDRip.x264-VENUE
2017-05-31 16:42:36 X264 John.Wick.Chapter.2.2017.1080p.BluRay.x264-SPARKS
2017-05-31 16:43:08 FLAC Goitzsche_Front-Mo(Nu)Ment-DE-2CD-FLAC-2016-CRUELTY
2017-05-31 16:43:16 TV-X264 Small.Animal.Hospital.S01E08.720p.WEB.x264-Ltu
2017-05-31 16:43:23 X264 The.LEGO.Batman.Movie.2017.MULTi.1080p.BluRay.x264-VENUE
2017-05-31 16:46:17 TV-X264 Small.Animal.Hospital.S01E08.WEB.x264-Ltu
2017-05-31 16:46:18 TV-X264 The.Magicians.US.S02E04.NLSUBBED.1080p.HDTV.x264-iFH
2017-05-31 16:47:44 TV Expediente.X.S01E06.PROPER.SPANiSH.1080p.HDTV.x264-FERiCE
2017-05-31 16:48:51 TV-XVID Expediente.No.Resuelto.S02E09.2014.SPANiSH.DOC.PDTV.x264-FERiCE
2017-05-31 16:49:20 TV-X264 Small.Animal.Hospital.S01E09.1080p.WEB.x264-Ltu
2017-05-31 16:50:39 XXX Seduced.By.An.Older.Woman.XXX.1080P.WEBRIP.MP4-GUSH
2017-05-31 16:52:22 TV-X264 Small.Animal.Hospital.S01E09.720p.WEB.x264-Ltu
2017-05-31 16:55:24 TV-X264 Small.Animal.Hospital.S01E09.WEB.x264-Ltu
2017-05-31 16:58:26 TV-X264 Small.Animal.Hospital.S01E10.1080p.WEB.x264-Ltu
2017-05-31 16:59:46 TV-X264 Ontvoerd.S04E05.DUTCH.720p.HDTV.x264-iFH
2017-05-31 17:01:28 TV-X264 Small.Animal.Hospital.S01E10.720p.WEB.x264-Ltu
2017-05-31 17:02:02 TV-X264 Twin.Peaks.S03E04.SPANiSH.1080p.HDTV.x264-FERiCE
2017-05-31 17:02:31 TV-X264 Twin.Peaks.S03E04.SPANiSH.720p.HDTV.x264-FERiCE
2017-05-31 17:04:22 XXX ATKExotics.17.05.31.Ana.Foxxx.Interview.XXX.1080p.MP4-KTR
2017-05-31 17:04:30 TV-X264 Small.Animal.Hospital.S01E10.WEB.x264-Ltu
2017-05-31 17:05:19 XXX-0DAY ATKExotics.17.05.31.Yara.Skye.Toys.XXX.1080p.MP4-KTR
2017-05-31 17:06:22 XXX ATKHairy.17.05.31.Jia.Toys.XXX.1080p.MP4-KTR
2017-05-31 17:07:02 FIX Rezrog-HI2U
2017-05-31 17:07:32 TV-X264 Small.Animal.Hospital.S01E11.1080p.WEB.x264-Ltu
2017-05-31 17:07:45 XXX PornstarFisher.17.05.31.Alexa.Tomas.XXX.1080p.MP4-KTR
2017-05-31 17:09:28 TV-XVID Scorpion.S03E20.SPANiSH.HDTV.x264-FERiCE
2017-05-31 17:09:35 XXX TeamSkeetExtras.17.05.31.Felicity.XXX.1080p.MP4-KTR
2017-05-31 17:09:44 TV-X264 Scorpion.S03E20.SPANiSH.720p.HDTV.x264-FERiCE
2017-05-31 17:10:15 TV-X264 Scorpion.S03E20.SPANiSH.1080p.HDTV.x264-FERiCE
2017-05-31 17:10:33 TV-X264 Small.Animal.Hospital.S01E11.720p.WEB.x264-Ltu
2017-05-31 17:10:57 FLAC Bobby_Crystal-You_Never_Know-7INCH_VINYL-FLAC-1997-YARD
2017-05-31 17:13:35 TV-X264 Small.Animal.Hospital.S01E11.WEB.x264-Ltu
2017-05-31 17:14:36 XXX BigNaturals.17.05.31.Anissa.Kate.Big.Tits.Maid.Service.XXX.1080p.MP4-KTR
2017-05-31 17:15:37 0DAY Quarantine.Update.v1.0.0.1-CODEX
2017-05-31 17:16:24 XXX BlackGFs.17.05.31.India.Banks.Birthday.With.Bae.XXX.1080p.MP4-KTR
2017-05-31 17:16:38 TV-X264 Small.Animal.Hospital.S01E12.1080p.WEB.x264-Ltu
2017-05-31 17:17:41 TV-X264 Chicago.Fire.S05E13.GERMAN.Dubbed.WEBRiP.x264.SYNCFiX-idTV
2017-05-31 17:17:57 X264 Masterminds.Minimaler.IQ.Maximale.Beute.2016.German.720p.BluRay.x264-ENCOUNTERS
2017-05-31 17:18:21 XXX MikesApartment.17.05.31.Vera.Wonder.Wonderful.Vera.XXX.1080p.MP4-KTR
2017-05-31 17:19:37 XXX MomXXX.17.05.31.Anie.Darling.And.Blanche.Bradburry.XXX.1080p.MP4-KTR
2017-05-31 17:19:40 TV-X264 Small.Animal.Hospital.S01E12.720p.WEB.x264-Ltu
2017-05-31 17:21:23 TV-X264 Switch.Girl.S02E01.SUBFRENCH.1080p.WEBRiP.x264-AZR
2017-05-31 17:21:44 XXX Shoplyfter.17.05.03.Joseline.Kelly.XXX.1080p.MP4-KTR
2017-05-31 17:22:29 TV-X264 Switch.Girl.S02E02.SUBFRENCH.1080p.WEBRiP.x264-AZR
2017-05-31 17:22:40 TV-X264 Small.Animal.Hospital.S01E12.WEB.x264-Ltu
2017-05-31 17:23:35 TV-X264 Switch.Girl.S02E03.SUBFRENCH.1080p.WEBRiP.x264-AZR
2017-05-31 17:24:08 XXX-PAYSITE Shoplyfter.17.05.31.Alina.West.XXX.1080p.MP4-KTR
2017-05-31 17:24:40 TV-X264 Switch.Girl.S02E04.SUBFRENCH.1080p.WEBRiP.x264-AZR
2017-05-31 17:25:42 TV-X264 Small.Animal.Hospital.S01E13.1080p.WEB.x264-Ltu
2017-05-31 17:25:46 TV-X264 Switch.Girl.S02E05.SUBFRENCH.1080p.WEBRiP.x264-AZR
2017-05-31 17:26:51 TV-X264 Switch.Girl.S02E06.SUBFRENCH.1080p.WEBRiP.x264-AZR
2017-05-31 17:27:18 XXX-0DAY FakeHospital.17.05.31.Izzy.Delphine.XXX.1080p.MP4-KTR
2017-05-31 17:27:57 TV-X264 Switch.Girl.S02E07.SUBFRENCH.1080p.WEBRiP.x264-AZR
2017-05-31 17:28:26 XXX MeloneChallenge.17.05.30.Wendy.Moon.Lap.Dance.Makes.Him.Cum.XXX.1080p.MP4-KTR
2017-05-31 17:28:45 X264 Small.Animal.Hospital.S01E13.720p.WEB.x264-Ltu
2017-05-31 17:29:02 TV-X264 Switch.Girl.S02E08.FiNAL.SUBFRENCH.1080p.WEBRiP.x264-AZR
2017-05-31 17:29:34 XXX POVBitch.17.05.31.Vyvan.Hill.Poolside.Facial.For.Hot.Tattooed.Bitch.XXX.1080p.MP4-KTR
2017-05-31 17:31:46 TV-X264 Small.Animal.Hospital.S01E13.WEB.x264-Ltu
2017-05-31 17:34:48 TV-X264 Small.Animal.Hospital.S01E14.1080p.WEB.x264-Ltu
2017-05-31 17:35:37 FLAC Brenton_King-Senorita-(BRP_2037)-7INCH_VINYL-FLAC-2004-YARD
2017-05-31 17:36:19 FLAC Cobra-Bun_Till_Mi_Fool-7INCH_VINYL-FLAC-1989-YARD
2017-05-31 17:36:47 MP3 Mr_Criminal-All_Eyes_on_Me-WEB-2017-ENRAGED
2017-05-31 17:36:50 FLAC Coco_Tea_and_Shaka_Shamba-Country_Road-(VOL_009)-7INCH_VINYL-FLAC-1994-YARD
2017-05-31 17:37:49 TV-X264 Small.Animal.Hospital.S01E14.720p.WEB.x264-Ltu
2017-05-31 17:38:33 TV-X264 The.Crown.S01E01.MULTi.1080p.WEBRip.x264-BRiNK
2017-05-31 17:39:08 MP3 VA_-_Running_Beats_Vol_13_Musik_Zum_Laufen_(Explicit)-(405681_3056600)-WEB-2017-ZzZz
2017-05-31 17:39:13 FLAC Comanche-Gun_In_A_Brief-7INCH_VINYL-FLAC-1989-YARD
2017-05-31 17:39:18 TV-XVID Fargo.S03E04.iTALiAN.LD.WEBRip.x264-NTROPiC
2017-05-31 17:39:20 TV-X264 The.Crown.S01E02.MULTi.1080p.WEBRip.x264-BRiNK
2017-05-31 17:39:59 FLAC David_Leslie-The_Warrior-(IM_040)-7INCH_VINYL-FLAC-2004-YARD
2017-05-31 17:40:12 TV-X264 The.Crown.S01E03.MULTi.1080p.WEBRip.x264-BRiNK
2017-05-31 17:40:53 TV-X264 Small.Animal.Hospital.S01E14.WEB.x264-Ltu
2017-05-31 17:40:55 TV-X264 The.Crown.S01E04.MULTi.1080p.WEBRip.x264-BRiNK
2017-05-31 17:41:34 TV-X264 The.Crown.S01E05.MULTi.1080p.WEBRip.x264-BRiNK
2017-05-31 17:41:57 X264 Blame.2017.iTALiAN.WEBRip.x264-NTROPiC
2017-05-31 17:42:05 TV-X264 The.Crown.S01E06.MULTi.1080p.WEBRip.x264-BRiNK
2017-05-31 17:42:10 MP3 Avoid_Mikadroid-Destinacija-WEB-2016-BPM
2017-05-31 17:42:31 MP3 Avoid_and_Mikadroid-Rising_EP-WEB-2016-BPM
2017-05-31 17:42:47 TV-X264 The.Crown.S01E07.MULTi.1080p.WEBRip.x264-BRiNK
2017-05-31 17:42:53 MP3 Kashi-Stand_Up-WEB-2017-BPM
2017-05-31 17:43:17 MP3 Mikadroid-Agape-WEB-2016-BPM
2017-05-31 17:43:25 TV-X264 The.Crown.S01E08.MULTi.1080p.WEBRip.x264-BRiNK
2017-05-31 17:43:39 MP3 Mikadroid-Black_Mika-WEB-2016-BPM
2017-05-31 17:43:41 PRE Blame.2017.iTALiAN.720p.WEBRip.x264-NTROPiC
2017-05-31 17:43:55 TV-X264 Small.Animal.Hospital.S01E15.1080p.WEB.x264-Ltu
2017-05-31 17:44:01 MP3 Mikadroid-I_Will_Be_No_More_EP-WEB-2017-BPM
2017-05-31 17:44:06 TV-X264 The.Crown.S01E09.MULTi.1080p.WEBRip.x264-BRiNK
2017-05-31 17:44:25 MP3 Mikadroid-Mika_Mika_Mika_EP-WEB-2017-BPM
2017-05-31 17:44:46 MP3 Mikadroid-Outside-WEB-2014-BPM
2017-05-31 17:44:51 TV-X264 The.Crown.S01E10.FiNAL.MULTi.1080p.WEBRip.x264-BRiNK
2017-05-31 17:44:57 GAMES Super.Army.of.Tentacles.3.The.Search.for.Army.of.Tentacles.2.RIP-SiMPLEX
2017-05-31 17:45:10 MP3 Mikadroid-Seven_and_a_Half-WEB-2014-BPM
2017-05-31 17:45:34 MP3 Mikadroid-Social_Networks-WEB-2014-BPM
2017-05-31 17:46:08 PRE Blame.2017.iTALiAN.1080p.WEBRip.x264-NTROPiC
2017-05-31 17:46:28 MP3 Mikadroid-Something_in_Between-WEB-2014-BPM
2017-05-31 17:46:45 MP3 Mikadroid-Surrender-WEB-2014-BPM
2017-05-31 17:46:56 TV-X264 Small.Animal.Hospital.S01E15.720p.WEB.x264-Ltu
2017-05-31 17:48:01 TV-X264 Girls.S06E06.GERMAN.720p.HDTV.x264-ACED
2017-05-31 17:49:18 TV-XVID Girls.S06E06.GERMAN.HDTV.x264-ACED
2017-05-31 17:49:58 TV-X264 Small.Animal.Hospital.S01E15.WEB.x264-Ltu
2017-05-31 17:50:35 TV-X264 House.of.Cards.S05E01.GERMAN.720p.HDTV.x264.INTERNAL-ACED
2017-05-31 17:51:19 TV-HD iZombie.S03E09.1080p.HDTV.x264-CRAVERS
2017-05-31 17:51:53 TV-X264 House.of.Cards.S05E02.GERMAN.720p.HDTV.x264.INTERNAL-ACED
2017-05-31 17:53:12 TV-XVID House.of.Cards.S05E02.GERMAN.HDTV.x264.INTERNAL-ACED
2017-05-31 17:53:52 TV-X264 Nasas.Ten.Greatest.Achievements.S01E02.HDTV.x264-PLUTONiUM
2017-05-31 17:54:31 TV-X264 Snatch.S01E03.GERMAN.720p.HDTV.x264-ACED
2017-05-31 17:55:47 TV-X264 Snatch.S01E03.GERMAN.DL.1080p.HDTV.h264-ACED
2017-05-31 17:56:09 AVC Masterminds.Minimaler.IQ.Maximale.Beute.2016.German.DL.1080p.BluRay.AVC-AVC4D
2017-05-31 17:57:05 TV-XVID Snatch.S01E03.GERMAN.HDTV.x264-ACED
2017-05-31 17:57:24 MP3 VA_-_Running_Beats_Vol_14_Musik_Zum_Laufen_(Explicit)-(405681_3062113)-WEB-2017-ZzZz
2017-05-31 17:58:22 TV-X264 Snatch.S01E04.GERMAN.720p.HDTV.x264-ACED
2017-05-31 17:59:40 TV-X264 Snatch.S01E04.GERMAN.DL.1080p.HDTV.h264-ACED
2017-05-31 18:00:58 TV-X264 Snatch.S01E04.GERMAN.HDTV.x264-ACED
2017-05-31 18:01:01 X264 Patriots.Day.2016.2160p.BluRay.x265-TERMiNAL
2017-05-31 18:06:49 TV-X264 Oficina.De.Infiltrados.S03E01.SPANiSH.1080p.HDTV.x264-FCC
2017-05-31 18:07:24 TV-X264 Oficina.De.Infiltrados.S03E01.SPANiSH.720p.HDTV.x264-FCC
2017-05-31 18:07:55 TV-SD-SP Oficina.De.Infiltrados.S03E01.SPANiSH.HDTV.x264-FCC
2017-05-31 18:08:16 TV-HD-SP Oficina.De.Infiltrados.S03E02.SPANiSH.1080p.HDTV.x264-FCC
2017-05-31 18:08:50 TV-HD-X264 Oficina.De.Infiltrados.S03E02.SPANiSH.720p.HDTV.x264-FCC
2017-05-31 18:08:51 TV-X264 Nasas.Ten.Greatest.Achievements.S01E02.720p.HDTV.x264-PLUTONiUM
2017-05-31 18:09:22 TV-XVID Oficina.De.Infiltrados.S03E02.SPANiSH.HDTV.x264-FCC
2017-05-31 18:12:11 X264 The.Disappointments.Room.German.2016.AC3.BDRiP.x264-XF
2017-05-31 18:13:20 XXX BangBus.17.05.31.Evelin.Stone.XXX.1080p.MP4-KTR
2017-05-31 18:13:42 X264 The.Disappointments.Room.2016.German.DL.1080p.BluRay.x264-ENCOUNTERS
2017-05-31 18:15:44 BLURAY The.Disappointments.Room.2016.DUAL.COMPLETE.BLURAY-GMB
2017-05-31 18:19:00 X264 Sarah.Silverman.A.Speck.of.Dust.2017.720p.WEBRip.x264-GH7JKB6
2017-05-31 18:19:35 FLAC VA-De_Pre_Historie_90_1990-(534.102-6)-CD-FLAC-2012-EVARiST
2017-05-31 18:19:57 MP3 Harris_and_Ford_-_Up_and_Down_(Das_Fit-Programm)-(900879_8234592)-WEB-DE-2017-ZzZz
2017-05-31 18:20:19 MP3 Twin_View_-_Eris-(SSP001)-WEB-2017-MMS
2017-05-31 18:21:11 MP3 VA-De_Pre_Historie_90_1990-CD-2012-EVARiST
2017-05-31 18:22:06 MP3 VA-De_Pre_Historie_90_1991-CD-2012-EVARiST
2017-05-31 18:22:51 MP3 VA-De_Pre_Historie_90_1992-CD-2012-EVARiST
2017-05-31 18:23:43 MP3 Sunny_Lax_-_Anjunabeats_Worldwide_529-SAT-05-21-2017-TALiON
2017-05-31 18:23:49 MP3 VA-De_Pre_Historie_90_1993-CD-2012-EVARiST
2017-05-31 18:24:28 FLAC Delly_Ranks-Them_A_Watch_Yu-(VAS_0017)-7INCH_VINYL-FLAC-1998-YARD
2017-05-31 18:25:20 FLAC Donkey_Rollers-15_Years_Of_Hardstyle-(FUSIONCD009-2)-2CD-FLAC-2017-OTT
2017-05-31 18:25:39 FLAC Determine-Caan_Manage_Di_Damage-7INCH_VINYL-FLAC-1997-YARD
2017-05-31 18:26:39 MP3 VA-De_Pre_Historie_90_1994-CD-2012-EVARiST
2017-05-31 18:27:28 MP3 VA-De_Pre_Historie_90_1995-CD-2012-EVARiST
2017-05-31 18:28:19 MP3 Annie_Nightingale_-_BBC_Radio1__Incl_Mike_Delinquent_Project_Questmix-SAT-05-31-2017-TALiON
2017-05-31 18:28:27 MP3 VA-De_Pre_Historie_90_1996-CD-2012-EVARiST
2017-05-31 18:28:53 MP3 Genix_-_Anjunabeats_Worldwide_530-SAT-05-28-2017-TALiON
2017-05-31 18:29:51 TV-X264HD Nasas.Ten.Greatest.Achievements.S01E02.1080p.HDTV.x264-PLUTONiUM
2017-05-31 18:30:03 X264 Blutiger.Freitag.1972.Langfassung.German.BDRiP.x264-REEDNiAR
2017-05-31 18:30:18 MP3 VA-De_Pre_Historie_90_1997-CD-2012-EVARiST
2017-05-31 18:30:48 MP3 VA-De_Pre_Historie_90_1998-CD-2012-EVARiST
2017-05-31 18:31:25 MP3 VA-De_Pre_Historie_90_1999-CD-2012-EVARiST
2017-05-31 18:31:59 TV-X264 K.And.A.S01E01.1080p.WEB.x264-Ltu
2017-05-31 18:33:13 FLAC VA-De_Pre_Historie_90_1991-(534.102-7)-CD-FLAC-2012-EVARiST
2017-05-31 18:34:08 TV-X264 Prison.Break.S05E09.1080p.WEB.h264-JAWN
2017-05-31 18:34:45 FLAC VA-De_Pre_Historie_90_1992-(534.102-8)-CD-FLAC-2012-EVARiST
2017-05-31 18:35:06 TV-X264 K.And.A.S01E01.720p.WEB.x264-Ltu
2017-05-31 18:35:41 FLAC VA-De_Pre_Historie_90_1993-(534.102-9)-CD-FLAC-2012-EVARiST
2017-05-31 18:36:49 X264 Blutiger.Freitag.1972.Langfassung.German.720p.BluRay.x264-REEDNiAR
2017-05-31 18:36:59 FLAC VA-De_Pre_Historie_90_1994-(534.103-0)-CD-FLAC-2012-EVARiST
2017-05-31 18:37:41 TV-X264 House.Of.Cards.2013.S05E06.1080p.WEBRip.x264-CONVOY
2017-05-31 18:37:49 FLAC VA-De_Pre_Historie_90_1995-(534.103-1)-CD-FLAC-2012-EVARiST
2017-05-31 18:37:57 TV-X264 House.Of.Cards.2013.S05E01.1080p.WEBRip.x264-CONVOY
2017-05-31 18:38:08 TV-X264 K.And.A.S01E01.WEB.x264-Ltu
2017-05-31 18:38:28 TV-X264 House.Of.Cards.2013.S05E02.1080p.WEBRip.x264-CONVOY
2017-05-31 18:38:35 TV-X264 House.Of.Cards.2013.S05E03.1080p.WEBRip.x264-CONVOY
2017-05-31 18:38:46 FLAC VA-De_Pre_Historie_90_1996-(534.103-2)-CD-FLAC-2012-EVARiST
2017-05-31 18:38:51 TV-X264 House.Of.Cards.2013.S05E04.1080p.WEBRip.x264-CONVOY
2017-05-31 18:39:12 TV-X264 House.Of.Cards.2013.S05E05.1080p.WEBRip.x264-CONVOY
2017-05-31 18:39:33 FLAC VA-De_Pre_Historie_90_1997-(534.103-3)-CD-FLAC-2012-EVARiST
2017-05-31 18:40:22 FLAC VA-De_Pre_Historie_90_1998-(534.103-4)-CD-FLAC-2012-EVARiST
2017-05-31 18:40:53 FLAC VA-De_Pre_Historie_90_1999-(534.103-5)-CD-FLAC-2012-EVARiST
2017-05-31 18:41:02 X264 The.Disappointments.Room.2016.German.720p.BluRay.x264-ENCOUNTERS
2017-05-31 18:41:10 TV-X264 K.And.A.S01E02.1080p.WEB.x264-Ltu
2017-05-31 18:44:05 X264 Sarah.Silverman.A.Speck.of.Dust.2017.1080p.WEBRip.x264-JAWN
2017-05-31 18:44:11 TV-X264 K.And.A.S01E02.720p.WEB.x264-Ltu
2017-05-31 18:46:05 X264 Sarah.Silverman.A.Speck.of.Dust.2017.WEBRip.x264-JAWN
2017-05-31 18:47:13 TV-SD K.And.A.S01E02.WEB.x264-Ltu
2017-05-31 18:50:08 TV-X264 House.Of.Cards.2013.S05E08.1080p.WEBRip.x264-CONVOY
2017-05-31 18:50:15 TV-X264 K.And.A.S01E03.1080p.WEB.x264-Ltu
2017-05-31 18:50:20 TV-HD-X264 House.Of.Cards.2013.S05E10.1080p.WEBRip.x264-CONVOY
2017-05-31 18:53:05 X264 Snakes.On.A.Plane.2006.FRENCH.720p.BluRay.x264-MUxHD
2017-05-31 18:53:17 TV-X264 K.And.A.S01E03.720p.WEB.x264-Ltu
2017-05-31 18:53:27 X264-HD Blutiger.Freitag.1972.Langfassung.German.1080p.BluRay.x264-REEDNiAR
2017-05-31 18:53:55 XXX-0DAY Corrupt.Cheerleaders.XXX.720P.WEBRIP.MP4-GUSH
2017-05-31 18:56:18 TV K.And.A.S01E03.WEB.x264-Ltu
2017-05-31 18:56:21 XXX Corrupt.Cheerleaders.XXX.1080P.WEBRIP.MP4-GUSH
2017-05-31 18:58:14 X264 Stolen.2012.German.DL.1080p.BluRay.AVC-FYI
2017-05-31 18:58:49 MP3 In_Isolation-Berlin-CDR-DIRFIX-2013-D2H
2017-05-31 18:59:20 TV-X264 K.And.A.S01E04.1080p.WEB.x264-Ltu
2017-05-31 19:00:05 MP3 In_Isolation-Single_Rotations_Of_Love-CDR-DIRFIX-2010-D2H
2017-05-31 19:02:22 TV-X264 K.And.A.S01E04.720p.WEB.x264-Ltu
2017-05-31 19:02:55 PRE Hover.Revolt.Of.Gamers-CODEX
2017-05-31 19:04:13 BLURAY Dark.Below.2016.MULTi.COMPLETE.BLURAY-XORBiTANT
2017-05-31 19:05:24 TV-X264 K.And.A.S01E04.WEB.x264-Ltu
2017-05-31 19:07:20 X264 Snakes.On.A.Plane.2006.MULTi.1080p.BluRay.x264-MUxHD
2017-05-31 19:08:26 TV-X264 K.And.A.S01E05.1080p.WEB.x264-Ltu
2017-05-31 19:11:28 TV-X264 K.And.A.S01E05.720p.WEB.x264-Ltu
2017-05-31 19:14:30 TV-X264 K.And.A.S01E05.WEB.x264-Ltu
2017-05-31 19:19:53 TV-X264 House.Of.Cards.2013.S05E12.1080p.WEBRip.x264-CONVOY
2017-05-31 19:20:40 TV-X264 House.Of.Cards.2013.S05E11.1080p.WEBRip.x264-CONVOY
2017-05-31 19:21:02 0DAY The.Surge.Update.1-CODEX
2017-05-31 19:24:33 TV-X264 House.Of.Cards.2013.S05E13.1080p.WEBRip.x264-CONVOY
2017-05-31 19:26:05 MP3 Anchorsong-Gyotens_Kalimba-(TRUDD_206)-WEB-2017-BB8
2017-05-31 19:26:24 X264 The.Disappointments.Room.2016.German.DL.1080p.BluRay.AVC-AVC4D
2017-05-31 19:29:13 MP3 Anchorsong-Mother-(TRUDD_209)-WEB-2017-BB8
2017-05-31 19:29:49 GAMES MXGP3.The.Official.Motocross.Videogame.Hotfix.incl.DLC-CODEX
2017-05-31 19:29:56 MP3 Some_test_before_pre_makes_the_world_better-2017-BB8
2017-05-31 19:30:26 X264 The.LEGO.Batman.Movie.2017.MULTi.TRUEFRENCH.1080p.BluRay.x264-LOST
2017-05-31 19:30:31 TV-X264 Code.Black.S02E12.German.DL.DUBBED.1080p.WebHD.x264-AIDA
2017-05-31 19:31:29 TV-X264 Code.Black.S02E12.German.DL.DUBBED.720p.WebHD.x264-AIDA
2017-05-31 19:31:35 X264 The.LEGO.Batman.Movie.2017.TRUEFRENCH.720p.BluRay.x264-LOST
2017-05-31 19:32:20 MP3 Hunter_Game-Dead_Soul-(JUSTTHIS_013D)-WEB-2017-BB8
2017-05-31 19:32:27 TV-X264 Code.Black.S02E12.German.DUBBED.WebRip.x264-AIDA
2017-05-31 19:33:24 TV-X264 F.is.for.Family.S02E02.German.1080p.WebHD.x264-AIDA
2017-05-31 19:33:28 MP3 Higher_Brothers-Black_Cab-WEB-2017-ENRAGED
2017-05-31 19:34:19 MP3 Slicc_Pulla_And_Feddie_Mane-Designer_Street_Music-WEB-2017-ENRAGED
2017-05-31 19:34:23 TV-X264 F.is.for.Family.S02E02.German.720p.WebHD.x264-AIDA
2017-05-31 19:35:04 TV-HD-NORDIC Halv.Atta.Hos.Mig.S18E35.SWEDiSH.720p.WEB.h264-SAAB
2017-05-31 19:35:21 TV-X264 F.is.for.Family.S02E02.German.WebRip.x264-AIDA
2017-05-31 19:35:39 GAMES Tokyo.42-HI2U
2017-05-31 19:36:19 TV-X264 F.is.for.Family.S02E03.German.1080p.WebHD.x264-AIDA
2017-05-31 19:37:18 TV-X264 F.is.for.Family.S02E03.German.720p.WebHD.x264-AIDA
2017-05-31 19:38:15 TV-XVID F.is.for.Family.S02E03.German.WebRip.x264-AIDA
2017-05-31 19:39:11 MP3 Kevin_Saunderson_as_E-Dancer-Heavenly_Revisited_EP1-(KMSRR_0021)-WEB-2017-BB8
2017-05-31 19:39:14 TV-X264 F.is.for.Family.S02E04.German.1080p.WebHD.x264-AIDA
2017-05-31 19:40:12 TV-X264 F.is.for.Family.S02E04.German.720p.WebHD.x264-AIDA
2017-05-31 19:41:11 TV-XVID F.is.for.Family.S02E04.German.WebRip.x264-AIDA
2017-05-31 19:41:14 MP3 Kevin_Saunderson_as_E-Dancer-Heavenly_Revisited_EP2-(KMSRR_002)-WEB-2017-BB8
2017-05-31 19:41:59 TV-X264 Greys.Anatomy.S13E19.Unter.der.Oberflaeche.GERMAN.DUBBED.DL.1080p.WebHD.x264-TVP
2017-05-31 19:42:08 TV-X264 F.is.for.Family.S02E05.German.1080p.WebHD.x264-AIDA
2017-05-31 19:42:36 MP3 Kocleo-Choice_EP-(IR_002)-WEB-2017-BB8
2017-05-31 19:43:05 TV-X264 F.is.for.Family.S02E05.German.720p.WebHD.x264-AIDA
2017-05-31 19:43:32 MP3 Oxn_Augn_Trio-Salute_Nazdravje_Und_Prost-WEB-DE-2017-ALPMP3_INT
2017-05-31 19:44:06 TV-XVID F.is.for.Family.S02E05.German.WebRip.x264-AIDA
2017-05-31 19:44:44 XXX Tushy.17.05.31.Blair.Williams.XXX.1080p.MP4-KTR
2017-05-31 19:45:00 TV NCIS.Nueva.Orleans.S03E16.SPANiSH.1080p.HDTV.x264-FCC
2017-05-31 19:45:06 TV-X264 F.is.for.Family.S02E06.German.1080p.WebHD.x264-AIDA
2017-05-31 19:45:33 TV NCIS.Nueva.Orleans.S03E16.SPANiSH.720p.HDTV.x264-FCC
2017-05-31 19:46:01 TV-X264 F.is.for.Family.S02E06.German.720p.WebHD.x264-AIDA
2017-05-31 19:46:06 TV-XVID NCIS.Nueva.Orleans.S03E16.SPANiSH.HDTV.x264-FCC
2017-05-31 19:46:28 TV-X264 Servir.Y.Proteger.S01E27.SPANiSH.720p.HDTV.x264-FCC
2017-05-31 19:46:40 FLAC Magnus_Uggla-Klassiska_Masterverk-(COL_507796_2)-SE-2CD-FLAC-2002-RUiL
2017-05-31 19:46:48 FLAC Metallica-Bay_Area_Thrashers_The_Early_Days-(CRANCH_1)-CD-FLAC-1998-RUiL
2017-05-31 19:46:56 TV-X264 Servir.Y.Proteger.S01E27.SPANiSH.HDTV.x264-FCC
2017-05-31 19:47:00 TV-XVID F.is.for.Family.S02E06.German.WebRip.x264-AIDA
2017-05-31 19:47:02 FLAC Metallica-Beyond_Magnetic-(2794686)-CDEP-FLAC-2012-RUiL
2017-05-31 19:47:58 TV-X264 F.is.for.Family.S02E07.German.1080p.WebHD.x264-AIDA
2017-05-31 19:48:27 TV-X264 House.Of.Cards.2013.S05E07.iNTERNAL.1080p.WEBRip.x264-CONVOY
2017-05-31 19:48:29 FLAC Don_Youth-Love_Is_Such_A_Small_Word-(HEA_023)-7INCH_VINYL-FLAC-1995-YARD
2017-05-31 19:48:34 TV-X264 House.Of.Cards.2013.S05E09.iNTERNAL.1080p.WEBRip.x264-CONVOY
2017-05-31 19:48:48 0DAY Portal.Knights.Update.v1.0.2-CODEX
2017-05-31 19:48:58 TV-X264 F.is.for.Family.S02E07.German.720p.WebHD.x264-AIDA
2017-05-31 19:49:13 FLAC Edi_Fitzroy-Cool_Johnny_Cool-7INCH_VINYL-FLAC-1997-YARD
2017-05-31 19:49:50 MP3 Modd-I_Love-(FIREB_002)-WEB-2017-BB8
2017-05-31 19:50:41 FLAC Fargo_Vice_and_Don_T-Sweetest_Taboo-7INCH_VINYL-FLAC-1996-YARD
2017-05-31 19:50:49 TV-XVID F.is.for.Family.S02E07.German.WebRip.x264-AIDA
2017-05-31 19:50:56 MP3 Rondo_Mo-Overflow_EP-(FAY_007EP)-WEB-2017-BB8
2017-05-31 19:50:59 TV-X264 F.is.for.Family.S02E08.German.1080p.WebHD.x264-AIDA
2017-05-31 19:51:47 FLAC Freddie_Mcgregor-Hide_and_Seek-7INCH_VINYL-FLAC-2000-YARD
2017-05-31 19:51:49 TV-X264 F.is.for.Family.S02E08.German.720p.WebHD.x264-AIDA
2017-05-31 19:52:30 MP3 Soame-Breath-EP-(STRAIGHTAHEAD_013)-WEB-2017-BB8
2017-05-31 19:52:31 FLAC Freddie_Mcgregor-There_Is_A_Reward_For_Me-(VP_45-1002)-7INCH_VINYL-FLAC-2002-YARD
2017-05-31 19:52:48 TV-XVID F.is.for.Family.S02E08.German.WebRip.x264-AIDA
2017-05-31 19:52:55 FLAC General_B-Good_Gal-7INCH_VINYL-FLAC-1996-YARD
2017-05-31 19:53:44 FLAC General_B-How_The_Country_A_Run-7INCH_VINYL-FLAC-2002-YARD
2017-05-31 19:53:45 TV-X264 F.is.for.Family.S02E09.German.1080p.WebHD.x264-AIDA
2017-05-31 19:54:32 MP3 The_Persuader-Autumn_Leaves-(CCRT_005)-WEB-2017-BB8
2017-05-31 19:54:44 TV-X264 F.is.for.Family.S02E09.German.720p.WebHD.x264-AIDA
2017-05-31 19:54:57 FLAC Glen_Ricks-Mood_For_Love-7INCH_VINYL-FLAC-2004-YARD
2017-05-31 19:55:30 FLAC General_B-Tek_Dem_For_A_Distance-7INCH_VINYL-FLAC-199x-YARD
2017-05-31 19:55:36 MP3 Tiefschwarz-Downstairs-(SOUV_078)-WEB-2016-BB8
2017-05-31 19:55:42 TV-XVID F.is.for.Family.S02E09.German.WebRip.x264-AIDA
2017-05-31 19:56:14 FLAC Jimi_Thunder-Only_You_On_My_Mind-(MBX_027)-7INCH_VINYL-FLAC-200x-YARD
2017-05-31 19:56:25 MP3 SOAME-Rolling_EP-(CS_017)-WEB-2016-BB8
2017-05-31 19:56:39 TV-X264 F.is.for.Family.S02E10.German.1080p.WebHD.x264-AIDA
2017-05-31 19:56:41 XXX IKissGirls.17.05.31.Aspen.Rae.Capri.Anderson.And.Elle.Alexandra.Morning.Orgy.XXX.1080p.MP4-KTR
2017-05-31 19:56:45 FLAC Judah-Poor_Man_Airfreshener-7INCH_VINYL-FLAC-1995-YARD
2017-05-31 19:57:01 MP3 SOAME-Backyard-EP-(CS_011)-WEB-2016-BB8
2017-05-31 19:57:17 TV-X264 Sveriges.Yngsta.Masterkock.S04E08.SWEDiSH.720p.WEB.h264-SAAB
2017-05-31 19:57:18 MP3 Soame-Grande-(CAT_82721)-WEB-2016-BB8
2017-05-31 19:57:19 X264 Ghost.World.2001.REMASTERED.720p.BluRay.X264-AMIABLE
2017-05-31 19:57:20 X264 The.LEGO.Batman.Movie.2017.TRUEFRENCH.BDRiP.x264-PRiDEHD
2017-05-31 19:57:38 TV-X264 F.is.for.Family.S02E10.German.720p.WebHD.x264-AIDA
2017-05-31 19:57:56 MP3 SOAME_and_Definition-Been_Like-(EIN_2009)-WEB-2016-BB8
2017-05-31 19:58:37 TV-XVID F.is.for.Family.S02E10.German.WebRip.x264-AIDA
2017-05-31 19:59:36 TV-X264 Nobel.S01E01.German.1080p.WebHD.x264-AIDA
2017-05-31 20:00:07 XXX Tushy.17.05.31.Blair.Williams.XXX.2160p.MP4-KTR
2017-05-31 20:00:08 MP3 Max_Cooper_and_Tom_Hodge-Fragmented_Self-(FLDS_004)-WEB-2017-BB8
2017-05-31 20:00:22 X264 Ghost.World.2001.REMASTERED.1080p.BluRay.X264-AMIABLE
2017-05-31 20:00:33 TV-X264 Nobel.S01E01.German.720p.WebHD.x264-AIDA
2017-05-31 20:01:31 TV-X264 Nobel.S01E01.German.WebRip.x264-AIDA
2017-05-31 20:01:59 MP3 Rondo_Mo-Corners__Something_We_Can_Change-(RR_001)-WEB-2016-BB8
2017-05-31 20:02:30 TV-X264 Nobel.S01E02.German.1080p.WebHD.x264-AIDA
2017-05-31 20:03:01 MP3 Nico_Stojan_feat_Jaw-Blue_Hour-The_Remixes-(URSL_025)-WEB-2016-BB8
2017-05-31 20:03:28 TV-X264 Nobel.S01E02.German.720p.WebHD.x264-AIDA
2017-05-31 20:03:53 TV-X264 F.is.for.Family.S02E01.MULTi.1080p.WEBRip.x264-BRiNK
2017-05-31 20:04:02 MP3 Kevin_Saunderson_as_E-Dancer-One_Nation-(KMS_254)-WEB-2016-BB8
2017-05-31 20:04:13 TV-X264 F.is.for.Family.S02E02.MULTi.1080p.WEBRip.x264-BRiNK
2017-05-31 20:04:25 TV-XVID Nobel.S01E02.German.WebRip.x264-AIDA
2017-05-31 20:04:33 TV-X264 F.is.for.Family.S02E03.MULTi.1080p.WEBRip.x264-BRiNK
2017-05-31 20:04:52 TV-X264 F.is.for.Family.S02E04.MULTi.1080p.WEBRip.x264-BRiNK
2017-05-31 20:05:14 TV-X264 F.is.for.Family.S02E05.MULTi.1080p.WEBRip.x264-BRiNK
2017-05-31 20:05:24 TV-X264 Nobel.S01E03.German.1080p.WebHD.x264-AIDA
2017-05-31 20:05:34 TV-X264 F.is.for.Family.S02E06.MULTi.1080p.WEBRip.x264-BRiNK
2017-05-31 20:06:01 TV-X264 F.is.for.Family.S02E07.MULTi.1080p.WEBRip.x264-BRiNK
2017-05-31 20:06:14 MP3 Anchorsong-Expo-(506020_5156952)-WEB-2016-BB8
2017-05-31 20:06:19 TV-X264 F.is.for.Family.S02E08.MULTi.1080p.WEBRip.x264-BRiNK
2017-05-31 20:06:22 TV-X264 Nobel.S01E03.German.720p.WebHD.x264-AIDA
2017-05-31 20:06:25 MP3 Anchorsong-Butterflies-(TRUDD_189)-WEB-2016-BB8
2017-05-31 20:06:39 TV-X264 F.is.for.Family.S02E09.MULTi.1080p.WEBRip.x264-BRiNK
2017-05-31 20:07:02 TV-X264 F.is.for.Family.S02E10.FiNAL.MULTi.1080p.WEBRip.x264-BRiNK
2017-05-31 20:07:19 TV-XVID Nobel.S01E03.German.WebRip.x264-AIDA
2017-05-31 20:08:17 TV-X264 Nobel.S01E04.German.1080p.WebHD.x264-AIDA
2017-05-31 20:09:16 TV-X264 Nobel.S01E04.German.720p.WebHD.x264-AIDA
2017-05-31 20:10:13 TV-XVID Nobel.S01E04.German.WebRip.x264-AIDA
2017-05-31 20:11:12 TV-X264 Nobel.S01E05.German.1080p.WebHD.x264-AIDA
2017-05-31 20:11:29 TV-XVID Truth.And.Iliza.S01E05.iNTERNAL.HDTV.x264-YesTV
2017-05-31 20:11:31 TV-HD-X264 Truth.And.Iliza.S01E05.iNTERNAL.720p.HDTV.x264-YesTV
2017-05-31 20:12:09 TV-X264 Nobel.S01E05.German.720p.WebHD.x264-AIDA
2017-05-31 20:12:45 XXX AllOver30.com_17.05.31.Tracy.Rose.XXX.iMAGESET-YAPG
2017-05-31 20:13:08 TV-XVID Nobel.S01E05.German.WebRip.x264-AIDA
2017-05-31 20:13:21 TV-720P Halv.Atta.Hos.Mig.S18E35.SWEDiSH.720p.HDTV.x264-KAFFEREP
2017-05-31 20:14:03 XXX AllOver30.com_17.05.31.Sage.Quest.XXX.iMAGESET-YAPG
2017-05-31 20:14:07 TV-X264 Nobel.S01E06.German.1080p.WebHD.x264-AIDA
2017-05-31 20:15:04 TV-X264 Nobel.S01E06.German.720p.WebHD.x264-AIDA
2017-05-31 20:15:08 TV-X264 The.Walking.Dead.S07E11.FRENCH.1080p.HDTV.x264-DEAL
2017-05-31 20:16:03 TV-XVID Nobel.S01E06.German.WebRip.x264-AIDA
2017-05-31 20:16:10 TV-X264 The.Walking.Dead.S07E12.FRENCH.1080p.HDTV.x264-DEAL
2017-05-31 20:16:33 X264 The.Dark.Below.2016.720p.BluRay.x264-RUSTED
2017-05-31 20:17:01 TV-X264 Nobel.S01E07.German.1080p.WebHD.x264-AIDA
2017-05-31 20:17:15 XXX AllOver30.com_17.05.31.Jamie.Ray.XXX.iMAGESET-YAPG
2017-05-31 20:17:59 TV-X264 Nobel.S01E07.German.720p.WebHD.x264-AIDA
2017-05-31 20:18:57 TV-XVID Nobel.S01E07.German.WebRip.x264-AIDA
2017-05-31 20:19:20 IMGSET AllOver30.com_17.05.31.Jazmin.Coxx.XXX.iMAGESET-YAPG
2017-05-31 20:19:55 TV-X264 Nobel.S01E08.German.1080p.WebHD.x264-AIDA
2017-05-31 20:20:48 GAMES Rocketbirds.2.Mind.Control-SKIDROW
2017-05-31 20:20:55 TV-X264 Nobel.S01E08.German.720p.WebHD.x264-AIDA
2017-05-31 20:20:59 MP3 20_Years-Trance_Nation-(U544)-WEB-2017-ENSLAVE
2017-05-31 20:21:16 MP3 Klaus_Dead-Repeat_Me-(KD001)-WEB-2017-ENSLAVE
2017-05-31 20:21:31 MP3 Mito-Kalambur_House_Collection_Vol_72-(KCD17093)-WEB-2017-ENSLAVE
2017-05-31 20:21:45 MP3 VA-Skipping_Techno_Files-WEB-2017-ENSLAVE
2017-05-31 20:21:52 TV-XVID Nobel.S01E08.German.WebRip.x264-AIDA
2017-05-31 20:22:01 MP3 VA-Suanda_Music_Radio_Top_20_(May_2017)-(SNDRM037)-WEB-2017-ENSLAVE
2017-05-31 20:22:17 MP3 VA-Tableaux_Parisiens-SEIZE-(FDMR016)-WEB-2017-ENSLAVE
2017-05-31 20:23:50 TV-HD-X264 Lucifer.S02E18.1080p.WEBRip.x264-MOROSE
2017-05-31 20:25:02 XXX PublicPickUps.com_17.05.31.Lennox.Luxe.Busty.Innocent.Fucks.For.Cash.XXX.iMAGESET-YAPG
2017-05-31 20:26:16 XXX DigitalPlayground.com_17.05.31.Phoenix.Marie.Whor.Godess.Of.Thunder.A.DP.XXX.Parody.Part.1.XXX.iMAGESET-YAPG
2017-05-31 20:27:14 XXX BigNaturals.com_17.05.31.Anissa.Kate.Big.Tits.Maid.Service.XXX.iMAGESET-YAPG
2017-05-31 20:27:16 X264 The.Dark.Below.2016.BDRip.x264-RUSTED
2017-05-31 20:28:15 XXX MikesApartment.com_17.05.31.Vera.Wonder.Wonderful.Vera.XXX.iMAGESET-YAPG
2017-05-31 20:31:25 GAMES Iron.Wings-SKIDROW
2017-05-31 20:32:28 XXX BangBus.com_17.05.31.Evelin.Stone.Naughty.Fun.In.Miami.XXX.iMAGESET-YAPG
2017-05-31 20:33:09 EBOOK Suzanne.Collins.Naljamangud.2013.ESTONiAN.RETAiL.ePUB.eBOOK-KAMA
2017-05-31 20:34:03 APPS Joshua_Redman_Quartet-Spirit_Of_The_Moment_Live_At_The_Village_Vanguard-2CD-1995-GCP_INT
2017-05-31 20:34:15 XXX Club.Filly.XXX.DVDRip.x264-Pr0nStarS
2017-05-31 20:35:04 XXX HotBush.com_15.07.11.Kelly.Kitty.Kellys.Diamond.XXX.iMAGESET-YAPG
2017-05-31 20:36:33 X264 I.Am.Heath.Ledger.2017.DOCU.720p.BluRay.x264-PSYCHD
2017-05-31 20:38:09 XXX HotBush.com_15.08.22.Tali.Dova.Touched.By.Tali.XXX.iMAGESET-YAPG
2017-05-31 20:38:56 GAMES Rezrog.RIP.MULTI9-SiMPLEX
2017-05-31 20:39:32 MP3 Naughty_By_Nature-Its_On-(US_Retail)-CDM-1993-GCP_INT
2017-05-31 20:40:04 MP3 Instinct-An_Auroral_Gathering_of_Skulls-2016-GRAVEWISH
2017-05-31 20:40:27 MP3 Joe_Jackson-Body_and_Soul-LP-1984-GCP_INT
2017-05-31 20:40:56 XXX HotBush.com_15.09.12.Samantha.Bentley.Frilly.Bush.XXX.iMAGESET-YAPG
2017-05-31 20:41:08 MP3 Liquid_Graveyard-By_Nature_So_Perverse-2016-GRAVEWISH
2017-05-31 20:42:12 MP3 Novembers_Doom-Hamartia-2017-GRAVEWISH
2017-05-31 20:42:20 MP3 Andrew_Felo-Jazzistic_Sounds-(DOR0100)-WEB-2017-ENSLAVE
2017-05-31 20:42:36 MP3 Andy_Carvajal-Shaman-(MT154A)-WEB-2017-ENSLAVE
2017-05-31 20:42:51 MP3 DJ_Skull-Rythmic_EP-(MTH003)-WEB-2017-ENSLAVE
2017-05-31 20:43:07 MP3 Der_Reinhalter-Refuse-(DRE032)-WEB-2017-ENSLAVE
2017-05-31 20:43:14 TV-HD-X264 Formula1.2017.Monaco.Grand.Prix.On.Board.FRENCH.720p.HDTV.x264-TiTUS
2017-05-31 20:43:22 MP3 Drumloch-Decapitor-(SWR71)-WEB-2017-ENSLAVE
2017-05-31 20:43:39 MP3 Killawatt-47010-(47010)-WEB-2017-ENSLAVE
2017-05-31 20:43:50 XXX-IMGSET HotBush.com_15.10.03.Mandy.Sky.Mandys.Bush.XXX.iMAGESET-YAPG
2017-05-31 20:43:54 MP3 Kolja_Gerstenberg-Weilburg_Crime_Vol_I-(S4AW012)-WEB-2017-ENSLAVE
2017-05-31 20:44:09 MP3 LPP-Madness-(INAP02)-WEB-2017-ENSLAVE
2017-05-31 20:44:27 MP3 Matrixxman-Deep_Mind-(MANHIGH003)-WEB-2017-ENSLAVE
2017-05-31 20:44:40 MP3 ModeFree-Acid_Flavor_EP-WEB-2017-ENSLAVE
2017-05-31 20:44:55 TV-SD-X264 Formula1.2017.Monaco.Grand.Prix.On.Board.FRENCH.HDTV.x264-TiTUS
2017-05-31 20:44:56 MP3 Moris_Blak-Dead_Summer-(BMP017)-WEB-2017-ENSLAVE
2017-05-31 20:45:11 MP3 REMED-Remed-WEB-2017-ENSLAVE
2017-05-31 20:45:24 TV-X264 Sveriges.Yngsta.Masterkock.S04E08.SWEDiSH.iNTERNAL.720p.WEB.h264-GORE
2017-05-31 20:45:27 MP3 Relapso-Monument-(K009D)-WEB-2017-ENSLAVE
2017-05-31 20:45:44 MP3 Tomdj-Code-63-WEB-2017-ENSLAVE
2017-05-31 20:45:59 MP3 Tropar_Flot-Andromeda_Nebula-(ELEK323)-WEB-2017-ENSLAVE
2017-05-31 20:46:14 MP3 VA-Aciiieeed_No_10-(CMQD076)-WEB-2017-ENSLAVE
2017-05-31 20:46:29 MP3 VA-Aciiieeed_No_8-(CMQD074)-WEB-2017-ENSLAVE
2017-05-31 20:46:46 MP3 VA-Aciiieeed_No_9-(CMQD075)-WEB-2017-ENSLAVE
2017-05-31 20:47:23 XXX HotBush.com_15.10.24.Jaye.Summers.Pussy.Cushion.XXX.iMAGESET-YAPG
2017-05-31 20:50:37 XXX HotBush.com_15.11.21.Cosima.Knight.Bush.Please.XXX.iMAGESET-YAPG
2017-05-31 20:50:57 TV-X264 Prison.Break.S05E09.1080p.HDTV.x264-CRAVERS
2017-05-31 20:51:18 0DAY Rezrog.MacOSX-HI2U
2017-05-31 20:53:06 XXX HotBush.com_15.12.05.Sadie.Blair.Honey.Pot.XXX.iMAGESET-YAPG
2017-05-31 20:54:35 TV-X264 Hell.on.Wheels.S01E01.Die.Gleisbettkolonne.German.DL.1080p.BluRay.x264.iNTERNAL-OHD
2017-05-31 20:55:02 TV-HD-NORDIC Toppmaklarna.S02E08.SWEDiSH.1080p.WEB.h264-SAAB
2017-05-31 20:55:30 TV-X264 The.Royal.S08E01.WEB.x264-TASTETV
2017-05-31 20:56:39 X264 The.Royal.S08E02.WEB.x264-TASTETV
2017-05-31 20:56:41 TV-HD F.is.for.Family.S02E01.1080p.WEBRip.x264-MOROSE
2017-05-31 20:56:57 MP3 Luxury_Stranger-Nothing_Holy-CDR-DIRFIX-2012-D2H
2017-05-31 20:57:34 TV-X264 Hell.on.Wheels.S01E02.Unmoralische.Mathematik.German.DL.1080p.BluRay.x264.iNTERNAL-OHD
2017-05-31 20:57:44 TV-X264 The.Royal.S08E03.WEB.x264-TASTETV
2017-05-31 20:57:58 TV-HD-NORDIC Toppmaklarna.S02E08.SWEDiSH.720p.WEB.h264-SAAB
2017-05-31 20:58:17 XXX-IMAGESETS HotBush.com_16.01.02.Mea.Melone.Deep.In.Mea.XXX.iMAGESET-YAPG
2017-05-31 20:58:58 TV-SD The.Royal.S08E04.WEB.x264-TASTETV
2017-05-31 20:59:15 X264-HD Konfuzius.2010.German.DL.1080p.BluRay.AVC-FYI
2017-05-31 20:59:40 TV-X264 F.is.for.Family.S02E01.FRENCH.720p.WEBRip.x264-AMB3R
2017-05-31 20:59:54 TV-XVID The.Royal.S08E05.WEB.x264-TASTETV
2017-05-31 21:00:03 TV-X264 F.is.for.Family.S02E02.FRENCH.720p.WEBRip.x264-AMB3R
2017-05-31 21:00:04 XXX HotBush.com_16.01.16.Kaylee.Jewel.Puffy.Pussy.XXX.iMAGESET-YAPG
2017-05-31 21:00:24 TV-X264 F.is.for.Family.S02E03.FRENCH.720p.WEBRip.x264-AMB3R
2017-05-31 21:00:33 TV-X264 Hell.on.Wheels.S01E03.Eine.neue.Freiheit.German.DL.1080p.BluRay.x264.iNTERNAL-OHD
2017-05-31 21:00:51 TV-HD-X264 F.is.for.Family.S02E04.FRENCH.720p.WEBRip.x264-AMB3R
2017-05-31 21:00:58 TV-XVID The.Royal.S08E06.WEB.x264-TASTETV
2017-05-31 21:01:03 TV-X264 F.is.for.Family.S02E05.FRENCH.720p.WEBRip.x264-AMB3R
2017-05-31 21:01:22 TV-X264 F.is.for.Family.S02E06.FRENCH.720p.WEBRip.x264-AMB3R
2017-05-31 21:01:49 TV-HD-FR F.is.for.Family.S02E07.FRENCH.720p.WEBRip.x264-AMB3R
2017-05-31 21:02:01 TV-X264 F.is.for.Family.S02E08.FRENCH.720p.WEBRip.x264-AMB3R
2017-05-31 21:02:06 TV-X264 The.Royal.S08E07.WEB.x264-TASTETV
2017-05-31 21:02:16 MP3 112-Only_You_(Remix)-CDM-1996-GCP_INT
2017-05-31 21:02:48 XXX HotBush.com_16.02.13.Vienna.Reed.Smooth.Entrance.XXX.iMAGESET-YAPG
2017-05-31 21:03:12 TV-X264 The.Royal.S08E08.WEB.x264-TASTETV
2017-05-31 21:03:32 TV-X264 Hell.on.Wheels.S01E04.Geheimnisse.German.DL.1080p.BluRay.x264.iNTERNAL-OHD
2017-05-31 21:03:36 MP3 Faith_Evans-Never_Gonna_Let_You_Go-CDS-1999-GCP_INT
2017-05-31 21:03:48 X264 Shine.Der.Weg.ins.Licht.1996.German.BDRip.x264-LizardSquad
2017-05-31 21:04:03 X264 Shine.Der.Weg.ins.Licht.1996.German.DL.720p.BluRay.x264-LizardSquad
2017-05-31 21:04:16 MP3 Jan_Lundgren_Trio_and_Herb_Geller-Stockholm_Get-Together-1994-GCP_INT
2017-05-31 21:04:28 BLURAY Shine.1996.COMPLETE.BLURAY-UNTOUCHED
2017-05-31 21:04:38 TV-X264 The.Royal.S08E09.WEB.x264-TASTETV
2017-05-31 21:05:22 MP3 R._Kelly-Thoia_Thoing_Remixes-VLS-2003-GCP_INT
2017-05-31 21:05:24 XXX HotBush.com_16.04.23.Caroline.Ray.Carolines.Bush.XXX.iMAGESET-YAPG
2017-05-31 21:05:56 TV-XVID The.Royal.S08E10.WEB.x264-TASTETV
2017-05-31 21:06:29 TV-X264 Hell.on.Wheels.S01E05.Brot.und.Spiele.German.DL.1080p.BluRay.x264.iNTERNAL-OHD
2017-05-31 21:06:43 BLURAY Everglades.3D.2012.COMPLETE.BLURAY-UNTOUCHED
2017-05-31 21:07:17 TV-X264 The.Royal.S08E11.WEB.x264-TASTETV
2017-05-31 21:07:44 X264 Shine.Der.Weg.ins.Licht.1996.German.Remastered.BDRip.x264.DiRFiX-LizardSquad
2017-05-31 21:08:32 TV-XVID The.Royal.S08E12.WEB.x264-TASTETV
2017-05-31 21:08:36 XXX HardTied.17.05.31.Iona.Grace.XXX.720p.MP4-KTR
2017-05-31 21:09:28 TV-X264 Hell.on.Wheels.S01E06.Schwierige.Verhandlungen.German.DL.1080p.BluRay.x264.iNTERNAL-OHD
2017-05-31 21:11:50 MP3 Sun_Glitters-It_Will_Be_Forever-WEB-2017-SOUNDz
2017-05-31 21:11:51 XXX HotBush.com_16.06.18.Darling.Deicide.Beautiful.Darling.XXX.iMAGESET-YAPG
2017-05-31 21:12:26 TV-X264 Hell.on.Wheels.S01E07.Enthuellungen.German.DL.1080p.BluRay.x264.iNTERNAL-OHD
2017-05-31 21:14:01 TV-X264 NCIS.S14E17.FRENCH.720p.HDTV.x264-SH0W
2017-05-31 21:15:24 TV-X264 Hell.on.Wheels.S01E08.Entgleist.German.DL.1080p.BluRay.x264.iNTERNAL-OHD
2017-05-31 21:15:27 TV-X264 Sveriges.Yngsta.Masterkock.S04E08.SWEDiSH.720p.HDTV.x264-KAFFEREP
2017-05-31 21:15:59 X264 The.Dark.Below.2016.German.DL.1080p.Bluray.AVC-GUARDiANS
2017-05-31 21:16:52 MP3 Aaron_Carter-Already_Falling-WEB-2017-BPM
2017-05-31 21:17:15 MP3 Alvin_Risk-Last_Forever-WEB-2017-BPM
2017-05-31 21:17:37 MP3 Calippo-Enormous_Tunes-Ibiza_Nights_2017_(Mixed_by_Calippo)-WEB-2017-BPM
2017-05-31 21:18:00 MP3 De_FROiZ-The_Siege-WEB-2017-BPM
2017-05-31 21:18:23 TV-HDRIP Hell.on.Wheels.S01E09.Vergebung.German.DL.1080p.BluRay.x264.iNTERNAL-OHD
2017-05-31 21:18:24 MP3 Full_Intention-Keys_To_My_House-WEB-2017-BPM
2017-05-31 21:18:51 MP3 Funkin_Matt-Aurora-WEB-2017-BPM
2017-05-31 21:19:12 MP3 Funkstar_De_Luxe_feat_Jo_Hadler-Sweet_Sweet_Love-WEB-2017-BPM
2017-05-31 21:19:27 XXX MikeInBrazil.com_15.06.14.Melissa.Fire.Beach.Wonder.XXX.iMAGESET-YAPG
2017-05-31 21:19:34 MP3 Jason_Rivas_and_Creeperfunk-Dry_Elephant-WEB-2017-BPM
2017-05-31 21:20:01 MP3 Jason_Rivas_and_Hot_Pool-Lasolea_and_Vacileo-EP-WEB-2017-BPM
2017-05-31 21:20:32 MP3 Pep_and_Rash-Breakdown-WEB-2017-BPM
2017-05-31 21:20:54 MP3 Remady-Give_Me_Love-WEB-2017-BPM
2017-05-31 21:21:19 MP3 Softmal_Rey_Vercosa-How_Can_I_Help-WEB-2017-BPM
2017-05-31 21:21:22 TV-X264 Hell.on.Wheels.S01E10.Der.Gott.des.Chaos.German.DL.1080p.BluRay.x264.iNTERNAL-OHD
2017-05-31 21:21:41 MP3 Stereo_Express-Dro_Town-WEB-2017-BPM
2017-05-31 21:22:04 APPS Sydney_Blu-Hella_Dope-WEB-2017-BPM
2017-05-31 21:22:28 MP3 Terry_Lex_X_Matt_Caseli-Bass_Thrill_EP-WEB-2017-BPM
2017-05-31 21:22:40 MP3 Juan_Ruiz_-_Beat_Bangs-(DNZF_303)-WEB-2017-ZzZz
2017-05-31 21:24:14 FIX Harvest_Moon_Skytree_Village_EUR_MULTi4_3DS-PUSSYCAT
2017-05-31 21:24:21 TV-HD-DE Hell.on.Wheels.S03E01.Unter.Woelfen.German.DL.1080p.BluRay.x264.iNTERNAL-OHD
2017-05-31 21:24:21 TV-HD-X264 Formula1.2017.Monaco.Grand.Prix.On.Board.FRENCH.1080p.HDTV.x264-TiTUS
2017-05-31 21:24:55 X264 Table.19.2017.FRENCH.720p.BluRay.x264-VENUE
2017-05-31 21:25:42 FLAC Junior_Demus-100_Lbs_A_Cess-(LSE-1004)-7INCH_VINYL-FLAC-2000-YARD
2017-05-31 21:27:06 XXX MikeInBrazil.com_15.06.21.Vanessa.Prado.Slippery.Vanessa.XXX.iMAGESET-YAPG
2017-05-31 21:27:12 TV-XVID Desperate.Housewives.S02E11.iNTERNAL.HDTV.x264-TURBO
2017-05-31 21:27:14 TV-X264 Desperate.Housewives.S02E11.iNTERNAL.720p.HDTV.x264-TURBO
2017-05-31 21:27:17 TV-X264 Hell.on.Wheels.S03E02.Die.Mormonen.German.DL.1080p.BluRay.x264.iNTERNAL-OHD
2017-05-31 21:27:38 X264 Table.19.2017.FRENCH.BDRip.x264-VENUE
2017-05-31 21:30:16 TV-BLURAY Hell.on.Wheels.S03E03.Der.Rinderkrieg.German.DL.1080p.BluRay.x264.iNTERNAL-OHD
2017-05-31 21:30:19 X264 Table.19.2017.MULTi.1080p.BluRay.x264-VENUE
2017-05-31 21:33:15 TV-X264 Hell.on.Wheels.S03E04.Jimmy.Two.Squaws.German.DL.1080p.BluRay.x264.iNTERNAL-OHD
2017-05-31 21:33:23 X264 The.Dark.Below.2016.German.DL.1080p.BluRay.x264.PROPER-ENCOUNTERS
2017-05-31 21:33:55 XXX-IMGSET MikeInBrazil.com_15.06.28.Perla.Bombom.Sweet.Bombom.XXX.iMAGESET-YAPG
2017-05-31 21:34:41 TV-X264 F.is.for.Family.S02E03.1080p.WEBRip.x264-CONVOY
2017-05-31 21:34:47 TV-HD-X264 F.is.for.Family.S02E04.1080p.WEBRip.x264-CONVOY
2017-05-31 21:34:52 TV-X264 F.is.for.Family.S02E05.1080p.WEBRip.x264-CONVOY
2017-05-31 21:35:01 TV-X264 F.is.for.Family.S02E07.1080p.WEBRip.x264-CONVOY
2017-05-31 21:35:20 TV-HD-X264 F.is.for.Family.S02E06.1080p.WEBRip.x264-CONVOY
2017-05-31 21:35:25 TV-X264 F.is.for.Family.S02E09.1080p.WEBRip.x264-CONVOY
2017-05-31 21:36:08 TV-XVID NCIS.S14E17.FRENCH.HDTV.x264-AMB3R
2017-05-31 21:36:13 TV-X264 Hell.on.Wheels.S03E05.Auf.der.Suche.German.DL.1080p.BluRay.x264.iNTERNAL-OHD
2017-05-31 21:36:31 TV-X264 F.is.for.Family.S02E09.FRENCH.720p.WEBRip.x264-AMB3R
2017-05-31 21:38:03 TV-X264 Hawaii.Five.0.S07E01.Bereit.fuer.ein.Spiel.GERMAN.DUBBED.WebHDRiP.x264-SOF
2017-05-31 21:39:11 TV-X264 Hell.on.Wheels.S03E06.Ein.Maultier.weniger.German.DL.1080p.BluRay.x264.iNTERNAL-OHD
2017-05-31 21:39:27 TV-X264 Hawaii.Five.0.S07E01.Bereit.fuer.ein.Spiel.GERMAN.DUBBED.DL.720p.WebHD.h264-euHD
2017-05-31 21:40:12 TV-HD F.is.for.Family.S02E08.1080p.WEBRip.x264-CONVOY
2017-05-31 21:40:14 TV-HD F.is.for.Family.S02E10.1080p.WEBRip.x264-CONVOY
2017-05-31 21:40:15 TV-X264 F.is.for.Family.S02E02.1080p.WEBRip.x264-CONVOY
2017-05-31 21:41:00 MP3 Tombs-November_Wolves-SINGLE-WEB-2017-ENTiTLED
2017-05-31 21:41:02 XXX MikeInBrazil.com_15.07.05.Rebecca.Rios.Stretching.Rebecca.XXX.iMAGESET-YAPG
2017-05-31 21:42:09 TV-X264 Hell.on.Wheels.S03E07.Giftiges.Wasser.German.DL.1080p.BluRay.x264.iNTERNAL-OHD
2017-05-31 21:43:47 EBOOK Jules.Verne.Kapten.Hatterase.Seiklused.2010.ESTONiAN.RETAiL.ePUB.eBOOK-KAMA
2017-05-31 21:45:08 TV-X264 Hell.on.Wheels.S03E08.Es.geschah.in.Boston.German.DL.1080p.BluRay.x264.iNTERNAL-OHD
2017-05-31 21:45:50 EBOOK Jules.Verne.Saladuslik.Saar.2010.ESTONiAN.RETAiL.ePUB.eBOOK-KAMA
2017-05-31 21:46:05 TV-X264 F.is.for.Family.S02E01.iNTERNAL.1080p.WEBRip.x264-CONVOY
2017-05-31 21:46:25 X264 Suck.Biss.zum.Erfolg.2009.German.DL.1080p.BluRay.VC1-AVCiHD
2017-05-31 21:46:31 EBOOK Jules.Verne.Kapten.Granti.Lapsed.2010.ESTONiAN.RETAiL.ePUB.eBOOK-KAMA
2017-05-31 21:46:57 EBOOK Jules.Verne.Viieteistkumneaastane.Kapten.2010.ESTONiAN.RETAiL.ePUB.eBOOK-KAMA
2017-05-31 21:47:21 XXX MikeInBrazil.com_15.07.12.Nayra.Mendes.Sweet.Ass.XXX.iMAGESET-YAPG
2017-05-31 21:47:36 TV-X264 Hawaii.Five.0.S07E01.Bereit.fuer.ein.Spiel.GERMAN.DUBBED.DL.1080p.WebHD.x264-TVP
2017-05-31 21:48:06 TV-X264 Hell.on.Wheels.S03E09.Schuld.und.Suehne.German.DL.1080p.BluRay.x264.iNTERNAL-OHD
2017-05-31 21:49:21 MP3 VA-Singles-2CD-OST-Remastered-2017-KLV
2017-05-31 21:50:47 X264 The.Dark.Below.2016.German.DL.1080p.BluRay.x264.RESPONSE-ViDEOWELT
2017-05-31 21:50:50 FLAC Junior_Tucker-It_Wasnt_Me-(PH_003)-7INCH_VINYL-FLAC-1994-YARD
2017-05-31 21:51:05 X264 Hell.on.Wheels.S03E10.Eingespannt.German.DL.1080p.BluRay.x264.iNTERNAL-OHD
2017-05-31 21:52:00 FLAC K-Oss-Want_You-(NW_23001)-7INCH_VINYL-FLAC-200x-YARD
2017-05-31 21:52:09 X264 I.Am.Heath.Ledger.2017.DOCU.1080p.BluRay.x264-PSYCHD
2017-05-31 21:52:37 X264 Happy.Feet.2.2011.PLDUB.DUAL.720p.PROPER.BluRay.x264-FLAME
2017-05-31 21:52:45 PRE Tokyo.42.RIP.MULTI9-SiMPLEX
2017-05-31 21:53:22 MP3 Zenker_Brothers-The_Schyren-(IT033)-WEB-2017-AGITB
2017-05-31 21:53:46 XXX HardcoreGangbang.17.05.31.Nikki.Hearts.XXX.720p.MP4-KTR
2017-05-31 21:53:48 X264 I.Tawt.I.Taw.a.Puddy.Tat.2011.BDRip.x264-FLAME
2017-05-31 21:54:29 X264-HD I.Tawt.I.Taw.a.Puddy.Tat.2011.720p.BluRay.x264-FLAME
2017-05-31 21:54:57 X264 I.Tawt.I.Taw.a.Puddy.Tat.2011.1080p.BluRay.x264-FLAME
2017-05-31 21:55:04 XXX MikeInBrazil.com_15.07.19.Flavia.Oliveira.Hard.Bang.XXX.iMAGESET-YAPG
2017-05-31 21:56:24 TV-X264 Kenka.Banchou.Otome.Girl.Beats.Boys.E08.SUBFRENCH.1080p.WEBRip.X264-SLEEPINGFOREST
2017-05-31 21:56:26 X264 Shine.Der.Weg.ins.Licht.1996.German.DL.1080p.BluRay.x264-LizardSquad
2017-05-31 21:56:32 MP3 The_Jam-Setting_Sons_(Super_Deluxe_Edition)-BONUS_TRACKS-WEB-2014-ENTiTLED
2017-05-31 21:56:41 TV-X264 Love.Kome.E09.SUBFRENCH.1080p.WEBRip.X264-SLEEPINGFOREST
2017-05-31 21:56:53 TV-X264 Makeruna.Aku.no.Gundan.E09.SUBFRENCH.1080p.WEBRip.X264-SLEEPINGFOREST
2017-05-31 21:56:55 MP3 The_Jam-The_Gift_(Super_Deluxe_Edition)-BONUS_TRACKS-WEB-2014-ENTiTLED
2017-05-31 21:57:06 TV-X264 Oushitsu.Kyoushi.Heine.E09.SUBFRENCH.1080p.WEBRip.X264-SLEEPINGFOREST
2017-05-31 21:57:18 TV-HD-X264 Room.Mate.E08.SUBFRENCH.1080p.WEBRip.X264-SLEEPINGFOREST
2017-05-31 21:57:33 TV-X264 Kenka.Banchou.Otome.Girl.Beats.Boys.E08.SUBFRENCH.720p.WEBRip.X264-SLEEPINGFOREST
2017-05-31 21:57:43 TV-X264 Love.Kome.E09.SUBFRENCH.720p.WEBRip.X264-SLEEPINGFOREST
2017-05-31 21:57:54 TV-X264 Makeruna.Aku.no.Gundan.E09.SUBFRENCH.720p.WEBRip.X264-SLEEPINGFOREST
2017-05-31 21:57:56 TV-X264 F.is.for.Family.S02E10.FiNAL.FRENCH.720p.WEBRip.x264-AMB3R
2017-05-31 21:58:11 MP3 Lee_Dorsey-Holy_Cow_The_Very_Best_Of_Lee_Dorsey-(Remastered)-2005-GCP
2017-05-31 21:58:14 TV-X264 Room.Mate.E08.SUBFRENCH.720p.WEBRip.X264-SLEEPINGFOREST
2017-05-31 21:58:20 TV-HD-FR Oushitsu.Kyoushi.Heine.E09.SUBFRENCH.720p.WEBRip.X264-SLEEPINGFOREST
2017-05-31 21:58:50 TV-X264 NCIS.S14E18.FRENCH.720p.HDTV.x264-SH0W
2017-05-31 22:00:53 XXX MikeInBrazil.com_15.08.02.Cindy.Blueberry.Soaking.Wet.XXX.iMAGESET-YAPG
2017-05-31 22:01:10 TV-X264 Britains.Got.Talent.S11E12.720p.HDTV.x264-FTP
2017-05-31 22:01:49 X264 Shine.Der.Weg.ins.Licht.1996.German.DL.1080p.BluRay.AVC-AVCiHD
2017-05-31 22:01:51 TV-X264 Stoffer.I.Sommerlandet.S01E06.DANiSH.720p.HDTV.x264-DiViSiON
2017-05-31 22:03:02 TV-XVID The.Thirteen.Factors.That.Saved.Apollo.13.S01E02.HDTV.x264-PLUTONiUM
2017-05-31 22:04:48 TV-HD-NORDIC Toppmaklarna.S02E08.SWEDiSH.720p.HDTV.x264-INSTAGRAM
2017-05-31 22:07:01 XXX MikeInBrazil.com_15.08.09.Carol.Paixao.Cumming.Carol.XXX.iMAGESET-YAPG
2017-05-31 22:07:22 X264 The.Dark.Below.2016.German.DL.1080p.BluRay.x264.PROPER.PROOFFiX-ENCOUNTERS
2017-05-31 22:08:47 TV-XVID NCIS.S14E18.FRENCH.HDTV.x264-AMB3R
2017-05-31 22:08:48 MP3 Aggrovators-The_Dub_Express_Vol_10_Platinum_Edition-WEB-2012-SOUNDz
2017-05-31 22:09:16 MP3 Aggrovators-The_Dub_Express_Vol_11_Platinum_Edition-WEB-2012-SOUNDz
2017-05-31 22:09:39 MP3 Aggrovators-The_Dub_Express_Vol_12_Platinum_Edition-WEB-2012-SOUNDz
2017-05-31 22:10:04 MP3 Aggrovators-The_Dub_Express_Vol_13_Platinum_Edition-WEB-2012-SOUNDz
2017-05-31 22:10:26 MP3 Aggrovators-The_Dub_Express_Vol_14_Platinum_Edition-WEB-2012-SOUNDz
2017-05-31 22:10:27 TV-X264 Pilvede.All.S14E14.720p.EE.HDTV.x264-TvD
2017-05-31 22:10:57 MP3 Jackie_Mittoo-The_Dub_Express_Vol_4_Platinum_Edition-WEB-2012-SOUNDz
2017-05-31 22:11:21 MP3 Jackie_Mittoo-The_Dub_Express_Vol_5_Platinum_Edition-WEB-2012-SOUNDz
2017-05-31 22:11:44 MP3 King_Tubby-A_Sweeten_Dub-WEB-2002-SOUNDz
2017-05-31 22:12:08 MP3 King_Tubby-Cornell_Campbell_Meets_Leroy_Smart_At_Dub_Station-WEB-2011-SOUNDz
2017-05-31 22:12:31 MP3 King_Tubby-Dancehall_Style_Dub_(Deluxe_Edition)-BONUS_TRACKS-WEB-2011-SOUNDz
2017-05-31 22:12:51 TV-X264 Modus.S01E07.SPANiSH.1080p.HDTV.x264-FERiCE
2017-05-31 22:12:54 MP3 King_Tubby-Horace_Andy_Meets_Linval_Thompson_at_Dub_Station_(Platinum_Edition)-BONUS_TRACKS-WEB-2012-SOUNDz
2017-05-31 22:13:20 MP3 King_Tubby-King_Tubby_Presents_Dub_From_The_Roots-WEB-2009-SOUNDz_iNT
2017-05-31 22:13:25 XXX MikeInBrazil.com_15.08.16.Leticia.Angel.Loving.It.XXX.iMAGESET-YAPG
2017-05-31 22:13:52 MP3 King_Tubby-King_Tubby_Presents_The_Roots_Of_Dub-BONUS_TRACKS-WEB-1990-SOUNDz
2017-05-31 22:14:15 MP3 King_Tubby-King_Tubbys_Classics_The_Lost_Midnight_Rock_Dubs_Chapter_3-WEB-2012-SOUNDz_iNT
2017-05-31 22:14:40 TV-X264 Modus.S01E07.SPANiSH.720p.HDTV.x264-FERiCE
2017-05-31 22:14:45 MP3 King_Tubby-King_Tubbys_Motion_Dub_1974-1978-WEB-2017-SOUNDz_iNT
2017-05-31 22:15:08 MP3 King_Tubby-King_of_Dub-WEB-1977-SOUNDz_iNT
2017-05-31 22:15:19 TV-XVID Modus.S01E07.SPANiSH.HDTV.x264-FERiCE
2017-05-31 22:15:33 MP3 King_Tubby-Majestic_Dub-WEB-1983-SOUNDz_iNT
2017-05-31 22:15:55 MP3 King_Tubby-Midnight_Rock_At_King_Tubbys-WEB-2015-SOUNDz
2017-05-31 22:16:21 MP3 King_Tubby-Surrounded_By_The_Dreads-WEB-1998-SOUNDz_iNT
2017-05-31 22:16:21 X264 James.Bond.007.jagt.Dr.No.1962.German.DL.1080p.Bluray.AVC-GUARDiANS
2017-05-31 22:16:44 MP3 King_Tubby-The_Dub_Express_Vol_2_Platinum_Edition-WEB-2012-SOUNDz
2017-05-31 22:17:08 MP3 King_Tubby-The_Dub_Express_Vol_3_Platinum_Edition-WEB-2012-SOUNDz
2017-05-31 22:17:32 MP3 King_Tubby-Upset_the_Upsetter-WEB-2017-SOUNDz
2017-05-31 22:17:45 FLAC Roger_Waters-Is_This_The_Life_We_Really_Want-CD-FLAC-2017-RiBS
2017-05-31 22:17:55 MP3 King_Tubby_and_The_Aggrovators-Shalom_Dub-BONUS_TRACKS-WEB-2012-SOUNDz
2017-05-31 22:18:19 MP3 Ronnie_Davis-The_Dub_Express_Vol_15_Platinum_Edition-WEB-2012-SOUNDz
2017-05-31 22:18:41 XXX MikeInBrazil.com_15.08.30.Nayra.Mendes.Juicy.Ass.XXX.iMAGESET-YAPG
2017-05-31 22:18:43 MP3 The_Aggrovators-Bobby_Ellis_and_The_Professionals_Meet_the_Revolutionaries-WEB-2015-SOUNDz
2017-05-31 22:19:06 MP3 Tommy_McCook-The_Dub_Express_Vol_9_Platinum_Edition-WEB-2012-SOUNDz
2017-05-31 22:19:29 MP3 U_Roy-EP_Vol_1-WEB-2012-SOUNDz
2017-05-31 22:20:31 BLURAY The.LEGO.Batman.Movie.2017.MULTi.COMPLETE.BLURAY-4FR
2017-05-31 22:20:57 0DAY GUILTY.GEAR.Xrd.REV.2-CODEX
2017-05-31 22:22:22 TV-HD-SP Los.Pasajeros.Del.Tiempo.S01E02.SPANiSH.1080p.HDTV.x264-FCC
2017-05-31 22:23:06 TV-HD-SP Los.Pasajeros.Del.Tiempo.S01E02.SPANiSH.720p.HDTV.x264-FCC
2017-05-31 22:23:08 0DAY Hover.Revolt.Of.Gamers.MacOSX-ACTiVATED
2017-05-31 22:23:17 TV-XVID Los.Pasajeros.Del.Tiempo.S01E02.SPANiSH.HDTV.x264-FCC
2017-05-31 22:25:28 X264 James.Bond.007.Liebesgruesse.aus.Moskau.1963.German.DL.1080p.Bluray.AVC-GUARDiANS
2017-05-31 22:27:10 XXX MikeInBrazil.com_15.09.06.Jady.Dick.Rider.XXX.iMAGESET-YAPG
2017-05-31 22:28:24 X264 John.Wick.2.German.DL.AC3.Dubbed.1080p.BluRay.x264-PsO
2017-05-31 22:33:13 XXX MikeInBrazil.com_15.09.13.Alessandra.Belly.Deep.XXX.iMAGESET-YAPG
2017-05-31 22:33:16 0DAY IObit.Smart.Defrag.Pro.5.v5.6.0.Incl.Keygen-AMPED
2017-05-31 22:36:26 X264 John.Wick.2.German.DL.AC3.Dubbed.720p.BluRay.x264-PsO
2017-05-31 22:36:33 MP3 Alfonso--What_I_Feel_EP-(ART003)-WEB-2017-dh
2017-05-31 22:38:12 APPS Andrea_Fissore--Arcade_EP-(FRK009)-WEB-2017-dh
2017-05-31 22:39:45 MP3 Cari_Golden_Reinier_Zonneveld--Bending_The_End-(FOA005)-WEB-2017-dh
2017-05-31 22:40:16 MP3 Impulser_And_Ayawaska-Karma_Project---WEB-2016-UNiCORN_INT
2017-05-31 22:40:36 MP3 JES-Before_You_Go-MM9580---WEB-2012-UNiCORN_INT
2017-05-31 22:40:51 MP3 Kaveh_Azizi--Tabriz_(Remixed_Pt._2)-(MFORCE072)---WEB-2014-UNiCORN_INT
2017-05-31 22:41:41 IMGSET MikeInBrazil.com_15.09.27.Samyra.Sexy.Samyra.XXX.iMAGESET-YAPG
2017-05-31 22:41:54 TV-X264 The.Great.Fire.S01E01.London.Burns.720p.HDTV.x264-QPEL
2017-05-31 22:42:33 MP3 Graypos--The_Melody_Of_The_Sun-(KRM039)-WEB-2017-dh
2017-05-31 22:44:29 TV The.Thirteen.Factors.That.Saved.Apollo.13.S01E02.720p.HDTV.x264-PLUTONiUM
2017-05-31 22:44:32 MP3 Jerry_Garcia-The_Pizza_Tapes_(Extra_Large_Edition)-BONUS_TRACKS-WEB-2011-ENTiTLED
2017-05-31 22:44:34 X264 John.Wick.2.BDRip.LD.German.x264-PsO
2017-05-31 22:44:53 MP3 Joe_Strummer-The_Interviews-WEB-2016-ENTiTLED
2017-05-31 22:45:13 MP3 Old_And_In_The_Way-Breakdown-WEB-1997-ENTiTLED
2017-05-31 22:45:25 MP3 Haffa--One_Key-(DRM030)-WEB-2017-dh
2017-05-31 22:45:33 MP3 Old_And_In_The_Way-That_High_Lonesome_Sound-WEB-1996-ENTiTLED
2017-05-31 22:45:55 MP3 Old_And_In_The_Way-The_Complete_Boarding_House_Shows-WEB-2013-ENTiTLED
2017-05-31 22:47:15 MP3 Lux_Experience--Shake_Ya_Booty-(MMD_034)-WEB-2017-dh
2017-05-31 22:47:52 XXX MikeInBrazil.com_15.10.04.Laysa.Berry.Sweet.XXX.iMAGESET-YAPG
2017-05-31 22:48:24 MP3 Marst--Amor-(TM007)-WEB-2017-dh
2017-05-31 22:48:47 TV The.Thirteen.Factors.That.Saved.Apollo.13.S01E02.1080p.HDTV.x264-PLUTONiUM
2017-05-31 22:49:59 X264 Resident.Evil.Afterlife.2010.German.DL.BluRay.1080p.AVC-GUARDiANS
2017-05-31 22:50:21 TV Uchouten.Kazoku.2.E08.SUBFRENCH.720p.HDTV.x264-AMB3R
2017-05-31 22:50:22 MP3 Spin_Worx_and_Arol_Kinzie--Matter_and_Moments-(BA001)-WEB-2017-dh
2017-05-31 22:50:31 TV-XVID Uchouten.Kazoku.2.E08.SUBFRENCH.HDTV.x264-AMB3R
2017-05-31 22:52:57 MP3 Ultraverse--Midnight_Call-(IDL069)-WEB-2017-dh
2017-05-31 22:55:13 BLURAY Guardians.2017.MULTi.COMPLETE.BLURAY-XORBiTANT
2017-05-31 22:58:07 X264 Resident.Evil.Afterlife.2010.German.DL.1080p.BluRay.AVC.DiRFiX-GUARDiANS
2017-05-31 23:04:04 TV-X264 The.Blacklist.S04E18.Philomena.Nr.61.GERMAN.DUBBED.DL.1080p.WebHD.x264-TVP
2017-05-31 23:05:06 TV-X264 Tegami.Bachi.E23.SUBFRENCH.720p.HDTV.x264-AMB3R
2017-05-31 23:05:19 TV-XVID Tegami.Bachi.E23.SUBFRENCH.HDTV.x264-AMB3R
2017-05-31 23:05:51 X264 The.Dark.Below.2016.1080p.BluRay.x264-SPRiNTER
2017-05-31 23:06:08 TV-X264 The.Blacklist.S04E18.Philomena.Nr.61.GERMAN.DUBBED.DL.720p.WebHD.x264-TVP
2017-05-31 23:07:30 FLAC Necromancing_The_Stone-Jewel_Of_The_Vile-CD-FLAC-2016-CATARACT
2017-05-31 23:07:43 TV-X264 Brooklyn.Nine.Nine.S03E03.Sie.isst.Oktopusbaellchen.und.schlaeft.auf.dem.Boden.GERMAN.1080p.HDTV.x264-MDGP
2017-05-31 23:08:12 FLAC Primal_Age-A_Silent_Wound-CDEP-FLAC-2017-CATARACT
2017-05-31 23:08:14 TV-XVID The.Blacklist.S04E18.Philomena.Nr.61.GERMAN.DUBBED.WS.WebRip.x264-TVP
2017-05-31 23:08:41 TV-X264 Brooklyn.Nine.Nine.S03E03.Sie.isst.Oktopusbaellchen.und.schlaeft.auf.dem.Boden.GERMAN.720p.HDTV.x264-MDGP
2017-05-31 23:09:26 TV-X264 Brooklyn.Nine.Nine.S03E03.Sie.isst.Oktopusbaellchen.und.schlaeft.auf.dem.Boden.GERMAN.HDTVRip.x264.INTERNAL-MDGP
2017-05-31 23:10:13 TV-X264 Brooklyn.Nine.Nine.S03E04.Die.ausgedoerrte.Huelse.von.Raymond.Holt.GERMAN.1080p.HDTV.x264-MDGP
2017-05-31 23:11:01 TV-X264 Brooklyn.Nine.Nine.S03E04.Die.ausgedoerrte.Huelse.von.Raymond.Holt.GERMAN.720p.HDTV.x264-MDGP
2017-05-31 23:11:07 TV-X264 House.of.Cards.S05E02.Cyberattacke.GERMAN.DUBBED.DL.1080p.WebHD.x264-TVP
2017-05-31 23:11:11 MP3 Timi_Tailor_-_Get_Ready-(EXR_0088)-WEB-2017-ZzZz_INT
2017-05-31 23:11:46 TV-X264 Brooklyn.Nine.Nine.S03E04.Die.ausgedoerrte.Huelse.von.Raymond.Holt.GERMAN.HDTVRip.x264.INTERNAL-MDGP
2017-05-31 23:12:55 ABOOK Geisterjaeger_John_Sinclair-116_Die_Totenmaske_Von_Atlantis-DE-AUDIOBOOK-CD-FLAC-2017-VOLDiES
2017-05-31 23:13:17 TV-X264 House.of.Cards.S05E02.Cyberattacke.GERMAN.DUBBED.DL.720p.WebHD.x264-TVP
2017-05-31 23:13:27 PRE Aimy.in.a.Cage.2016.1080p.WEBRip.x264-iNTENSO
2017-05-31 23:13:27 TV-X264 Gregorys.Two.Girls.1999.720p.HDTV.x264-SQUEAK
2017-05-31 23:14:32 X264 Isabella.Rossellinis.Green.Porno.Live.2015.720p.HDTV.x264-SQUEAK
2017-05-31 23:14:33 PRE Aimy.in.a.Cage.2016.720p.WEBRip.x264-iNTENSO
2017-05-31 23:15:22 TV-XVID House.of.Cards.S05E02.Cyberattacke.GERMAN.DUBBED.WS.WebRip.x264-TVP
2017-05-31 23:15:30 MP3 Matt_Wade_And_Marc_Lewis_-_On_Your_Head-(DT_077)-WEB-2017-ZzZz
2017-05-31 23:15:40 X264 Aimy.in.a.Cage.2016.WEBRip.x264-iNTENSO
2017-05-31 23:16:01 X264 Isabella.Rossellinis.Green.Porno.Live.2015.HDTV.x264-SQUEAK
2017-05-31 23:17:54 APPS Hover.Revolt.Of.Gamers.Linux-ACTiVATED
2017-05-31 23:19:41 MP3 VA-Visions_All_Areas_Vol._196-MAG-2017-gF
2017-05-31 23:21:05 MP3 Beach_Fossils-Somersault-2017-FNT
2017-05-31 23:23:10 MP3 D-Ray-D-Ray_Unscripted-EP-WEB-2009-ENRAGED
2017-05-31 23:23:24 MP3 D-Ray-My_Mixtape_Is_Killin_Your_Mixtape_2-WEB-2016-ENRAGED
2017-05-31 23:23:41 MP3 Dj_RPM-Dirty_Money_Part_7-WEB-2015-ENRAGED
2017-05-31 23:23:57 MP3 Dj_RPM-Texas_Takeover_Part_4_(Dallas_Edition)-WEB-2011-ENRAGED
2017-05-31 23:24:12 MP3 Dj_RPM-Texas_Takeover_Part_5_(Dallas_Edition)-WEB-2012-ENRAGED
2017-05-31 23:24:27 MP3 Rod_Anton-Ubatuba-PROMO-CD-2017-YARD
2017-05-31 23:24:27 MP3 Dj_RPM-Texas_Takeover_Part_6-WEB-2011-ENRAGED
2017-05-31 23:24:44 MP3 Dj_RPM-Texas_Takeover_Part_7-WEB-2011-ENRAGED
2017-05-31 23:24:58 MP3 Lynxxx-African_Badgirl_(feat_Banky_W)-SINGLE-WEB-2013-ENRAGED
2017-05-31 23:25:15 MP3 Lynxxx-Pray_4_You_(feat_Tekno)-SINGLE-WEB-2015-ENRAGED
2017-05-31 23:25:30 MP3 Lynxxx-Serve_You-SINGLE-WEB-2016-ENRAGED
2017-05-31 23:25:37 MP3 Adamon-The_End_of_Time-WEB-2017-ENTiTLED
2017-05-31 23:25:45 MP3 Lynxxx-The_Album_Before_the_Album-WEB-2016-ENRAGED
2017-05-31 23:25:52 MP3 Pablo_Moses-The_Itinuation-PROMO-CD-2017-YARD
2017-05-31 23:25:53 MP3 Arbiter-Colossus_Reborn-WEB-2017-ENTiTLED
2017-05-31 23:26:02 MP3 Mcevoy-Summer_Nights-EP-WEB-2015-ENRAGED
2017-05-31 23:26:09 MP3 Arcite-As_the_Fire_Takes_Hold-WEB-2017-ENTiTLED
2017-05-31 23:26:16 MP3 Mcevoy_And_SD-In_Time-EP-WEB-2016-ENRAGED
2017-05-31 23:26:24 MP3 Codex_Alimentarius-The_Infinite_Growth_Paradigm_MK2-WEB-2017-ENTiTLED
2017-05-31 23:26:32 MP3 Roccett_and_DJ_RPM-Music_2_Drive_By-WEB-2010-ENRAGED
2017-05-31 23:26:40 MP3 Curva_Sur-Siempre_Firmes-WEB-SP-2017-ENTiTLED
2017-05-31 23:26:47 MP3 Young_Mac_and_Ethan_Sacii-Thats_on_Us-SINGLE-WEB-2015-ENRAGED
2017-05-31 23:26:55 MP3 Curva_Sur-Unidos_Contra_Todo-WEB-SP-2014-ENTiTLED
2017-05-31 23:27:10 MP3 Divinex-Create_Affect_Repeat-WEB-2017-ENTiTLED
2017-05-31 23:27:27 MP3 Erik_Ekholm-Uprising-WEB-2017-ENTiTLED
2017-05-31 23:27:43 MP3 Falso_Profeta-Mal_Camino-WEB-SP-2017-ENTiTLED
2017-05-31 23:27:58 MP3 Future_Sequence-Firstborn_Metempsychosis-WEB-2016-ENTiTLED
2017-05-31 23:28:14 MP3 Henry_Metal-So_It_Hath_Begun-WEB-2017-ENTiTLED
2017-05-31 23:28:30 MP3 Horrid-Beyond_the_Dark_Border-WEB-2017-ENTiTLED
2017-05-31 23:28:45 MP3 Peter_Graigs-The_Beginning_of_the_End-WEB-2017-ENTiTLED
2017-05-31 23:29:00 X264 Resident.Evil.The.Final.Chapter.2016.TRUEFRENCH.720p.BluRay.x264-AiRLiNE
2017-05-31 23:29:01 MP3 TarantisT-Not_a_Crime-WEB-2017-ENTiTLED
2017-05-31 23:29:18 MP3 Tonewielder-Peaks_and_Plateaus-WEB-2017-ENTiTLED
2017-05-31 23:29:33 MP3 Violet_Cold-Anomie_(Instrumental_Version)-WEB-2017-ENTiTLED
2017-05-31 23:29:48 MP3 Zottelbock-Marionettes-WEB-2016-ENTiTLED
2017-05-31 23:30:12 TV-X264 Britains.Got.Talent.S11E13.720p.HDTV.x264-FTP
2017-05-31 23:30:17 TV-XVID Hero.Corp.S05E04.FRENCH.HDTV.x264-AMB3R
2017-05-31 23:30:41 TV-X264 Brooklyn.Nine.Nine.S03E05.Der.wahre.Koenig.des.99.GERMAN.1080p.HDTV.x264-MDGP
2017-05-31 23:31:35 TV-X264 Brooklyn.Nine.Nine.S03E05.Der.wahre.Koenig.des.99.GERMAN.720p.HDTV.x264-MDGP
2017-05-31 23:32:22 TV-X264 Brooklyn.Nine.Nine.S03E05.Der.wahre.Koenig.des.99.GERMAN.HDTVRip.x264.INTERNAL-MDGP
2017-05-31 23:34:53 XXX-0DAY UltimateSurrender.17.05.31.Lea.Lexis.And.Simone.Garza.XXX.720p.MP4-KTR
2017-05-31 23:36:04 TV-X264 Hero.Corp.S05E04.FRENCH.720p.HDTV.x264-SH0W
2017-05-31 23:36:58 EBOOK Anchor.Academic.Publishing.-.RSM.A.Key.to.Optimize.Machining.2014.Retail.eBook-BitBook
2017-05-31 23:37:38 EBOOK CRC.Press.-.Data.Fusion.Mathematics.Theory.and.Practice.2015.Retail.eBook-BitBook
2017-05-31 23:38:19 EBOOK Harvard.University.Press.-.A.Natural.History.of.Human.Thinking.2014.Retail.eBook-BitBook
2017-05-31 23:39:02 EBOOK Harvard.University.Press.-.The.Perfect.Wave.2014.Retail.eBook-BitBook
2017-05-31 23:39:19 MP3 Krak_In_Dub-Amazonite-PROMO-CDM-2017-YARD
2017-05-31 23:39:42 EBOOK Packt.-.Building.a.Web.Application.with.PHP.and.MariaDB.2014.Retail.eBook-BitBook
2017-05-31 23:40:23 EBOOK Packt.-.Building.Scalable.Apps.with.Redis.and.Node.js.2014.Retail.eBook-BitBook
2017-05-31 23:41:06 EBOOK Packt.-.Building.Virtual.Pentesting.Labs.for.Advanced.Penetration.Testing.2014.Retail.eBook-BitBook
2017-05-31 23:41:38 TV Springwatch.S13E03.720p.HDTV.x264-QPEL
2017-05-31 23:41:44 EBOOK Routledge.-.Research.Methods.in.Applied.Settings.2016.3rd.Edition.Retail.eBook-BitBook
2017-05-31 23:42:23 EBOOK The.MIT.Press.-.A.Composer.s.Guide.to.Game.Music.2014.Retail.eBook-BitBook
2017-05-31 23:43:03 EBOOK The.MIT.Press.-.Free.Will.2014.Retail.eBook-BitBook
2017-05-31 23:43:42 EBOOK The.MIT.Press.-.Making.Democracy.Fun.2014.Retail.eBook-BitBook
2017-05-31 23:44:20 EBOOK Wiley.-.Building.Cross-Platform.Apps.using.Titanium.Alloy.and.Appcelerator.2014.Retail.eBook-BitBook
2017-05-31 23:44:58 EBOOK Wiley.-.Building.the.Internet.of.Things.with.IPv6.and.MIPv6.2013.Retail.eBook-BitBook
2017-05-31 23:45:39 EBOOK Wiley.-.Data.Center.Handbook.2014.Retail.eBook-BitBook
2017-05-31 23:46:10 X264 Resident.Evil.The.Final.Chapter.2016.TRUEFRENCH.BDRip.x264-RUDE
2017-05-31 23:46:17 EBOOK Wiley.-.Decoded.The.Science.Behind.Why.We.Buy.2013.Retail.eBook-BitBook
2017-05-31 23:46:38 TV-X264 Power.2014.S03E01.720p.BluRay.x264-DEMAND
2017-05-31 23:46:56 EBOOK Wiley.-.Energy.Storage.in.Power.Systems.2016.Retail.eBook-BitBook
2017-05-31 23:47:37 EBOOK Wiley.-.Incremental.Software.Architecture.2016.Retail.eBook-BitBook
2017-05-31 23:47:41 TV-X264 Power.2014.S03E02.720p.BluRay.x264-DEMAND
2017-05-31 23:47:57 MP3 Alf_Graham_-_Hold_Me_Tight-(SSD_021)-WEB-2017-ZzZz
2017-05-31 23:48:18 EBOOK Wiley.-.Linux.Bible.2015.9th.Edition.Retail.eBook-BitBook
2017-05-31 23:48:52 TV-X264 Power.2014.S03E03.720p.BluRay.x264-DEMAND
2017-05-31 23:48:56 EBOOK Wiley.-.Optimization.of.Computer.Networks.2016.Retail.eBook-BitBook
2017-05-31 23:49:30 TV-X264 The.Exorcist.S01E09.FRENCH.720p.HDTV.x264-SH0W
2017-05-31 23:49:36 EBOOK Wiley.-.Plastics.Product.Design.2016.Retail.eBook-BitBook
2017-05-31 23:49:51 TV-X264 Power.2014.S03E04.720p.BluRay.x264-DEMAND
2017-05-31 23:50:18 EBOOK Wiley.-.Spark.Big.Data.Cluster.Computing.in.Production.2016.Retail.eBook-BitBook
2017-05-31 23:50:53 TV-X264 Power.2014.S03E06.720p.BluRay.x264-DEMAND
2017-05-31 23:50:55 EBOOK Wiley.-.Trustworthy.Cloud.Computing.2016.Retail.eBook-BitBook
2017-05-31 23:51:43 TV-X264 Power.2014.S03E07.720p.BluRay.x264-DEMAND
2017-05-31 23:53:09 TV-X264 Power.2014.S03E08.720p.BluRay.x264-DEMAND
2017-05-31 23:54:14 TV-BLURAY Power.2014.S03E05.720p.BluRay.x264-DEMAND
2017-05-31 23:54:40 FLAC Soom_T_And_Budz-Ode_To_A_Karrot-PROMO-CD-FLAC-2017-YARD
2017-05-31 23:54:45 TV-BLURAY Power.2014.S03E09.720p.BluRay.x264-DEMAND
2017-05-31 23:55:25 TV-X264 Power.2014.S03E10.720p.BluRay.x264-DEMAND
2017-05-31 23:55:32 TV-X264 White.Gold.S01E02.720p.HDTV.x264-MTB
2017-05-31 23:55:51 FLAC Rod_Anton-Ubatuba-PROMO-CD-FLAC-2017-YARD
2017-05-31 23:56:44 TV-XVID White.Gold.S01E02.HDTV.x264-MTB
2017-05-31 23:56:46 FLAC Pablo_Moses-The_Itinuation-PROMO-CD-FLAC-2017-YARD
2017-05-31 23:57:27 TV-X264 White.Gold.S01E02.1080p.HDTV.H264-MTB
2017-05-31 23:57:37 X264 Life.German.AC3.Dubbed.1080p.WebHD.h264-PsO
2017-05-31 23:58:32 BLURAY Le.Diner.De.Cons.1998.COMPLETE.BLURAY-AiRFORCE
2017-05-31 23:59:03 MP3 Brown_Bag_AllStars-11_Steps_(feat_Tash)-SINGLE-WEB-2017-ENRAGED